[[{"header":{"parameterUnit":"m.s-1","parameterCategory":1,"la1":30.6,"la2":29.2853,"lo1":-89.7004,"lo2":-87.6739,"dy":0.0162,"dx":0.0183,"nx":112,"ny":82,"refTime":"2024-09-21T12:00:00:Z","depth":0,"parameterNumber":2,"parameterNumberName":"U-component_of_WINDS"},"data":[0.0,0.0,0.0,0.0,0.0,0.0,0.0,0.0,0.0,0.0,0.0,0.0,0.0,0.0,0.0,0.0,0.0,0.0,0.0,0.0,0.0,0.0,0.0,0.0,0.0,0.0,0.0,0.0,0.0,0.0,0.0,0.0,0.0,0.0,0.0,0.0,0.0,0.0,0.0,0.0,0.0,0.0,0.0,0.0,0.0,0.0,0.0,0.0,0.0,0.0,0.0,0.0,0.0,0.0,0.0,0.0,0.0,0.0,0.0,0.0,0.0,0.0,0.0,0.0,0.0,0.0,0.0,0.0,0.0,0.0,0.0,0.0,0.0,0.0,0.0,0.0,0.0,0.0,0.0,0.0,0.0,0.0,0.0,0.0,0.0,0.0,0.0,0.0,0.0,0.0,0.6442,0.7761,0.5751,0.4049,0.341,0.0506,-0.0981,-0.027,0.0,0.0,0.0,0.0,0.0,0.0,0.0,0.0,0.0,0.0,0.0,0.0,0.0,0.0,0.0,0.0,0.0,0.0,0.0,0.0,0.0,0.0,0.0,0.0,0.0,0.0,0.0,0.0,0.0,0.0,0.0,0.0,0.0,0.0,0.0,0.0,0.0,0.0,0.0,0.0,0.0,0.0,0.0,0.0,0.0,0.0,0.0,0.0,0.0,0.0,0.0,0.0,0.0,0.0,0.0,0.0,0.0,0.0,0.0,0.0,0.0,0.0,0.0,0.0,0.0,0.0,0.0,0.0,0.0,0.0,0.0,0.0,0.0,0.0,0.0,0.0,0.0,0.0,0.0,0.0,0.0,0.0,0.0,0.0,0.0,0.0,0.0,0.0,0.0,0.0,0.0,0.0,0.0,0.0,0.0,0.0,0.0,0.0,0.0,0.0,0.0,0.0,0.0,0.0,0.6843,0.8604,0.5866,0.2591,-0.0602,-0.1339,-0.1523,-0.1286,0.0,0.0,0.0,0.0,0.0,0.0,0.0,0.0,0.0,0.0,0.0,0.0,0.0,0.0,0.0,0.0,0.0,0.0,0.0,0.0,0.0,0.0,0.0,0.0,0.0,0.0,0.0,0.0,0.0,0.0,0.0,0.0,0.0,0.0,0.0,0.0,0.0,0.0,0.0,0.0,0.0,0.0,0.0,0.0,0.0,0.0,0.0,0.0,0.0,0.0,0.0,0.0,0.0,0.0,0.0,0.0,0.0,0.0,0.0,0.0,0.0,0.0,0.0,0.0,0.0,0.0,0.0,0.0,0.0,0.0,0.0,0.0,0.0,0.0,0.0,0.0,0.0,0.0,0.0,0.0,0.0,0.0,0.0,0.0,0.0,0.0,0.0,0.0,0.0,0.0,0.0,0.0,0.0,0.0,0.0,0.0,0.0,0.0,0.0,0.0,0.0,0.0,0.0,0.6714,0.6386,0.586,0.327,0.0367,-0.2636,-0.3923,-0.4099,-0.2988,-0.1455,0.0,0.0,0.0,0.0,0.0,0.0,0.0,0.0,0.0,0.0,0.0,0.0,0.0,0.0,0.0,0.0,0.0,0.0,0.0,0.0,0.0,0.0,0.0,0.0,0.0,0.0,0.0,0.0,0.0,0.0,0.0,0.0,0.0,0.0,0.0,0.0,0.0,0.0,0.0,0.0,0.0,0.0,0.0,0.0,0.0,0.0,0.0,0.0,0.0,0.0,0.0,0.0,0.0,0.0,0.0,0.0,0.0,0.0,0.0,0.0,0.0,0.0,0.0,0.0,0.0,0.0,0.0,0.0,0.0,0.0,0.0,0.0,0.0,0.0,0.0,0.0,0.0,0.0,0.0,0.0,0.0,0.0,0.0,0.0,0.0,0.0,0.0,0.0,0.0,0.0,0.0,0.0,0.0,0.0,0.0,0.0,0.0,0.0,0.0,0.0,0.0,0.0,0.5856,0.4852,0.2353,-0.0092,-0.247,-0.4762,-0.615,-0.6089,-0.4182,-0.3133,0.0,0.0,0.0,0.0,0.0,0.0,0.0,0.0,0.0,0.0,0.0,0.0,0.0,0.0,0.0,0.0,0.0,0.0,0.0,0.0,0.0,0.0,0.0,0.0,0.0,0.0,0.0,0.0,0.0,0.0,0.0,0.0,0.0,0.0,0.0,0.0,0.0,0.0,0.0,0.0,0.0,0.0,0.0,0.0,0.0,0.0,0.0,0.0,0.0,0.0,0.0,0.0,0.0,0.0,0.0,0.0,0.0,0.0,0.0,0.0,0.0,0.0,0.0,0.0,0.0,0.0,0.0,0.0,0.0,0.0,0.0,0.0,0.0,0.0,0.0,0.0,0.0,0.0,0.0,0.0,0.0,0.0,0.0,0.0,0.0,0.0,0.0,0.0,0.0,0.0,0.0,0.0,0.0,0.0,0.0,0.0,0.0,0.0,0.0,0.0,0.0,0.0,0.3764,0.1723,-0.0639,-0.3488,-0.6068,-0.8178,-0.7301,-0.5848,-0.4036,-0.3093,0.0,0.0,0.0,0.0,0.0,0.0,0.0,0.0,0.0,0.0,0.0,0.0,0.0,0.0,0.0,0.0,0.0,0.0,0.0,0.0,0.0,0.0,0.0,0.0,0.0,0.0,0.0,0.0,0.0,0.0,0.0,0.0,0.0,0.0,0.0,0.0,0.0,0.0,0.0,0.0,0.0,0.0,0.0,0.0,0.0,0.0,0.0,0.0,0.0,0.0,0.0,0.0,0.0,0.0,0.0,0.0,0.0,0.0,0.0,0.0,0.0,0.0,0.0,0.0,0.0,0.0,0.0,0.0,0.0,0.0,0.0,0.0,0.0,0.0,0.0,0.0,0.0,0.0,0.0,0.0,0.0,0.0,0.0,0.0,0.0,0.0,0.0,0.0,0.0,0.0,0.0,0.0,0.0,0.0,0.0,0.0,0.0,0.0,0.0,0.0,0.0,0.0,0.0563,-0.1752,-0.3573,-0.6427,-0.8425,-0.8911,-0.7814,-0.6231,-0.4206,0.0,0.0,0.0,0.0,0.0,0.0,0.0,0.0,0.0,0.0,0.0,0.0,0.0,0.0,0.0,0.0,0.0,0.0,0.0,0.0,0.0,0.0,0.0,0.0,0.0,0.0,0.0,0.0,0.0,0.0,0.0,0.0,0.0,0.0,0.0,0.0,0.0,0.0,0.0,0.0,0.0,0.0,0.0,0.0,0.0,0.0,0.0,0.0,0.0,0.0,0.0,0.0,0.0,0.0,0.0,0.0,0.0,0.0,0.0,0.0,0.0,0.0,0.0,0.0,0.0,0.0,0.0,0.0,0.0,0.0,0.0,0.0,0.0,0.0,0.0,0.0,0.0,0.0,0.0,0.0,0.0,0.0,0.0,0.0,0.0,0.0,0.0,0.0,0.0,0.0,0.0,0.0,0.0,0.0,0.0,0.0,0.0,0.0,0.0,0.0,0.0,0.0,0.0403,-0.2251,-0.4766,-0.6661,-0.8593,-0.9547,-0.9101,-0.798,-0.6384,-0.4243,0.0,0.0,0.0,0.0,0.0,0.0,0.0,0.0,0.0,0.0,0.0,0.0,0.0,0.0,0.0,0.0,0.0,0.0,0.0,0.0,0.0,0.0,0.0,0.0,0.0,0.0,0.0,0.0,0.0,0.0,0.0,0.0,0.0,0.0,0.0,0.0,0.0,0.0,0.0,0.0,0.0,0.0,0.0,0.0,0.0,0.0,0.0,0.0,0.0,0.0,0.0,0.0,0.0,0.0,0.0,0.0,0.0,0.0,0.0,0.0,0.0,0.0,0.0,0.0,0.0,0.0,0.0,0.0,0.0,0.0,0.0,0.0,0.0,0.0,0.0,0.0,0.0,0.0,0.0,0.0,0.0,0.0,0.0,0.0,0.0,0.0,0.0,0.0,0.0,0.0,0.0,0.0,0.0,0.0,0.0,0.0,0.0,0.0,0.0,0.0,0.0,0.0,-0.2199,-0.447,-0.7187,-0.9904,-0.9836,-0.9446,-0.9034,-0.7846,-0.6183,0.0,0.0,0.0,0.0,0.0,0.0,0.0,0.0,0.0,0.0,0.0,0.0,0.0,0.0,0.0,0.0,0.0,0.0,0.0,0.0,0.0,0.0,0.0,0.0,0.0,0.0,0.0,0.0,0.0,0.0,0.0,0.0,0.0,0.0,0.0,0.0,0.0,0.0,0.0,0.0,0.0,0.0,0.0,0.0,0.0,0.0,0.0,0.0,0.0,0.0,0.0,0.0,0.0,0.0,0.0,0.0,0.0,0.0,0.0,0.0,0.0,0.0,0.0,0.0,0.0,0.0,0.0,0.0,0.0,0.0,0.0,0.0,0.0,0.0,0.0,0.0,0.0,0.0,0.0,0.0,0.0,0.0,0.0,0.0,0.0,0.0,0.0,0.0,0.0,0.0,0.0,0.0,0.0,0.0,0.0,0.0,0.0,0.0,0.0,0.0,0.0,0.0,0.0,-0.253,-0.6282,-0.9112,-0.9461,-0.968,-0.9662,-0.9316,-0.8377,-0.6891,-0.4748,0.0,0.0,0.0,0.0,0.0,0.0,0.0,0.0,0.0,0.0,0.0,0.0,0.0,0.0,0.0,0.0,0.0,0.0,0.0,0.0,0.0,0.0,0.0,0.0,0.0,0.0,0.0,0.0,0.0,0.0,0.0,0.0,0.0,0.0,0.0,0.0,0.0,0.0,0.0,0.0,0.0,0.0,0.0,0.0,0.0,0.0,0.0,0.0,0.0,0.0,0.0,0.0,0.0,0.0,0.0,0.0,0.0,0.0,0.0,0.0,0.0,0.0,0.0,0.0,0.0,0.0,0.0,0.0,0.0,0.0,0.0,0.0,0.0,0.0,0.0,0.0,0.0,0.0,0.0,0.0,0.0,0.0,0.0,0.0,0.0,0.0,0.0,0.0,0.0,0.0,0.0,0.0,0.0,0.0,0.0,0.0,0.0,0.0,0.0,0.0,0.0,0.0,-0.3866,-0.7513,-0.9963,-0.957,-0.9732,-0.9704,-0.9313,-0.8665,-0.7289,-0.4995,0.0,0.0,0.0,0.0,0.0,0.0,0.0,0.0,0.0,0.0,0.0,0.0,0.0,0.0,0.0,0.0,0.0,0.0,0.0,0.0,0.0,0.0,0.0,0.0,0.0,0.0,0.0,0.0,0.0,0.0,0.0,0.0,0.0,0.0,0.0,0.0,0.0,0.0,0.0,0.0,0.0,0.0,0.0,0.0,0.0,0.0,0.0,0.0,0.0,0.0,0.0,0.0,0.0,0.0,0.0,0.0,0.0,0.0,0.0,0.0,0.0,0.0,0.0,0.0,0.0,0.0,0.0,0.0,0.0,0.0,0.0,0.0,0.0,0.0,0.0,0.0,0.0,0.0,0.0,0.0,0.0,0.0,0.0,0.0,0.0,0.0,0.0,0.0,0.0,0.0,0.0,0.0,0.0,0.0,0.0,0.0,0.0,0.0,0.0,0.0,0.0,0.0,-0.5647,-0.8201,-0.9987,-0.9974,-0.9863,-0.961,-0.9162,-0.8765,-0.7528,-0.5154,0.0,0.0,0.0,0.0,0.0,0.0,0.0,0.0,0.0,0.0,0.0,0.0,0.0,0.0,0.0,0.0,0.0,0.0,0.0,0.0,0.0,0.0,0.0,0.0,0.0,0.0,0.0,0.0,0.0,0.0,0.0,0.0,0.0,0.0,0.0,0.0,0.0,0.0,0.0,0.0,0.0,0.0,0.0,0.0,0.0,0.0,0.0,0.0,0.0,0.0,0.0,0.0,0.0,0.0,0.0,0.0,0.0,0.0,0.0,0.0,-0.1394,-0.0387,0.0,0.0,0.0,0.0,0.0,0.0,0.0,0.0,0.0,0.0,0.0,0.0,0.0,0.0,0.0,0.0,0.0,0.0,0.0,0.0,0.0,0.0,0.0,0.0,0.0,0.0,0.0,0.0,0.0,0.0,0.0,0.0,0.0,0.0,0.0,0.0,0.0,0.0,0.0,0.0,-0.5557,-0.8144,-0.9901,-0.9848,-0.9824,-0.9651,-0.9277,-0.9039,-0.8204,-0.6549,-0.497,0.0,0.0,0.0,0.0,0.0,0.0,0.0,0.0,0.0,0.0,0.0,0.0,0.0,0.0,0.0,0.0,0.0,0.0,0.0,0.0,0.0,0.0,0.0,0.0,0.0,0.0,0.0,0.0,0.0,0.0,0.0,0.0,0.0,0.0,0.0,0.0,0.0,0.0,0.0,0.0,0.0,0.0,0.0,0.0,0.0,0.0,0.0,0.0,0.0,0.0,0.0,0.0,0.0,0.0,0.0,0.0,0.0,0.0,0.0,-0.5458,-0.3604,0.0,0.0,0.0,0.0,0.0,0.0,0.0,0.0,0.0,0.0,0.0,0.0,0.0,0.0,0.0,0.0,0.0,0.0,0.0,0.0,0.0,0.0,0.0,0.0,0.0,0.0,0.0,0.0,0.0,0.0,0.0,0.0,0.0,0.0,0.0,0.0,0.0,0.0,0.0,0.0,-0.7473,-0.8938,-0.9794,-0.9794,-0.9713,-0.9557,-0.9331,-0.9064,-0.8354,-0.7082,-0.5985,0.0,0.0,0.0,0.0,0.0,0.0,0.0,0.0,0.0,0.0,0.0,0.0,0.0,0.0,0.0,0.0,0.0,0.0,0.0,0.0,0.0,0.0,0.0,0.0,0.0,0.0,0.0,0.0,0.0,0.0,0.0,0.0,0.0,0.0,0.0,0.0,0.0,0.0,0.0,0.0,0.0,0.0,0.0,0.0,0.0,0.0,0.0,0.0,0.0,0.0,0.0,0.0,0.0,-1.1551,-1.245,-1.3338,-1.2802,-1.2851,-1.3186,-0.9853,-0.761,-0.6267,-0.5757,0.0,0.0,0.0,0.0,0.0,0.0,0.0,0.0,0.0,0.0,0.0,0.0,0.0,0.0,0.0,0.0,0.0,0.0,0.0,0.0,0.0,0.0,-0.6063,-0.6757,-0.8032,-0.803,-0.4032,0.0,0.0,0.0,0.0,0.0,0.0,0.0,0.0,0.0,0.0,0.0,-0.9386,-0.971,-0.9687,-0.9743,-0.9607,-0.943,-0.9284,-0.9012,-0.8432,-0.743,-0.6946,-0.5852,0.0,0.0,0.0,0.0,0.0,0.0,0.0,0.0,0.0,0.0,0.0,0.0,0.0,0.0,0.0,0.0,0.0,0.0,0.0,0.0,0.0,0.0,0.0,0.0,0.0,0.0,0.0,0.0,0.0,0.0,0.0,0.0,-0.1181,-0.2315,0.0,0.0,0.0,0.0,0.0,0.0,0.0,0.0,0.0,0.0,0.0,0.0,0.0,-1.0764,-1.209,-1.3154,-1.3743,-1.3898,-1.4656,-1.5112,-1.5233,-1.5151,-1.5168,-1.5216,-1.4682,0.0,-1.023,-0.8724,0.0,0.0,0.0,0.0,0.0,0.0,0.0,0.0,0.0,0.0,0.0,0.0,0.0,0.0,0.0,0.0,0.0,0.0,0.0,0.0,0.0,0.0,-0.8447,-0.9245,-0.9918,-1.0192,-0.9559,-0.7709,-0.6184,-0.6186,-0.497,-0.3738,0.0,0.0,0.0,0.0,0.0,0.0,-0.8684,-0.922,-0.9534,-0.9542,-0.9517,-0.9394,-0.9139,-0.9088,-0.8906,-0.8504,-0.7569,-0.6697,-0.5955,-0.4448,0.0,0.0,0.0,0.0,0.0,0.0,0.0,0.0,0.0,0.0,0.0,0.0,0.0,0.0,0.0,0.0,0.0,0.0,0.0,0.0,0.0,0.0,0.0,0.0,0.0,0.0,0.0,0.0,0.0,-0.2763,-0.4279,-0.503,-0.4744,-0.4422,0.0,0.0,0.0,0.0,0.0,0.0,0.0,0.0,0.0,-1.2088,-1.2988,-1.3981,-1.5109,-1.6349,-1.6965,-1.6982,-1.7726,-1.8059,-1.8059,-1.8059,-1.8059,-1.8059,-1.8059,-1.7082,-1.5282,-1.2665,-1.1197,-1.0476,0.0,0.0,0.0,0.0,-0.8184,-0.8266,-0.8763,-0.8928,-0.8999,-0.9373,0.0,0.0,0.0,0.0,0.0,0.0,0.0,-0.873,-1.0601,-1.1516,-1.2139,-1.2918,-1.3249,-1.3306,-1.2872,-1.1614,-1.024,-0.9188,-0.7763,-0.6664,-0.6426,-0.627,0.0,0.0,0.0,-0.831,-0.8959,-0.9245,-0.9385,-0.9385,-0.9321,-0.9218,-0.9099,-0.9043,-0.8902,-0.8717,-0.8157,-0.757,-0.6999,-0.5593,-0.4195,0.0,0.0,0.0,0.0,0.0,0.0,0.0,0.0,0.0,0.0,0.0,0.0,0.0,0.0,0.0,0.0,0.0,0.0,0.0,0.0,0.0,0.0,0.0,0.0,0.0,0.0,0.0,0.0,-0.5746,-0.7173,-0.7589,-0.7872,-0.7723,0.0,0.0,0.0,0.0,0.0,0.0,-1.1909,-1.3089,-1.4316,-1.5576,-1.6153,-1.6796,-1.754,-1.864,-1.9181,-1.9198,-1.9731,-2.0002,-2.0002,-2.0002,-2.0002,-2.0002,-2.0002,-1.9681,-1.8971,-1.621,-1.4578,-1.3784,-1.3099,-1.2787,-1.2731,-1.2722,-1.2713,-1.2845,-1.3633,-1.4005,-1.4081,-1.3845,-1.3144,-1.214,-1.072,0.0,0.0,0.0,0.0,-1.2371,-1.4115,-1.4656,-1.4919,-1.5477,-1.5595,-1.5443,-1.4902,-1.4344,-1.3379,-1.1432,-1.0022,-0.9204,-0.9334,-0.8531,0.0,-0.889,-0.8992,-0.9234,-0.9887,-0.9885,-0.9816,-0.9816,-0.9558,-0.9362,-0.9336,-0.9044,-0.8806,-0.8705,-0.8463,-0.8104,-0.7607,-0.6506,-0.5329,-0.4124,0.0,0.0,0.0,0.0,0.0,0.0,0.0,0.0,0.0,0.0,0.0,0.0,0.0,0.0,0.0,0.0,0.0,0.0,0.0,0.0,0.0,0.0,0.0,0.0,0.0,0.0,0.0,0.0,0.0,-0.9319,-1.087,0.0,0.0,0.0,0.0,-1.2441,-1.2957,-1.3852,-1.5271,-1.5423,-1.6458,-1.8606,-1.8707,-1.9096,-1.9816,-1.99,-1.9934,-1.9951,-1.9985,-2.0002,-2.0002,-2.0002,-2.0002,-2.0002,-2.0002,-1.9985,-1.9866,-1.8726,-1.7983,-1.7485,-1.6937,-1.7009,-1.7429,-1.7173,-1.7236,-1.7429,-1.7223,-1.7169,-1.7122,-1.6799,-1.5751,-1.4503,-1.3778,-1.3206,0.0,0.0,-1.4143,-1.4508,-1.5322,-1.5544,-1.5544,-1.5595,-1.5595,-1.5595,-1.5544,-1.5511,-1.4834,-1.2636,-1.1538,-1.1005,-1.1153,0.0,-1.1155,-1.1392,-1.1263,-1.1237,-1.1457,-1.1316,-1.1188,-1.1188,-1.0566,-1.0093,-0.9958,-0.92,-0.8705,-0.8705,-0.8332,-0.8007,-0.7796,-0.694,-0.5892,-0.4686,-0.3371,0.0,0.0,0.0,0.0,0.0,0.0,0.0,0.0,0.0,0.0,0.0,0.0,0.0,0.0,0.0,0.0,0.0,0.0,0.0,0.0,0.0,0.0,0.0,0.0,0.0,0.0,0.0,0.0,-1.1974,-1.2883,0.0,-1.2373,-1.3493,-1.4354,-1.4579,-1.6041,-1.7168,-1.7693,-1.8183,-1.8785,-1.9562,-2.0111,-2.05,-2.0771,-2.1245,-2.1471,-2.1471,-2.1471,-2.1471,-2.1471,-2.1471,-2.1471,-2.1471,-2.1471,-2.1471,-2.1437,-2.1086,-2.0271,-1.9208,-1.9018,-1.9043,-1.9208,-1.9117,-1.9142,-1.9208,-1.9117,-1.9076,-1.8984,-1.8376,-1.7859,-1.7376,-1.7148,-1.6965,-1.698,-1.7721,-1.7985,-1.7974,-1.7777,-1.771,-1.7591,-1.7134,-1.7033,-1.6898,-1.6407,-1.6309,-1.5917,-1.4665,-1.343,-1.2446,-1.2016,-1.152,-1.1189,-1.1278,-1.1229,-1.1202,-1.1278,-1.1229,-1.1179,-1.1179,-1.094,-1.0534,-0.9922,-0.959,-0.915,-0.8549,-0.8251,-0.8061,-0.7993,-0.7199,-0.6403,-0.5608,-0.4009,-0.2578,0.0,0.0,0.0,0.0,0.0,0.0,0.0,0.0,0.0,0.0,0.0,0.0,0.0,0.0,0.0,0.0,0.0,0.0,0.0,0.0,0.0,0.0,0.0,0.0,0.0,-1.2322,-1.3909,-1.4124,-1.5112,-1.5546,-1.4936,-1.6101,-1.6936,-1.7062,-1.8454,-1.9384,-1.9655,-2.0145,-2.0508,-2.0762,-2.1295,-2.1566,-2.1566,-2.2057,-2.231,-2.231,-2.231,-2.231,-2.231,-2.231,-2.231,-2.231,-2.231,-2.231,-2.231,-2.231,-2.1718,-2.0779,-2.0779,-2.0779,-2.0779,-2.0779,-2.0823,-2.0918,-2.0918,-2.0705,-2.0331,-1.9824,-1.9486,-1.9283,-1.9283,-1.9283,-1.9384,-1.9849,-2.0002,-1.9883,-1.9401,-1.9283,-1.9164,-1.8674,-1.8369,-1.8048,-1.754,-1.7258,-1.6847,-1.6103,-1.4988,-1.4006,-1.3498,-1.2754,-1.2246,-1.2246,-1.2043,-1.1889,-1.1889,-1.1889,-1.1889,-1.1889,-1.1654,-1.1227,-1.0572,-1.0062,-0.946,-0.8675,-0.8312,-0.809,-0.8037,-0.7456,-0.6861,-0.6244,-0.4447,-0.3037,-0.2028,0.0,0.0,0.0,0.0,0.0,0.0,0.0,0.0,0.0,0.0,0.0,0.0,0.0,0.0,0.0,0.0,0.0,0.0,0.0,0.0,0.0,0.0,0.0,-1.2323,-1.4057,-1.5499,-1.5711,-1.7625,-1.8657,-1.7946,-1.9174,-2.0035,-2.0035,-2.0052,-2.0416,-2.1204,-2.1237,-2.1549,-2.2293,-2.231,-2.231,-2.231,-2.231,-2.231,-2.231,-2.231,-2.231,-2.231,-2.231,-2.231,-2.231,-2.231,-2.231,-2.231,-2.231,-2.231,-2.231,-2.231,-2.231,-2.231,-2.231,-2.2463,-2.2695,-2.2695,-2.2056,-2.1237,-2.1237,-2.0703,-2.0069,-2.0069,-2.0069,-2.0069,-2.0069,-2.0069,-2.0069,-2.0035,-2.0035,-2.0035,-2.0002,-1.9452,-1.8927,-1.8927,-1.8352,-1.7625,-1.6919,-1.6153,-1.5646,-1.5612,-1.502,-1.4528,-1.4528,-1.3921,0.0,-1.3447,-1.343,-1.343,-1.3396,-1.2754,-1.2203,-1.191,-1.0608,-0.9618,-0.9127,-0.8463,-0.8037,-0.7914,-0.7694,-0.7227,-0.6478,-0.4725,-0.3338,-0.2338,0.0,0.0,0.0,0.0,0.0,0.0,0.0,0.0,0.0,0.0,0.0,0.0,0.0,0.0,0.0,0.0,0.0,0.0,0.0,0.0,0.0,-1.4011,-1.5152,-1.5398,-1.6872,-1.8137,-1.8718,-1.9326,-1.9613,-1.941,-2.0297,-2.0873,-2.0873,-2.138,-2.1769,-2.1989,-2.2006,-2.209,-2.231,-2.231,-2.231,-2.231,-2.231,-2.231,-2.231,-2.231,-2.231,-2.231,-2.231,-2.231,-2.231,-2.231,-2.231,-2.231,-2.231,-2.231,-2.231,-2.231,-2.231,-2.231,-2.231,-2.2349,-2.2398,-2.2398,-2.2241,-2.2006,-2.2006,-2.1854,-2.1684,-2.1684,-2.1684,-2.1684,-2.1684,-2.1684,-2.1549,-2.1008,-2.0873,-2.072,-2.0137,-1.9849,-1.9697,-1.9697,-1.913,-1.8538,-1.8318,-1.7693,-1.6864,-1.5781,-1.5426,-1.5308,-1.5308,-1.5122,-1.48,-1.4276,-1.4208,-1.3988,-1.3464,-1.3041,-1.2486,-1.1757,-1.0703,-0.9765,-0.9,-0.8319,-0.7941,-0.7899,-0.753,-0.6806,-0.5718,-0.483,-0.3978,0.0,0.0,0.0,0.0,0.0,0.0,0.0,0.0,0.0,0.0,0.0,0.0,0.0,0.0,0.0,0.0,0.0,0.0,0.0,0.0,0.0,0.0,-1.6044,-1.7203,-1.7938,-1.8817,-1.9563,-2.013,-2.038,-2.0636,-2.0931,-2.1397,-2.1651,-2.1651,-2.2073,-2.231,-2.231,-2.231,-2.231,-2.231,-2.231,-2.231,-2.231,-2.231,-2.231,-2.231,-2.231,-2.231,-2.231,-2.231,-2.231,-2.231,-2.231,-2.231,-2.231,-2.231,-2.231,-2.231,0.0,0.0,0.0,0.0,-2.2415,-2.231,-2.2426,-2.2371,-2.231,-2.231,-2.231,-2.231,-2.231,-2.231,-2.231,-2.231,-2.231,-2.2209,-2.1769,-2.1651,-2.1532,-2.1066,-2.0737,-2.05,-2.05,-1.9908,-1.9283,-1.8961,-1.8555,0.0,-1.6524,-1.6172,-1.6052,-1.6052,-1.5798,-1.5443,-1.502,-1.468,-1.4344,-1.3904,-1.3339,-1.2726,-1.207,-1.1238,0.0,0.0,0.0,-0.8258,-0.7914,-0.7561,0.0,0.0,0.0,0.0,0.0,0.0,0.0,0.0,-0.269,-0.2425,0.0,0.0,0.0,0.0,0.0,0.0,0.0,0.0,0.0,0.0,0.0,0.0,0.0,0.0,0.0,0.0,-1.7647,-1.8873,-1.9876,-2.0113,-2.0291,-2.0603,-2.1044,-2.1566,-2.2243,-2.231,-2.231,-2.231,-2.231,-2.231,-2.231,-2.231,0.0,0.0,0.0,-2.2429,-2.2429,-2.2513,-2.2564,-2.2564,-2.2564,-2.2564,-2.2547,-2.2462,-2.2429,-2.2429,-2.2344,-2.231,-2.231,-2.231,-2.231,-2.231,-2.231,-2.231,-2.2321,-2.2563,-2.25,-2.2321,-2.2573,0.0,0.0,-2.231,-2.231,-2.231,-2.231,-2.231,-2.231,-2.231,-2.231,-2.231,-2.231,-2.231,-2.231,-2.231,-2.1803,-2.1312,-2.1312,-2.0703,-1.9934,-1.9217,-1.8971,-1.8579,-1.7575,-1.7087,-1.6813,-1.6775,-1.6234,-1.5815,-1.5731,-1.5117,-1.466,-1.4575,-1.3648,0.0,-1.27,-1.1888,-1.101,-1.0058,-0.9503,-0.8865,-0.8109,-0.7914,-0.7589,-0.7119,-0.6928,-0.6613,-0.6173,-0.6173,-0.6421,-0.6831,-0.4684,-0.3933,0.0,0.0,0.0,0.0,0.0,0.0,0.0,0.0,0.0,0.0,0.0,0.0,0.0,0.0,0.0,-1.7695,-1.8672,-1.9577,-2.0639,-2.1089,-2.1308,-2.1381,-2.1814,-2.2141,-2.2293,-2.231,-2.231,-2.231,-2.231,-2.231,-2.231,-2.231,-2.231,-2.231,-2.2885,-2.319,-2.319,-2.3765,-2.4052,-2.4052,-2.4052,0.0,-2.4036,-2.346,-2.319,-2.3156,-2.2564,-2.231,-2.231,-2.231,-2.231,-2.231,-2.231,-2.231,-2.231,-2.2377,-2.2349,-2.231,-2.2377,-2.2349,-2.231,-2.231,-2.231,-2.231,-2.231,-2.231,0.0,-2.231,-2.231,-2.231,-2.231,-2.231,-2.231,-2.231,-2.2192,-2.209,-2.209,-2.1498,-2.081,-2.0285,-1.9487,-1.8723,-1.8193,-1.7809,-1.7485,-1.7223,-1.7283,-1.7168,-1.6563,-1.613,-1.5643,-1.5048,-1.3892,-1.314,-1.3097,-1.1759,-1.0851,-1.0653,-1.0076,-0.9585,-0.9209,-0.9159,-0.8888,-0.8372,-0.8313,-0.8146,-0.7847,-0.7847,-0.7896,-0.7962,-0.6647,-0.6328,0.0,0.0,0.0,0.0,0.0,0.0,0.0,0.0,0.0,0.0,0.0,-1.4042,-1.5372,0.0,-1.727,-1.8812,-1.9314,-1.9737,-2.0265,-2.0682,-2.1102,-2.1552,-2.2003,-2.231,-2.231,-2.231,-2.231,-2.231,-2.231,-2.231,-2.231,-2.2649,-2.2852,-2.2852,-2.3562,-2.3934,-2.3934,-2.4337,-2.4506,-2.4506,-2.4506,-2.4506,-2.4506,-2.4133,-2.3934,-2.3917,-2.3562,-2.3393,-2.3393,-2.3393,-2.3173,-2.2852,-2.2852,-2.2632,-2.231,-2.231,-2.231,-2.231,-2.231,-2.231,-2.231,-2.231,-2.231,-2.231,-2.231,-2.231,-2.231,-2.231,-2.231,-2.231,-2.231,-2.231,-2.231,-2.231,-2.2106,-2.1957,-2.1957,-2.1512,-2.0927,-2.0316,-1.9768,-1.9148,-1.8387,-1.8006,-1.77,-1.7345,-1.7439,-1.7415,-1.7048,-1.6524,-1.6049,-1.5687,-1.4479,-1.3559,-1.3242,-1.1727,-1.0798,-1.0798,-1.0234,-0.9853,-0.9714,-0.9714,-0.9498,-0.9105,-0.9105,-0.89,-0.8495,-0.8682,-0.882,-0.8934,-0.8408,-0.8054,0.0,0.0,0.0,0.0,0.0,0.0,0.0,-1.2244,-1.3308,-1.4153,-1.497,-1.6039,-1.7593,-1.7981,-1.8448,-1.951,-1.969,-1.9726,-1.9818,-2.0089,-2.0634,-2.1491,-2.1928,-2.2209,-2.2282,-2.231,-2.2361,-2.2513,-2.2513,-2.2581,-2.2733,-2.3291,-2.3613,-2.3613,-2.4323,-2.4695,-2.4695,-2.4879,-2.4946,-2.4946,-2.4946,-2.4946,-2.4929,-2.4794,-2.4695,-2.4726,-2.4574,-2.4506,-2.4506,-2.4506,-2.4137,-2.3613,-2.3613,-2.3241,-2.2699,-2.2412,-2.231,-2.231,-2.231,-2.231,-2.231,-2.231,-2.231,-2.231,-2.231,-2.231,-2.231,-2.231,-2.231,-2.231,-2.231,-2.2237,-2.2163,-2.2163,-2.1811,-2.1491,-2.1491,-2.1213,-2.0799,-2.0115,-1.9939,-1.9577,-1.8563,-1.8106,-1.7752,-1.736,-1.7232,-1.7199,-1.7199,-1.662,-1.6231,-1.6231,-1.5065,-1.4059,-1.336,-1.2145,-1.132,-1.1206,-1.0728,-1.0398,-1.0264,-1.0264,-1.0135,-0.9845,-0.9801,-0.9527,-0.9029,-0.9239,-0.9454,-0.9655,-0.9725,-0.9383,-0.7005,-0.8063,-0.9617,-1.1629,-1.2026,-1.2799,0.0,-1.5905,-1.5507,-1.6918,-1.7772,-1.8328,-1.8553,-1.9076,-1.951,-1.966,-1.969,-1.9803,-2.0193,-2.028,-2.0634,-2.1491,-2.1658,-2.1823,-2.2254,-2.231,-2.2581,-2.3224,-2.3274,-2.3562,-2.4205,-2.4337,-2.4388,-2.4388,-2.5084,-2.549,-2.549,-2.6133,-2.6437,-2.6437,-2.6437,-2.6437,-2.642,-2.5778,-2.549,-2.5439,-2.4763,-2.4506,-2.4506,-2.4506,-2.4455,-2.4388,-2.4388,-2.4337,-2.4086,-2.2784,-2.231,-2.231,-2.231,-2.231,-2.231,-2.231,-2.231,-2.231,-2.231,-2.231,-2.231,-2.231,-2.231,-2.231,-2.231,-2.2003,-2.1688,-2.1688,-2.1385,-2.1055,-2.1055,-2.1023,-2.0846,-2.0356,-2.0067,-1.9735,-1.9197,-1.8563,-1.7958,-1.7408,-1.7056,-1.6866,-1.6866,-1.6517,-1.6285,-1.6285,-1.535,-1.4461,-1.38,-1.3555,-1.3211,-1.2621,-1.2516,-1.2216,-1.161,-1.1595,-1.1416,-1.1117,-1.086,-1.0559,-1.0211,-0.9955,-0.9843,-0.9869,-1.0169,-1.0253,-0.9203,-1.0402,-1.1686,-1.3302,-1.4377,-1.5429,-1.6797,-1.7232,-1.7498,-1.8145,-1.8822,-1.9271,-1.9271,-1.9495,-1.969,-1.969,-1.969,-1.9747,-1.9945,-1.9929,-2.0158,-2.0765,-2.083,-2.1228,-2.2209,-2.2446,-2.2785,-2.3376,-2.3799,-2.4154,-2.4489,-2.4898,-2.5135,-2.5135,-2.5862,-2.6234,-2.6234,-2.6539,-2.6691,-2.6691,-2.6691,-2.6691,-2.6674,-2.6387,-2.6101,-2.5796,-2.5186,-2.4898,-2.4898,-2.4898,-2.4652,-2.4276,-2.4547,-2.4232,-2.3637,-2.36,-2.3308,-2.2936,-2.2936,-2.2665,-2.231,-2.231,-2.231,-2.231,-2.231,-2.231,-2.231,-2.231,-2.2106,-2.1899,-2.1899,-2.1568,-2.1244,-2.1244,-2.091,-2.0583,-2.0583,-2.0398,-2.0174,-2.0,-1.9856,-1.974,-1.9535,-1.8925,-1.8409,-1.8169,-1.7542,-1.7098,-1.7098,-1.6616,-1.6219,-1.6039,-1.5282,-1.4677,-1.4408,-1.4034,-1.369,-1.3391,-1.3376,-1.3256,-1.2987,-1.2972,-1.29,-1.2765,-1.2406,-1.2076,-1.1749,-1.1509,-1.1293,-1.1114,-1.1278,-1.132,-1.0674,-1.1981,-1.3308,-1.4694,-1.6294,-1.7529,-1.7513,-1.8283,-1.8972,-1.8972,-1.9346,-1.969,-1.969,-1.969,-1.969,-1.969,-1.9854,-1.9974,-1.9974,-1.9974,-2.0125,-2.0524,-2.03,-2.0616,-2.1811,-2.241,-2.2969,-2.3634,-2.4374,-2.4881,-2.5116,-2.5609,-2.5913,-2.5913,-2.642,-2.6793,-2.6996,-2.6842,-2.6772,-2.6824,-2.6632,-2.6551,-2.6505,-2.6505,-2.6245,-2.5762,-2.5373,-2.5221,-2.5221,-2.5221,-2.4894,-2.4431,-2.4798,-2.4382,-2.3695,-2.4413,-2.4176,-2.3452,-2.3329,-2.3009,-2.2631,-2.2312,-2.2215,-2.2182,-2.2011,-2.1945,-2.1945,-2.1945,-2.1705,-2.143,-2.143,-2.1118,-2.0797,-2.0797,-2.0449,-2.0124,-2.0124,-1.9909,-1.969,-1.969,-1.969,-1.969,-1.969,-1.9286,-1.8972,-1.8972,-1.826,-1.7624,-1.744,-1.6826,-1.6266,-1.5842,-1.5379,-1.5094,-1.5094,-1.4618,-1.4274,-1.4094,-1.4079,-1.3938,-1.3657,-1.3642,-1.3576,-1.3432,-1.3074,-1.2747,-1.2497,-1.2342,-1.2142,-1.1893,-1.1893,-1.1971,-1.0848,-1.2386,-1.4291,-1.6007,-1.7543,-1.8837,-1.945,-1.963,-1.966,-1.966,-1.9675,-1.969,-1.969,-1.969,-1.969,-1.969,-2.0243,-2.0677,-2.0677,-2.0677,-2.0835,-2.1234,-2.036,-2.0085,-2.0959,-2.2035,-2.32,-2.4391,-2.5152,-2.5879,-2.659,-2.664,-2.6657,-2.6657,-2.6674,-2.7046,-2.7739,-2.7201,-2.6961,-2.7069,-2.6477,-2.6144,-2.6013,-2.6013,-2.5726,-2.5221,-2.5221,-2.5221,-2.5221,-2.5221,-2.5205,-2.5189,-2.5189,-2.5173,-2.5157,-2.5157,-2.4551,-2.3621,-2.3157,-2.3298,-2.3473,-2.2358,-2.2015,-2.1887,-2.1231,-2.1039,-2.1039,-2.1039,-2.1039,-2.1023,-2.1023,-2.0682,-2.0314,-2.0314,-2.0,-1.9711,-1.9711,-1.9726,-1.969,-1.969,-1.969,-1.969,-1.969,-1.9675,-1.966,-1.966,-1.9076,-1.8418,-1.7775,-1.7116,-1.6473,-1.5858,-1.5784,-1.5769,-1.5769,-1.5754,-1.5469,-1.4797,-1.4767,-1.4293,-1.325,-1.3221,-1.2993,-1.254,-1.2215,-1.2042,-1.2013,-1.1772,-1.1618,-1.1618,-1.1618,-1.1907,-1.2189,-1.4024,-1.5855,-1.6806,-1.8223,-1.9405,-1.963,-1.969,-1.969,-1.969,-1.969,-1.969,-1.969,-1.969,-1.969,-1.969,-2.0258,-2.0722,-2.0722,-2.1096,-2.124,-2.0948,-2.1001,-2.1076,-2.1183,-2.1632,-2.2385,-2.3503,-2.4239,-2.5116,-2.6177,-2.5908,-2.6016,-2.6691,-2.6887,-2.7236,-2.7772,-2.7732,-2.7734,-2.775,-2.7163,-2.683,-2.6752,-2.5966,-2.5501,-2.5264,-2.4482,-2.4158,-2.4158,-2.4158,-2.4158,-2.4184,-2.4552,-2.4471,-2.4184,-2.4552,-2.4453,-2.4119,-2.3819,-2.3503,-2.3176,-2.2777,-2.2662,-2.2534,-2.1885,-2.1661,-2.1566,-2.1135,-2.0797,-2.055,-2.055,-2.0227,-1.9909,-1.9909,-1.9818,-1.969,-1.969,-1.969,-1.969,-1.969,-1.969,-1.969,-1.969,-1.969,-1.969,-1.969,-1.9121,-1.8463,-1.7772,-1.7488,-1.7115,-1.6458,-1.6383,-1.6248,-1.5829,-1.5799,-1.5709,-1.5484,-1.5154,-1.4848,-1.4486,-1.4193,-1.3984,-1.3819,-1.3449,-1.3274,-1.3274,-1.2864,-1.2647,-1.2647,-1.2647,-1.2747,-1.3447,-1.517,-1.6669,-1.7394,-1.8664,-1.969,-1.969,-1.969,-1.969,-1.969,-1.9495,-1.9405,-1.9681,-1.9301,-1.9211,-1.9929,-2.0423,-2.0872,-2.135,-2.1784,-2.1889,-2.147,-2.1575,-2.1618,-2.1454,-2.1535,-2.2123,-2.3367,-2.4163,-2.5003,-2.601,-2.5722,-2.595,-2.6829,-2.7044,-2.7404,-2.7959,-2.7908,-2.7763,-2.7551,-2.7126,-2.68,-2.6626,-2.6016,-2.5641,-2.5406,-2.4626,-2.4313,-2.4298,-2.4059,-2.3969,-2.3983,-2.4097,-2.3906,-2.3638,-2.3991,-2.4116,-2.4096,-2.3973,-2.3747,-2.3415,-2.3045,-2.2892,-2.2767,-2.2087,-2.1869,-2.1764,-2.1077,-2.0682,-2.0375,-2.0166,-1.9909,-1.969,-1.969,-1.969,-1.969,-1.969,-1.969,-1.969,-1.969,-1.969,-1.969,-1.969,-1.969,-1.969,-1.969,-1.9331,-1.8822,-1.8149,-1.8041,-1.7787,-1.713,-1.707,-1.677,-1.598,-1.5891,-1.5728,-1.5374,-1.5043,-1.4814,-1.469,-1.4406,-1.4214,-1.4019,-1.3769,-1.3648,-1.3648,-1.3357,-1.3198,-1.3198,-1.3198,-1.3198,-1.4537,-1.575,-1.682,-1.7857,-1.8898,-1.9647,-1.9647,-1.9632,-1.9588,-1.9558,-1.9071,-1.8802,-1.9385,-1.8504,-1.8324,-2.0303,-2.0692,-2.1216,-2.2544,-2.2783,-2.2757,-2.2768,-2.2233,-2.1889,-2.1844,-2.1874,-2.2513,-2.4046,-2.477,-2.544,-2.6165,-2.6197,-2.6516,-2.7169,-2.7232,-2.7551,-2.8291,-2.7732,-2.7177,-2.6632,-2.6535,-2.6184,-2.5704,-2.6184,-2.6138,-2.5659,-2.5615,-2.5615,-2.5555,-2.4881,-2.4627,-2.4567,-2.3954,-2.3699,-2.3699,-2.367,-2.3655,-2.3655,-2.361,-2.3906,-2.4174,-2.3115,-2.2768,-2.2607,-2.1934,-2.1739,-2.1605,-2.0946,-2.0767,-2.0602,-1.9914,-1.9735,-1.9735,-1.969,-1.969,-1.969,-1.969,-1.969,-1.969,-1.969,-1.969,-1.969,-1.969,-1.969,-1.969,-1.969,-1.969,-1.9465,-1.8837,-1.8747,-1.8474,-1.7769,-1.7742,-1.7297,-1.6203,-1.6128,-1.5695,-1.4657,-1.4552,-1.436,-1.3941,-1.3908,-1.3674,-1.3198,-1.3198,-1.3198,-1.3198,-1.3198,-1.3198,-1.3198,-1.3223,-1.3248,-1.5371,-1.6606,-1.7811,-1.8118,-1.8618,-1.9093,-1.9093,-1.8782,-1.8408,-1.7978,-1.7612,-1.7301,-1.7063,-1.7382,-1.8011,-1.9061,-2.0468,-2.1739,-2.2562,-2.352,-2.3939,-2.343,-2.4103,-2.4418,-2.3924,-2.4328,-2.4762,-2.5181,-2.4478,-2.4679,-2.6271,-2.5952,-2.6207,-2.7185,-2.7331,-2.7721,-2.8291,-2.8263,-2.7929,-2.737,-2.7289,-2.7199,-2.71,-2.6687,-2.6477,-2.6318,-2.5824,-2.5615,-2.56,-2.5435,-2.536,-2.5345,-2.5166,-2.5091,-2.5031,-2.4552,-2.4373,-2.4298,-2.3774,-2.3681,-2.3779,-2.3458,-2.337,-2.3251,-2.2622,-2.2428,-2.2293,-2.1635,-2.1455,-2.1291,-2.0617,-2.0453,-2.0318,-1.9809,-1.969,-1.969,-1.969,-1.969,-1.969,-1.969,-1.969,-1.969,-1.969,-1.969,-1.969,-1.969,-1.969,-1.963,-1.945,-1.9435,-1.9025,-1.7961,-1.8195,-1.7827,-1.6222,-1.6457,-1.642,-1.5751,-1.5421,-1.5021,-1.4528,-1.4214,-1.3788,-1.321,-1.3198,-1.3198,-1.3198,-1.3198,-1.3198,-1.321,-1.3647,-1.3871,-1.6439,-1.7488,-1.8548,-1.8548,-1.8715,-1.8852,-1.8577,-1.7965,-1.7251,-1.6675,-1.6137,-1.5754,-1.5744,-1.6347,-1.7266,-1.8508,-2.0139,-2.1605,-2.2547,-2.3804,-2.4433,-2.4103,-2.4971,-2.5465,-2.5091,-2.539,-2.5734,-2.6019,-2.5076,-2.5063,-2.6428,-2.6223,-2.6438,-2.7349,-2.7503,-2.7687,-2.8,-2.8086,-2.7959,-2.7625,-2.7625,-2.7625,-2.761,-2.7186,-2.7021,-2.7006,-2.6632,-2.6467,-2.6437,-2.6153,-2.6033,-2.6019,-2.5719,-2.5615,-2.5555,-2.5196,-2.5061,-2.5001,-2.4612,-2.4298,-2.3999,-2.3699,-2.3595,-2.3535,-2.3191,-2.3071,-2.2951,-2.2308,-2.2128,-2.1979,-2.1321,-2.1141,-2.0976,-2.0303,-2.0139,-2.0049,-1.975,-1.969,-1.9639,-1.9406,-1.9369,-1.9281,-1.9043,-1.9006,-1.9006,-1.9006,-1.9006,-1.9006,-1.9006,-1.9406,-1.9345,-1.844,-1.8593,-1.8115,-1.642,-1.6551,-1.6405,-1.5597,-1.5372,-1.508,-1.4808,-1.4586,-1.4299,-1.3961,-1.3948,-1.3948,-1.3948,-1.3948,-1.3948,-1.3961,-1.4299,-1.445,-1.7416,-1.8183,-1.9015,-1.9015,-1.8857,-1.853,-1.8031,-1.6943,-1.5913,-1.5298,-1.4525,-1.4113,-1.4703,-1.5242,-1.6219,-1.8134,-1.9645,-2.1066,-2.2488,-2.3804,-2.4612,-2.4701,-2.542,-2.5869,-2.5869,-2.5869,-2.6108,-2.6677,-2.6198,-2.6123,-2.6692,-2.6722,-2.6976,-2.761,-2.7625,-2.7625,-2.7625,-2.7625,-2.7625,-2.7625,-2.7625,-2.7625,-2.7625,-2.7625,-2.7625,-2.7625,-2.7625,-2.7625,-2.7565,-2.6961,-2.6722,-2.6662,-2.6093,-2.5869,-2.5854,-2.5779,-2.5734,-2.5734,-2.563,-2.5241,-2.4597,-2.3954,-2.367,-2.3595,-2.3595,-2.3595,-2.349,-2.2951,-2.2802,-2.2694,-2.1994,-2.1829,-2.1665,-2.0991,-2.0842,-2.0677,-2.0079,-1.9848,-1.9546,-1.8997,-1.8855,-1.865,-1.8263,-1.8145,-1.8106,-1.8106,-1.8106,-1.8106,-1.8106,-1.8893,-1.9281,-1.8727,-1.8727,-1.817,-1.6639,-1.656,-1.6166,-1.5194,-1.509,-1.5104,-1.5029,-1.5016,-1.4979,-1.4916,-1.4916,-1.4916,-1.4916,-1.4916,-1.4916,-1.4916,-1.4979,-1.5016,-1.7638,-1.8163,-1.9016,-1.9016,-1.8273,-1.7454,-1.6958,-1.5332,-1.3757,-1.3166,-1.2481,-1.2055,-1.2279,-1.3541,-1.511,-1.6785,-1.8642,-2.0528,-2.2413,-2.3804,-2.4837,-2.5375,-2.6497,-2.723,-2.723,-2.723,-2.7275,-2.7445,-2.7305,-2.7275,-2.7395,-2.7445,-2.7505,-2.7625,-2.7625,-2.7625,-2.7625,-2.7625,-2.7625,-2.7625,-2.7625,-2.7625,-2.7625,-2.7625,-2.7625,-2.7625,-2.7625,-2.7625,-2.761,-2.744,-2.7445,-2.738,-2.7275,-2.723,-2.7171,-2.6617,-2.6422,-2.6348,-2.5794,-2.554,-2.533,-2.4657,-2.4059,-2.3595,-2.3595,-2.3595,-2.358,-2.3475,-2.343,-2.3295,-2.2667,-2.2544,-2.2338,-2.168,-2.153,-2.1485,-2.138,-2.0578,-1.9672,-1.9046,-1.8535,-1.8341,-1.8688,-1.838,-1.8106,-1.8106,-1.8106,-1.8106,-1.8106,-1.8263,-1.8185,-1.7626,-1.7987,-1.7786,-1.6583,-1.6933,-1.6881,-1.6275,-1.6233,-1.6019,-1.5567,-1.5555,-1.5341,-1.4916,-1.4916,-1.4916,-1.4916,-1.4916,-1.4916,-1.4916,-1.5341,-1.5555,-1.802,-1.8606,-1.9258,-1.8671,-1.7921,-1.6872,-1.5304,-1.3725,-1.2272,-1.1214,-1.0798,-1.0615,-1.0703,-1.2676,-1.4688,-1.5786,-1.7781,-1.9869,-2.1889,-2.3281,-2.4477,-2.5495,-2.6767,-2.7625,-2.7625,-2.7625,-2.7625,-2.7625,-2.7904,-2.7949,-2.764,-2.7919,-2.8113,-2.8113,-2.8442,-2.8622,-2.8622,-2.8622,-2.8442,-2.8113,-2.8113,-2.7919,-2.7625,-2.7625,-2.7625,-2.7625,-2.7625,-2.7625,-2.7625,-2.7625,-2.7625,-2.7625,-2.7625,-2.7625,-2.758,-2.7215,-2.7096,-2.7051,-2.6737,-2.6408,-2.6063,-2.5749,-2.4956,-2.4073,-2.3714,-2.3595,-2.3595,-2.3595,-2.3377,-2.3084,-2.279,-2.2425,-2.2017,-2.137,-2.0968,-2.0697,-2.0697,-2.0245,-1.9586,-1.8713,-1.8317,-1.8043,-1.772,-1.7422,-1.7271,-1.7271,-1.7271,-1.7271,-1.7271,-1.7271,-1.7271,-1.7312,-1.7544,-1.7353,-1.6552,-1.6752,-1.6752,-1.6522,-1.6522,-1.6396,-1.6132,-1.612,-1.6007,-1.5731,-1.5731,-1.5731,-1.5731,-1.5731,-1.5731,-1.5731,-1.6007,-1.612,-1.8333,-1.8982,-1.9506,-1.8391,-1.7623,-1.6444,-1.3817,-1.2324,-1.1099,-0.9735,-0.9512,-0.9638,-0.9779,-1.1926,-1.4027,-1.511,-1.6907,-1.9006,-2.138,-2.2802,-2.4103,-2.545,-2.6767,-2.7685,-2.7784,-2.7784,-2.7844,-2.7993,-2.8502,-2.8562,-2.809,-2.8517,-2.8801,-2.8801,-2.931,-2.9579,-2.9579,-2.9579,-2.9325,-2.8801,-2.8801,-2.8532,-2.7993,-2.7859,-2.7784,-2.7784,-2.7634,-2.7625,-2.7625,-2.7625,-2.7625,-2.7625,-2.7625,-2.7625,-2.7625,-2.7625,-2.7625,-2.7625,-2.7625,-2.728,-2.6782,-2.6632,-2.5794,-2.4732,-2.4193,-2.3924,-2.3819,-2.3819,-2.326,-2.2694,-2.2694,-2.2193,-2.1586,-2.1098,-2.0584,-2.0155,-1.9912,-1.9826,-1.953,-1.8557,-1.8184,-1.7774,-1.6977,-1.6683,-1.6522,-1.6522,-1.6522,-1.6522,-1.6522,-1.6522,-1.668,-1.7076,-1.7105,-1.6951,-1.6552,-1.6522,-1.6522,-1.6522,-1.6522,-1.6522,-1.6522,-1.6522,-1.6522,-1.6522,-1.6522,-1.6522,-1.6522,-1.6522,-1.6522,-1.6522,-1.6522,-1.6423,-1.8333,-1.8982,-1.9506,-1.8391,-1.7272,-1.583,-1.3314,-1.158,-1.0163,-0.9182,-0.8923,-0.9093,-0.9689,-1.0821,-1.2471,-1.4906,-1.5987,-1.7714,-2.1207,-2.2802,-2.4103,-2.545,-2.6767,-2.7814,-2.8442,-2.8502,-2.8757,-2.9355,-2.946,-2.946,-2.94,-2.946,-2.949,-2.949,-2.9549,-2.9579,-2.9579,-2.9579,-2.9549,-2.949,-2.949,-2.946,-2.9385,-2.8786,-2.8502,-2.8472,-2.7844,-2.7625,-2.7625,-2.7625,-2.7625,-2.7625,-2.7625,-2.7625,-2.7625,-2.7625,-2.7625,-2.7625,-2.7625,-2.758,-2.738,-2.6782,-2.6093,-2.551,-2.5435,-2.5001,-2.4492,-2.4492,-2.3627,-2.2694,-2.2694,-2.2193,-2.1697,-2.1641,-2.1586,-2.1252,-2.0201,-2.0,-1.9781,-1.9074,-1.8158,-1.7575,-1.7983,-1.7196,-1.6522,-1.6522,-1.6522,-1.6522,-1.6522,-1.6522,-1.6522,-1.6552,-1.6552,-1.6552,-1.6522,-1.6522,-1.6522,-1.6522,-1.6522,-1.6522,-1.6522,-1.6522,-1.6522,-1.6522,-1.6522,-1.6522,-1.6522,-1.6522,-1.6522,-1.6522,-1.6522,-1.6194,-1.8062,-1.8437,-1.8389,-1.7319,-1.6373,-1.4909,-1.1923,-1.0765,-0.9881,-0.8478,-0.851,-0.8887,-0.9135,-1.04,-1.2062,-1.4082,-1.4774,-1.621,-1.9445,-2.0677,-2.2024,-2.4148,-2.5929,-2.741,-2.8502,-2.8966,-2.9445,-3.0088,-3.0133,-3.0313,-3.0731,-3.0357,-3.0133,-3.0133,-3.0537,-3.0746,-3.0746,-3.0746,-3.0552,-3.0133,-3.0133,-2.9939,-2.9564,-2.931,-2.919,-2.9175,-2.8906,-2.8547,-2.8188,-2.8188,-2.7949,-2.7625,-2.7625,-2.7625,-2.7625,-2.7625,-2.7625,-2.7625,-2.7625,-2.7625,-2.7464,-2.6791,-2.6374,-2.5973,-2.517,-2.4761,-2.4461,-2.3997,-2.3222,-2.2446,-2.2142,-2.1318,-2.0557,-2.0557,-2.0557,-2.0406,-1.9962,-1.9861,-1.9707,-1.9121,-1.8662,-1.8314,-1.8239,-1.7814,-1.7526,-1.7526,-1.725,-1.7036,-1.7036,-1.6735,-1.6522,-1.6522,-1.6522,-1.6522,-1.6522,-1.6522,-1.6522,-1.6522,-1.6522,-1.6522,-1.6522,-1.6522,-1.6522,-1.6522,-1.6522,-1.6522,-1.6522,-1.6522,-1.6324,-1.5952,-1.5952,-1.5644,-1.7396,-1.7678,-1.7435,-1.6187,-1.5452,-1.4202,-1.1034,-1.0283,-0.9795,-0.8055,-0.8298,-0.8789,-0.8789,-1.0104,-1.1762,-1.3527,-1.4296,-1.569,-1.8574,-1.9735,-2.1036,-2.3086,-2.4911,-2.6617,-2.8143,-2.943,-3.0342,-3.0776,-3.0806,-3.1016,-3.1452,-3.1076,-3.0806,-3.0806,-3.1285,-3.1482,-3.1482,-3.1482,-3.1228,-3.0806,-3.0806,-3.0582,-3.0163,-2.9953,-2.9864,-2.9849,-2.9669,-2.9325,-2.8891,-2.8891,-2.8607,-2.8143,-2.7949,-2.7874,-2.7844,-2.7649,-2.7625,-2.7625,-2.7625,-2.7625,-2.7458,-2.6721,-2.651,-2.6232,-2.4836,-2.4441,-2.4337,-2.381,-2.3071,-2.2271,-2.1719,-2.0962,-2.0263,-2.0087,-2.0062,-2.0012,-1.9836,-1.9798,-1.9698,-1.9334,-1.9133,-1.8907,-1.8518,-1.8317,-1.8204,-1.8204,-1.7877,-1.7626,-1.7626,-1.7275,-1.7011,-1.7011,-1.6873,-1.671,-1.6534,-1.6522,-1.6522,-1.6522,-1.6522,-1.6522,-1.6522,-1.6324,-1.6337,-1.6522,-1.6337,-1.6337,-1.6522,-1.6337,-1.6008,-1.5588,-1.541,-1.5005,-1.619,-1.6872,-1.6855,-1.5072,-1.4609,-1.3863,-1.0974,-1.0283,-0.9795,-0.8055,-0.8298,-0.8789,-0.8789,-0.9841,-1.1386,-1.3455,-1.4802,-1.6536,-1.9319,-2.0827,-2.1934,-2.2649,-2.3849,-2.542,-2.7445,-2.9968,-3.1452,-3.1467,-3.1467,-3.1467,-3.1482,-3.1467,-3.1467,-3.1467,-3.1482,-3.1482,-3.1482,-3.1482,-3.1482,-3.1467,-3.1467,-3.1467,-3.1437,-3.0806,-3.0492,-3.0462,-2.9849,-2.9579,-2.9564,-2.9564,-2.9564,-2.949,-2.8846,-2.8592,-2.8502,-2.7814,-2.7625,-2.7625,-2.7625,-2.7625,-2.7458,-2.6721,-2.651,-2.6229,-2.4781,-2.4336,-2.4391,-2.4391,-2.3433,-2.2268,-2.1635,-2.1481,-2.133,-2.0844,-2.0706,-2.0555,-1.9924,-1.9798,-1.9798,-1.9798,-1.9384,-1.8983,-1.897,-1.8568,-1.8204,-1.8204,-1.8204,-1.8191,-1.8191,-1.8191,-1.8191,-1.8191,-1.7702,-1.7137,-1.6572,-1.6522,-1.6522,-1.6522,-1.6522,-1.6522,-1.6522,-1.5908,-1.5908,-1.6479,-1.5908,-1.5908,-1.6522,-1.5908,-1.5588,-1.5588,-1.4971,-1.4376,-1.3865,-1.4036,-1.3817,-1.3033,-1.2692,-1.1977,-0.9908,-0.9629,-0.9434,-0.7987,-0.8119,-0.8523,-0.8761,-0.9364,-1.083,-1.397,-1.4794,-1.5988,-1.8629,-2.0557,-2.2099,-2.3176,-2.6467,-2.9071,-3.0178,-3.0989,-3.1482,-3.1482,-3.1482,-3.1482,-3.1482,-3.1482,-3.1482,-3.1482,-3.1482,-3.1482,-3.1482,-3.1482,-3.1482,-3.1482,-3.1482,-3.1482,-3.1467,-3.13,-3.121,-3.1195,-3.1001,-3.0657,-3.0223,-3.0223,-2.9968,-2.9564,-2.9355,-2.8996,-2.8577,-2.8353,-2.7979,-2.7524,-2.7034,-2.6826,-2.6654,-2.5398,-2.5007,-2.4781,-2.3767,-2.3858,-2.4216,-2.3644,-2.2968,-2.2318,-2.2103,-2.1769,-2.1443,-2.1267,-2.123,-2.1179,-2.0991,-2.0665,-2.0441,-2.0441,-1.9936,-1.956,-1.956,-1.9409,-1.9296,-1.9296,-1.8995,-1.8769,-1.8769,-1.8442,-1.8204,-1.8204,-1.8053,-1.7714,-1.7149,-1.6748,-1.6522,-1.6522,-1.6522,-1.6522,-1.6522,-1.5908,-1.5676,-1.5864,-1.5276,-1.5062,-1.5242,-1.5062,-1.4778,-1.4365,-1.3742,-1.3382,-1.1931,-1.2173,-1.1897,-1.1454,-1.1237,-1.0753,-0.9326,-0.9209,-0.9107,-0.8129,-0.8223,-0.8606,-0.8953,-0.9815,-1.1173,-1.3457,-1.4679,-1.6099,-1.817,-2.0144,-2.2132,-2.4104,-2.7575,-3.0058,-3.0731,-3.124,-3.1482,-3.1482,-3.1482,-3.1482,-3.1482,-3.1482,-3.1482,-3.1482,-3.1482,-3.1482,-3.1482,-3.1482,-3.1482,-3.1482,-3.1482,-3.1482,-3.1482,-3.1482,-3.1482,-3.1482,-3.1482,-3.1228,0.0,-3.0896,-3.0672,-3.0227,-2.9681,-2.9215,-2.8777,-2.8225,-2.7752,-2.7281,-2.6844,-2.6679,-2.6512,-2.5266,-2.4557,-2.4103,-2.3573,-2.3662,-2.3767,-2.3245,-2.2887,-2.2623,-2.2623,-2.2372,-2.2058,-2.1845,-2.1794,-2.1744,-2.1531,-2.1217,-2.0978,-2.0978,-2.0526,-2.0125,-2.0125,-1.9949,-1.9798,-1.9798,-1.9522,-1.9321,-1.9321,-1.902,-1.8807,-1.8807,-1.8631,-1.8271,-1.7614,-1.7327,-1.7003,-1.6753,-1.672,-1.652,-1.6089,-1.5464,-1.5188,-1.5276,-1.4652,-1.4468,-1.4698,-1.4468,-1.4061,-1.3467,-1.3224,-1.3125,0.0,-1.0941,-1.0845,-1.026,-1.0127,-0.9932,-0.9102,-0.8936,0.0,-0.8382,-0.8551,-0.8921,-0.9422,-1.0959,-1.2263,-1.2476,-1.4713,-1.6886,-1.8202,-2.0038,-2.2454,-2.5597,-2.7584,-2.8988,-2.9669,-3.0821,-3.1482,-3.1482,-3.1482,-3.1482,-3.1482,-3.1482,-3.1482,-3.1482,-3.1482,-3.1482,-3.1482,-3.1482,-3.1482,-3.1482,-3.1482,-3.1482,-3.1482,-3.1482,-3.1482,-3.1482,-3.1409,-3.1409,-3.1409,-3.1351,-3.1351,-3.116,-2.9812,-2.9244,-2.9011,-2.7621,-2.7015,-2.6973,-2.6914,-2.6914,-2.6794,-2.6078,-2.5034,-2.4054,-2.4054,-2.3627,-2.3078,-2.3078,-2.3078,-2.3078,-2.3078,-2.3078,-2.294,-2.2498,-2.2372,-2.2234,-2.1719,-2.1568,-2.1543,-2.1543,-2.1104,-2.0781,-2.0781,-2.0275,-1.9911,-1.9874,-1.9861,-1.9849,-1.9811,-1.9798,-1.9798,-1.9798,-1.9371,-1.8759,-1.804,-1.8069,-1.7786,-1.7059,-1.701,-1.6543,-1.5397,-1.4789,-1.4548,-1.4729,-1.4157,-1.411,-1.4671,-1.4099,-1.3511,-1.2978,-1.3369,-1.3555,-0.7425,0.0,-0.8938,-0.844,-0.8584,-0.8691,0.0,-0.8281,-0.8495,-0.8319,-0.8365,-0.8864,-1.0356,-1.1337,-1.2734,-1.5238,-1.6855,-1.8559,-2.0732,-2.3328,-2.6112,-2.8979,-2.969,-3.0221,-3.1004,-3.1287,-3.1482,-3.1482,-3.1482,-3.1482,-3.1482,-3.1482,-3.1482,-3.1482,-3.1482,-3.1482,-3.1482,-3.1482,-3.1482,-3.1482,-3.1482,-3.1482,-3.1482,-3.1482,-3.1482,-3.1467,-3.0837,-3.0584,-3.0524,-2.9889,-2.9566,-2.9552,-2.9226,-2.8753,-2.826,-2.7878,-2.7446,-2.6914,-2.6323,-2.614,-2.603,-2.5281,-2.4848,-2.4619,-2.4619,-2.3929,-2.3078,-2.3078,-2.3078,-2.3078,-2.3078,-2.3078,-2.304,-2.2915,-2.2937,-2.2912,-2.2774,-2.2422,-2.2121,-2.2121,-2.1669,-2.1292,-2.1292,-2.1179,-2.0953,-2.0526,-2.0517,-2.03,-1.9861,-1.9798,-1.9798,-1.9798,-1.9698,-1.929,-1.8589,-1.7793,-1.701,-1.6316,-1.6266,-1.6109,-1.5847,-1.5252,-1.4965,-1.5012,-1.4337,-1.4079,-1.4234,-1.4079,-1.3932,-1.3848,-1.3883,-1.3984,-0.6246,-0.7511,-0.8613,-0.8369,-0.8496,-0.8668,-0.8579,-0.846,-0.8447,-0.8756,-0.9007,-0.9603,-1.101,-1.2094,-1.3559,-1.5915,-1.7632,-1.9852,-2.3235,-2.5791,-2.8023,-2.9721,-3.0499,-3.0896,-3.097,-3.1278,-3.1351,-3.097,-3.1175,-3.1219,-3.0984,-3.1175,-3.153,-3.193,-3.1988,-3.1839,-3.1482,-3.1839,-3.1824,-3.1482,-3.1442,-3.1234,-3.097,-3.0524,-3.0329,-3.0329,-2.9889,-2.969,-2.969,-2.9192,-2.9002,-2.8939,-2.8556,-2.8174,-2.7826,-2.7455,-2.7063,-2.6709,-2.6285,-2.6168,-2.6103,-2.5693,-2.5385,-2.5172,-2.5172,-2.4582,-2.3853,-2.3602,-2.3339,-2.3078,-2.3078,-2.3078,-2.3078,-2.3078,-2.3078,-2.3078,-2.3078,-2.2899,-2.2686,-2.2686,-2.2246,-2.187,-2.187,-2.1656,-2.1393,-2.1091,-2.1041,-2.0928,-2.0614,-2.0363,-2.02,-2.02,-1.9676,-1.898,-1.8286,-1.7353,-1.6627,-1.6267,-1.6213,-1.601,-1.5479,-1.5126,-1.4874,-1.4672,-1.4291,-1.4077,-1.4077,-1.4077,-1.4077,-1.4087,-1.4336,-1.4434,-0.6302,-0.785,-0.9288,-0.9056,-0.9106,-0.9321,-0.9642,-0.9233,-0.8934,-0.9615,-1.02,-1.0882,-1.1933,-1.3454,-1.494,-1.6002,-1.829,-2.1324,-2.5306,-2.7495,-2.8876,-2.9391,-3.0573,-3.1132,-3.0655,-3.1235,-3.1338,-3.0618,-3.0984,-3.0993,-3.0387,-3.0797,-3.1411,-3.2195,-3.2195,-3.1944,-3.1383,-3.2064,-3.2124,-3.1589,-3.1261,-3.0845,-3.0297,-2.9596,-2.9223,-2.914,-2.8999,-2.8894,-2.8812,-2.8684,-2.862,-2.8556,-2.7802,-2.755,-2.7417,-2.6782,-2.6533,-2.6533,-2.6533,-2.6533,-2.6533,-2.6533,-2.6126,-2.5724,-2.5724,-2.536,-2.4845,-2.4368,-2.3828,-2.3315,-2.3288,-2.3263,-2.3178,-2.309,-2.3078,-2.3078,-2.3078,-2.3078,-2.3078,-2.3078,-2.2761,-2.2435,-2.2435,-2.1931,-2.1594,-2.1631,-2.1381,-2.1287,-2.1313,-2.0779,-2.0439,-2.0439,-1.9401,-1.8409,-1.769,-1.7081,-1.6644,-1.6529,-1.6405,-1.592,-1.4949,-1.4883,-1.4707,-1.4282,-1.4272,-1.4272,-1.4272,-1.4272,-1.4272,-1.4282,-1.4707,-1.4883,-0.7937,-0.9653,-1.0572,-0.9371,-0.9632,-1.0207,-1.0342,-1.0595,-1.0941,-1.1355,-1.1904,-1.274,-1.4137,-1.622,-1.7757,-1.7805,-2.1188,-2.4348,-2.5846,-2.786,-2.9435,-3.0098,-3.0332,-3.0922,-3.205,-3.2303,-3.2196,-3.1887,-3.1875,-3.1553,-3.0588,-3.0604,-3.0726,-3.086,-3.086,-3.0818,-3.0721,-3.1682,-3.2081,-3.1994,-3.1082,-3.0671,-3.0522,-3.0388,-3.0113,-2.9632,-2.8893,-2.8292,-2.7855,-2.7162,-2.6905,-2.6837,-2.6714,-2.6658,-2.6658,-2.6521,-2.6533,-2.6533,-2.6533,-2.6533,-2.6533,-2.6533,-2.6471,-2.6327,-2.6327,-2.5937,-2.546,-2.5372,-2.4971,-2.4456,-2.3991,-2.3866,-2.374,-2.3251,-2.3078,-2.3078,-2.3078,-2.3078,-2.3078,-2.3078,-2.3002,-2.2952,-2.2952,-2.2311,-2.1922,-2.2131,-2.0962,-2.0139,-2.0344,-1.968,-1.9154,-1.9154,-1.8969,-1.8581,-1.7814,-1.7643,-1.7359,-1.671,-1.5999,-1.5497,-1.5322,-1.5312,-1.5283,-1.5215,-1.5215,-1.5215,-1.5215,-1.5215,-1.5215,-1.5215,-1.5283,-1.5312,-0.7393,-0.9308,-1.0957,-1.0673,-1.1303,-1.2101,-1.2323,-1.2224,-1.215,-1.2494,-1.3261,-1.42,-1.5166,-1.6941,-1.8916,-2.0719,-2.346,-2.578,-2.6925,-2.7986,-2.8694,-2.887,-3.0035,-3.0873,-3.1113,-3.1849,-3.2043,-3.1448,-3.1169,-3.0733,-3.0008,-3.0234,-3.0605,-3.1144,-3.1144,-3.1309,-3.1695,-3.1639,-3.1515,-3.1278,-3.0746,-3.0317,-2.9925,-2.9451,-2.9109,-2.8861,-2.844,-2.8171,-2.7844,-2.7227,-2.6904,-2.6866,-2.6647,-2.6533,-2.6533,-2.6533,-2.6533,-2.6533,-2.6533,-2.6533,-2.6533,-2.6533,-2.6533,-2.6533,-2.6533,-2.6345,-2.6063,-2.6063,-2.546,-2.4757,-2.4506,-2.4443,-2.4368,-2.4104,-2.3816,-2.3602,-2.3602,-2.3364,-2.3078,-2.3078,-2.3078,-2.3078,-2.3078,-2.2823,-2.2603,-2.2727,-2.2067,-2.1474,-2.1176,-2.0461,-1.9855,-1.9371,-1.8714,-1.8148,-1.7852,-1.744,-1.6976,-1.6387,-1.5986,-1.5654,-1.542,-1.541,-1.541,-1.541,-1.541,-1.541,-1.541,-1.541,-1.541,-1.541,-1.541,-1.541,-0.7358,-0.927,-1.132,-1.2215,-1.2884,-1.357,-1.4392,-1.4077,-1.3779,-1.4425,-1.5354,-1.612,-1.6421,-1.784,-2.0067,-2.3428,-2.5244,-2.6532,-2.7539,-2.8001,-2.8157,-2.7921,-2.9661,-3.0758,-3.0432,-3.134,-3.1678,-3.0939,-3.0615,-3.0191,-2.9555,-2.9874,-3.0461,-3.1155,-3.1155,-3.1442,-3.1974,-3.1254,-3.0804,-3.0759,-3.0408,-2.9973,-2.9457,-2.8768,-2.8423,-2.8298,-2.8298,-2.8235,-2.8072,-2.7657,-2.7469,-2.7419,-2.6866,-2.6647,-2.6533,-2.6533,-2.6533,-2.6533,-2.6533,-2.6533,-2.6533,-2.6533,-2.6533,-2.6533,-2.6533,-2.6533,-2.6533,-2.6533,-2.585,-2.5172,-2.5034,-2.5008,-2.4971,-2.4845,-2.4506,-2.4192,-2.4192,-2.3642,-2.3133,-2.3133,-2.2899,-2.2677,-2.2677,-2.2383,-2.2298,-2.2494,-2.2175,-2.1729,-2.1365,-2.0694,-2.007,-1.938,-1.8449,-1.7873,-1.7873,-1.7332,-1.6846,-1.6396,-1.6279,-1.6074,-1.5732,-1.5723,-1.5723,-1.5723,-1.5723,-1.5723,-1.5723,-1.5723,-1.5723,-1.5723,-1.5723,-1.5723,-0.9652,-1.0944,-1.2085,-1.3565,-1.3507,-1.3658,-1.5823,-1.6248,-1.6679,-1.8244,-1.9058,-1.9309,-1.8869,-2.0137,-2.2255,-2.5219,-2.6324,-2.6778,-2.6642,-2.7919,-2.8835,-2.849,-2.9333,-3.0342,-3.1392,-3.1613,-3.1525,-3.1229,-3.1162,-3.0755,-2.982,-2.9781,-2.9871,-2.9947,-2.9947,-2.996,-2.9998,-2.9934,-3.0304,-3.1122,-3.0266,-2.9858,-2.9743,-2.9666,-2.9377,-2.8875,-2.8875,-2.8574,-2.8109,-2.8059,-2.8047,-2.7996,-2.7444,-2.6917,-2.6533,-2.6533,-2.6533,-2.6533,-2.6533,-2.6533,-2.6533,-2.6533,-2.6533,-2.6533,-2.6533,-2.6533,-2.6533,-2.6533,-2.6471,-2.6214,-2.5686,-2.5536,-2.5423,-2.4933,-2.4795,-2.4757,-2.4757,-2.3969,-2.3304,-2.3304,-2.2232,-2.1318,-2.1318,-2.0358,-1.9814,-2.0655,-1.9431,-1.8654,-1.9365,-1.8757,-1.822,-1.8152,-1.8065,-1.7978,-1.7978,-1.792,-1.7734,-1.7314,-1.6904,-1.667,-1.6641,-1.6641,-1.6641,-1.6641,-1.6641,-1.6641,-1.6641,-1.6641,-1.6641,-1.6641,-1.6641,-1.6641,-0.8838,-1.082,-1.2802,-1.3398,-1.4373,-1.5529,-1.6779,-1.7325,-1.8041,-1.971,-2.02,-2.0489,-2.0978,-2.1857,-2.3072,-2.4912,-2.5678,-2.6187,-2.6445,-2.704,-2.7491,-2.7729,-2.8828,-2.9925,-3.0744,-3.1146,-3.1296,-3.1241,-3.062,-3.0139,-2.9792,-2.9792,-2.9792,-2.9792,-2.9792,-2.9792,-2.9792,-2.9792,-3.0011,-3.0355,-3.0011,-2.9792,-2.9792,-2.9792,-2.9679,-2.9465,-2.9465,-2.9352,-2.9126,-2.8762,-2.8612,-2.8524,-2.7632,-2.7155,-2.6929,-2.6647,-2.6533,-2.6533,-2.6533,-2.6533,-2.6533,-2.6533,-2.6533,-2.6533,-2.6533,-2.6533,-2.6383,-2.5734,-2.6025,-2.6483,-2.6189,-2.5704,-2.516,-2.4966,-2.416,-2.3501,-2.3501,-2.2959,-2.2457,-2.2457,-2.2037,-2.1631,-2.1631,-2.1215,-2.0928,-2.0952,-2.0445,-1.9815,-1.9341,-1.8977,-1.8586,-1.8076,-1.8008,-1.8008,-1.8008,-1.8008,-1.7939,-1.7783,-1.7373,-1.7012,-1.6685,-1.6665,-1.6665,-1.6665,-1.6665,-1.6665,-1.6665,-1.6665,-1.6665,-1.6665,-1.6665,-1.6665,-0.8737,-1.1045,-1.3534,-1.3709,-1.5279,-1.7036,-1.794,-1.8581,-1.9497,-2.1343,-2.1568,-2.1782,-2.2899,-2.3276,-2.3778,-2.4883,-2.5523,-2.6013,-2.6471,-2.6533,-2.6728,-2.7457,-2.8408,-2.9353,-3.0147,-3.055,-3.0758,-3.0758,-3.0139,-2.9792,-2.9792,-2.9792,-2.9792,-2.9792,-2.9792,-2.9792,-2.9792,-2.9792,-2.9792,-2.9792,-2.9792,-2.9792,-2.9792,-2.9792,-2.9792,-2.9792,-2.9792,-2.9792,-2.9767,-2.9365,-2.9089,-2.885,-2.8097,-2.7695,-2.7469,-2.6917,-2.6716,-2.6703,-2.6584,-2.6533,-2.6533,-2.6533,-2.6533,-2.6533,-2.6533,-2.6314,-2.5873,-2.5229,-2.5288,-2.5569,-2.5569,-2.5288,-2.4933,-2.4564,-2.3701,-2.295,-2.295,-2.2397,-2.1953,-2.1953,-2.1538,-2.124,-2.124,-2.1182,-2.0979,-2.0647,-2.0604,-2.0281,-1.9373,-1.9274,-1.9018,-1.8291,-1.8213,-1.8154,-1.8018,-1.8008,-1.8008,-1.8008,-1.7744,-1.7451,-1.7148,-1.7129,-1.7129,-1.7129,-1.7129,-1.7129,-1.7129,-1.7129,-1.7129,-1.7129,-1.7129,-1.7129,-0.9923,-1.1898,-1.4223,-1.479,-1.6158,-1.7827,-1.9459,-2.0275,-2.1317,-2.3552,-2.3552,-2.3502,-2.4619,-2.4381,-2.4356,-2.5423,-2.6076,-2.6521,-2.6533,-2.6533,-2.6866,-2.7971,-2.8109,-2.8549,-2.9679,-2.9792,-2.9792,-2.9792,-2.9792,-2.9792,-2.9792,-2.9792,-2.9792,-2.9792,-2.9792,-2.9792,-2.9792,-2.9792,-2.9792,-2.9792,-2.9792,-2.9792,-2.9792,-2.9792,-2.9792,-2.9792,-2.9792,-2.9792,-2.9792,-2.9792,-2.9453,-2.8938,-2.8925,-2.8599,-2.8047,-2.7494,-2.7293,-2.7205,-2.6653,-2.6533,-2.6533,-2.6465,-2.6465,-2.6452,-2.6452,-2.5804,-2.5004,-2.4933,-2.4264,-2.3514,-2.3452,-2.4192,-2.4707,-2.3745,-2.3514,-2.3441,-2.3441,-2.2702,-2.1952,-2.1952,-2.0868,-1.9922,-1.9922,-1.957,-1.9297,-1.9297,-1.9297,-1.9287,-1.9287,-1.9287,-1.9121,-1.8691,-1.8643,-1.8477,-1.8057,-1.8018,-1.8018,-1.8018,-1.8018,-1.8018,-1.8008,-1.8008,-1.8008,-1.8008,-1.8008,-1.8008,-1.8008,-1.8008,-1.8008,-1.8008,-1.8008,-1.8008,-1.028,-1.2153,-1.4413,-1.5699,-1.7576,-1.9522,-2.1192,-2.1694,-2.2347,-2.4192,-2.4732,-2.4858,-2.482,-2.4695,-2.4808,-2.5485,-2.5737,-2.6,-2.6471,-2.6791,-2.7306,-2.8021,-2.8448,-2.8976,-2.9729,-2.9792,-2.9792,-2.9792,-2.9792,-2.9792,-2.9792,-2.9792,-2.9792,-2.9792,-2.9792,-2.9792,-2.9792,-2.9792,-2.9792,-2.9792,-2.9792,-2.9792,-2.9792,-2.9792,-2.9792,-2.9792,-2.9792,-2.9792,-2.9792,-2.9792,-2.9691,-2.9503,-2.9089,-2.8825,-2.8612,-2.8059,-2.7607,-2.7256,-2.7092,-2.6848,-2.6383,-2.5664,-2.5441,-2.5288,-2.4612,-2.4181,-2.3818,-2.3073,-2.3147,-2.3231,-2.1821,-2.2188,-2.2776,-2.2553,-2.1962,-2.1451,-2.1451,-2.1231,-2.1011,-2.1011,-2.0681,-2.0371,-2.0371,-2.0264,-2.0078,-1.9775,-1.9727,-1.9619,-1.9326,-1.9287,-1.9238,-1.9111,-1.9092,-1.9043,-1.8916,-1.8906,-1.8906,-1.8906,-1.8906,-1.8633,-1.8037,-1.8008,-1.8008,-1.8008,-1.8008,-1.8008,-1.8008,-1.8008,-1.8008,-1.8008,-1.7285,-1.7001,-1.1571,-1.354,-1.5758,-1.7135,-1.8844,-2.0702,-2.2824,-2.3477,-2.3966,-2.5222,-2.5536,-2.5573,-2.5485,-2.5285,-2.531,-2.585,-2.5937,-2.6063,-2.6483,-2.6929,-2.7494,-2.8047,-2.8586,-2.9151,-2.9729,-2.9792,-2.9792,-2.9792,-2.9792,-2.9792,-2.9792,-2.9792,-2.9792,-2.9792,-2.9792,-2.9792,-2.9792,-2.9792,-2.9792,-2.9792,-2.9792,-2.9792,-2.9792,-2.9792,-2.9792,-2.9792,-2.9792,-2.9792,-2.9792,-2.9792,-2.9792,-2.9754,-2.9415,-2.9277,-2.9202,-2.8637,-2.8222,-2.7908,-2.7682,-2.7095,-2.6333,-2.5601,-2.5142,-2.4756,-2.4021,-2.3508,-2.3069,-2.2463,-2.2326,-2.2048,-2.0934,-2.1011,-2.1441,-2.1441,-2.1011,-2.0566,-2.0566,-2.0566,-2.0566,-2.0566,-2.0566,-2.0566,-2.0566,-2.0566,-2.0478,-2.0215,-2.0176,-2.0078,-1.9824,-1.9795,-1.9727,-1.9561,-1.9541,-1.9473,-1.9297,-1.9287,-1.9287,-1.9287,-1.9287,-1.9053,-1.8535,-1.835,-1.8262,-1.8262,-1.8096,-1.8086,-1.8262,-1.8086,-1.8008,-1.8008,-1.707,-1.6636,-1.3265,-1.5463,-1.7618,-1.8833,-2.0112,-2.1707,-2.4243,-2.5259,-2.5824,-2.642,-2.6038,-2.5837,-2.6433,-2.6025,-2.585,-2.6445,-2.6533,-2.6533,-2.6533,-2.6979,-2.7544,-2.8047,-2.8637,-2.9214,-2.9741,-2.9792,-2.9792,-2.9792,-2.9792,-2.9792,-2.9792,-2.9792,-2.9792,-2.9792,-2.9792,-2.9792,-2.9792,-2.9792,-2.9792,-2.9792,-2.9792,-2.9792,-2.9792,-2.9792,-2.9792,-2.9792,-2.9792,-2.9792,-2.9792,-2.9792,-2.9792,-2.9792,-2.9792,-2.9792,-2.9729,-2.9037,-2.8812,-2.87,-2.804,-2.7223,-2.6264,-2.5745,-2.5146,-2.4592,-2.4161,-2.3337,-2.2647,-2.2647,-2.1744,-2.0674,-2.0635,-2.0654,-2.0664,-2.0586,-2.0566,-2.0566,-2.0566,-2.0566,-2.0566,-2.0566,-2.0566,-2.0566,-2.0566,-2.0566,-2.0566,-2.0566,-2.0566,-2.0566,-2.0566,-2.0566,-2.041,-2.0019,-1.9971,-1.9824,-1.9434,-1.9404,-1.9404,-1.9404,-1.9404,-1.9385,-1.9346,-1.8926,-1.8691,-1.8691,-1.832,-1.8311,-1.8691,-1.8172,-1.7978,-1.7978,-1.6894,-1.6386,-1.3128,-1.5137,-1.7335,-1.9759,-2.2133,-2.4079,-2.4695,-2.5573,-2.6314,-2.6496,-2.6433,-2.6382,-2.6508,-2.642,-2.6382,-2.6508,-2.6533,-2.6533,-2.6533,-2.7306,-2.7971,-2.8097,-2.9001,-2.9654,-2.9779,-2.9792,-2.9792,-2.9792,-2.9792,-2.9792,-2.9792,-2.9792,-2.9792,-2.9792,-2.9792,-2.9792,-2.9792,-2.9792,-2.9792,-2.9792,-2.9792,-2.9792,-2.9792,-2.9792,-2.9792,-2.9792,-2.9792,-2.9792,-2.9792,-2.9792,-2.9792,-2.9792,-2.9792,-2.9792,-2.9689,-2.8633,-2.7993,-2.7531,-2.6468,-2.5699,-2.5048,-2.4146,-2.3705,-2.3471,-2.2615,-2.2209,-2.2056,-2.2056,-2.1833,-2.1523,-2.1182,-2.1348,-2.1426,-2.0732,-2.0566,-2.0566,-2.0566,-2.0566,-2.0566,-2.0566,-2.0566,-2.0566,-2.0566,-2.0566,-2.0566,-2.0566,-2.0566,-2.0566,-2.0566,-2.0566,-2.0527,-2.0439,-2.042,-2.0391,-2.0303,-2.0293,-2.0293,-2.0293,-2.0293,-2.0137,-1.9795,-1.9375,-1.915,-1.915,-1.9062,-1.9053,-1.915,-1.8237,-1.7752,-1.7752,-1.5863,-1.5033,-1.3532,-1.5566,-1.7659,-2.0385,-2.2761,-2.4494,-2.4757,-2.546,-2.6126,-2.6471,-2.6533,-2.6533,-2.6533,-2.6533,-2.6533,-2.6533,-2.6533,-2.6533,-2.6533,-2.718,-2.7808,-2.8072,-2.8863,-2.949,-2.9767,-2.9792,-2.9792,-2.9792,-2.9792,-2.9792,-2.9792,-2.9792,-2.9792,-2.9792,-2.9792,-2.9792,-2.9792,-2.9792,-2.9792,-2.9792,-2.9792,-2.9792,-2.9792,-2.9792,-2.9792,-2.9792,-2.9792,-2.9792,-2.9792,-2.9792,-2.9792,-2.9792,-2.9792,-2.9456,-2.8937,-2.8347,-2.7599,-2.6806,-2.6242,-2.5495,-2.4675,-2.3974,-2.3495,-2.3066,-2.2404,-2.2187,-2.2187,-2.2187,-2.2041,-2.1836,-2.1611,-2.1719,-2.1768,-2.1309,-2.1035,-2.083,-2.0605,-2.0566,-2.0566,-2.0566,-2.0566,-2.0566,-2.0566,-2.0566,-2.0566,-2.0566,-2.0566,-2.0566,-2.0566,-2.0566,-2.0566,-2.0566,-2.0566,-2.0566,-2.0566,-2.0566,-2.0566,-2.0566,-2.0566,-2.0469,-2.0234,-2.0019,-1.9805,-1.959,-1.9394,-1.9155,-1.8826,-1.8099,-1.7402,-1.685,-1.5335,-1.4569,-1.339,-1.5731,-1.8041,-2.0803,-2.2686,-2.3991,-2.4556,-2.5159,-2.5737,-2.6214,-2.6458,-2.6533,-2.6533,-2.6533,-2.6533,-2.6533,-2.6533,-2.6533,-2.6533,-2.6929,-2.7494,-2.8047,-2.8586,-2.9151,-2.9729,-2.9792,-2.9792,-2.9792,-2.9792,-2.9792,-2.9792,-2.9792,-2.9792,-2.9792,-2.9792,-2.9792,-2.9792,-2.9792,-2.9792,-2.9792,-2.9792,-2.9792,-2.9792,-2.9792,-2.9792,-2.9792,-2.9792,-2.9792,-2.9792,-2.9792,-2.9792,-2.9792,-2.9792,-2.9106,-2.8096,-2.7936,-2.7116,-2.6141,-2.5975,-2.5305,-2.448,-2.4116,-2.3594,-2.3076,-2.2725,-2.2617,-2.2617,-2.2617,-2.2373,-2.209,-2.2012,-2.2051,-2.207,-2.1924,-2.167,-2.1328,-2.0889,-2.0791,-2.0791,-2.0791,-2.0791,-2.0791,-2.0791,-2.0732,-2.0684,-2.0703,-2.0625,-2.0566,-2.0566,-2.0566,-2.0566,-2.0566,-2.0566,-2.0566,-2.0566,-2.0566,-2.0566,-2.0566,-2.0566,-2.0566,-2.0566,-2.0566,-2.0391,-2.0029,-1.9687,-1.9136,-1.8383,-1.7908,-1.7047,-1.5955,-1.4967,-1.451,-1.0891,-1.4262,-1.8041,-2.0803,-2.2385,-2.3401,-2.3979,-2.4883,-2.5624,-2.5699,-2.6113,-2.6533,-2.6533,-2.6533,-2.6533,-2.6533,-2.6533,-2.6533,-2.6533,-2.6929,-2.7494,-2.8047,-2.8586,-2.9151,-2.9729,-2.9792,-2.9792,-2.9792,-2.9792,-2.9792,-2.9792,-2.9792,-2.9792,-2.9792,-2.9792,-2.9792,-2.9792,-2.9792,-2.9792,-2.9792,-2.9792,-2.9792,-2.9792,-2.9792,-2.9792,-2.9792,-2.9792,-2.9792,-2.9792,-2.9792,-2.9792,-2.9792,-2.9792,-2.9106,-2.8004,-2.7046,-2.5964,-2.4872,-2.3887,-2.3474,-2.329,-2.3231,-2.3173,-2.3125,-2.3076,-2.3057,-2.3057,-2.3057,-2.3018,-2.2891,-2.2519,-2.2705,-2.2783,-2.206,-2.2119,-2.2227,-2.1797,-2.1709,-2.1709,-2.1709,-2.1709,-2.1709,-2.1709,-2.1396,-2.1182,-2.1289,-2.0879,-2.0566,-2.0566,-2.0566,-2.0566,-2.0566,-2.0566,-2.0566,-2.0566,-2.0566,-2.0566,-2.0566,-2.0566,-2.0566,-2.0566,-2.0566,-2.0537,-2.0478,-2.042,-1.9946,-1.8876,-1.786,-1.6782,-1.5725,-1.4691,-1.4129,-1.1602,-1.4574,-1.7488,-1.9936,-2.138,-2.2435,-2.3314,-2.4368,-2.5247,-2.5536,-2.605,-2.6533,-2.6533,-2.6533,-2.6533,-2.6533,-2.6533,-2.6533,-2.6533,-2.6666,-2.7143,-2.8009,-2.8323,-2.8812,-2.9704,-2.9792,-2.9792,-2.9792,-2.9792,-2.9792,-2.9792,-2.9792,-2.9792,-2.9792,-2.9792,-2.9792,-2.9792,-2.9792,-2.9792,-2.9792,-2.9792,-2.9792,-2.9792,-2.9118,-2.8858,-2.8858,-2.9534,-2.9443,-2.8858,-2.8858,-2.8858,-2.8779,-2.8211,-2.729,-2.6191,-2.5714,-2.4798,-2.38,-2.3299,-2.3135,-2.3135,-2.3135,-2.3135,-2.3135,-2.3135,-2.3135,-2.3135,-2.3135,-2.3135,-2.3096,-2.291,-2.2998,-2.3047,-2.2676,-2.2734,-2.2812,-2.2627,-2.2217,-2.1885,-2.1885,-2.1885,-2.1885,-2.1885,-2.1728,-2.1621,-2.167,-2.1465,-2.1309,-2.1309,-2.1309,-2.1309,-2.1309,-2.1309,-2.1309,-2.1309,-2.1309,-2.1201,-2.0957,-2.0937,-2.083,-2.0576,-2.0001,-1.9678,-1.9678,-1.9678,-1.9195,-1.8069,-1.6927,-1.5869,-1.481,-1.4328,-1.4088,-1.1765,-1.4075,-1.5936,-1.838,-2.0024,-2.1343,-2.246,-2.359,-2.4544,-2.5084,-2.5749,-2.6239,-2.6239,-2.6433,-2.6533,-2.6533,-2.6533,-2.6533,-2.6533,-2.6533,-2.6816,-2.7783,-2.8021,-2.8499,-2.9478,-2.9704,-2.9792,-2.9792,-2.9534,-2.9365,-2.9365,-2.9118,-2.9118,-2.9365,-2.9365,-2.9365,-2.9365,-2.9365,-2.9365,-2.9365,-2.9365,-2.9365,-2.9365,-2.8187,-2.7683,-2.7763,-2.8621,-2.8779,-2.8518,-2.7936,-2.7844,-2.8004,-2.6883,-2.5797,-2.4787,-2.4787,-2.4049,-2.3135,-2.3135,-2.3135,-2.3135,-2.3135,-2.3135,-2.3135,-2.3135,-2.3135,-2.3135,-2.3135,-2.3135,-2.3135,-2.3135,-2.3135,-2.3135,-2.3135,-2.3135,-2.3135,-2.3135,-2.2646,-2.2207,-2.2207,-2.2207,-2.2207,-2.2207,-2.2119,-2.208,-2.2187,-2.208,-2.2041,-2.2187,-2.208,-2.1992,-2.1992,-2.1924,-2.1885,-2.1885,-2.1885,-2.1748,-2.1416,-2.1053,-2.0738,-2.0483,-1.9416,-1.8769,-1.8769,-1.842,-1.7831,-1.6927,-1.6108,-1.5137,-1.4088,-1.4088,-1.4088,-0.9716,-1.1387,-1.2955,-1.5911,-1.8304,-2.0188,-2.1317,-2.2435,-2.3389,-2.3966,-2.4921,-2.5636,-2.5636,-2.6088,-2.6533,-2.6533,-2.6533,-2.6533,-2.6533,-2.6533,-2.6747,-2.7256,-2.7783,-2.8335,-2.8913,-2.9465,-2.9792,-2.9792,-2.8767,-2.8176,-2.8176,-2.7209,-2.7128,-2.8176,-2.8176,-2.8176,-2.8176,-2.8176,-2.8176,-2.8176,-2.8176,-2.8176,-2.8176,-2.7046,-2.6554,-2.6565,-2.6648,-2.7799,-2.9546,-2.7464,-2.7209,-2.8004,-2.6883,-2.5797,-2.4787,-2.4787,-2.4049,-2.3135,-2.3135,-2.3135,-2.3135,-2.3135,-2.3135,-2.3135,-2.3135,-2.3135,-2.3135,-2.3135,-2.3135,-2.3135,-2.3135,-2.3135,-2.3135,-2.3135,-2.3135,-2.3135,-2.3135,-2.3105,-2.3076,-2.3076,-2.3076,-2.3076,-2.3076,-2.2744,-2.2617,-2.3018,-2.2607,-2.2461,-2.2998,-2.2598,-2.2266,-2.2266,-2.2041,-2.1885,-2.1885,-2.1885,-2.1875,-2.1855,-2.0708,-2.0075,-2.0057,-1.8871,-1.8272,-1.8272,-1.6908,-1.6087,-1.5779,-1.5703,-1.5137,-1.4088,-1.4088,-1.4088,-0.8502,-1.0004,-1.1692,-1.4398,-1.6146,-1.7639,-1.9482,-2.1173,-2.2616,-2.328,-2.433,-2.5197,-2.5536,-2.6063,-2.6533,-2.6533,-2.6533,-2.6533,-2.6533,-2.6533,-2.6666,-2.7218,-2.7457,-2.7553,-2.7456,-2.8498,-2.8667,-2.7293,-2.8427,-2.853,-2.7128,-2.736,-2.736,-2.7035,-2.7046,-2.7046,-2.7046,-2.7046,-2.7046,-2.7046,-2.7046,-2.7046,-2.7046,-2.588,-2.5808,-2.64,-2.4978,-2.5221,-2.6543,-2.5714,-2.563,-2.5859,-2.4713,-2.4059,-2.3714,-2.3714,-2.3464,-2.3135,-2.3135,-2.3135,-2.3135,-2.3135,-2.3135,-2.3135,-2.3135,-2.3135,-2.3135,-2.3135,-2.3135,-2.3135,-2.3135,-2.3135,-2.3135,-2.3135,-2.3135,-2.3135,-2.3135,-2.3135,-2.3135,-2.3135,-2.3135,-2.3135,-2.3135,-2.3018,-2.2969,-2.3115,-2.2969,-2.291,-2.3115,-2.2959,-2.2832,-2.2832,-2.2744,-2.2685,-2.2685,-2.2685,-2.2578,-2.2305,-2.1126,-2.0296,-2.0045,-1.8148,-1.7201,-1.7201,-1.5972,-1.5583,-1.5926,-1.507,-1.4489,-1.4088,-1.4088,-1.4088,-0.739,-0.8854,-1.0661,-1.3068,-1.4336,-1.558,-1.782,-1.9595,-2.1005,-2.2036,-2.3281,-2.4418,-2.4958,-2.5523,-2.6025,-2.6471,-2.6533,-2.6533,-2.6533,-2.6533,-2.6603,-2.6967,-2.7168,-2.7192,-2.6846,-2.7928,-2.81,-2.6675,-2.8053,-2.8186,-2.6307,-2.6687,-2.6696,-2.5964,-2.5975,-2.6141,-2.6483,-2.6141,-2.5975,-2.5975,-2.5975,-2.5975,-2.5891,-2.4713,-2.4882,-2.5797,-2.3887,-2.3963,-2.5294,-2.4542,-2.4457,-2.4702,-2.3551,-2.3135,-2.3135,-2.3135,-2.3135,-2.3135,-2.3135,-2.3135,-2.3135,-2.3135,-2.3135,-2.3135,-2.3135,-2.3135,-2.3135,-2.3135,-2.3135,-2.3135,-2.3135,-2.3135,-2.3135,-2.3135,-2.3135,-2.3135,-2.3135,-2.3135,-2.3135,-2.3135,-2.3135,-2.3135,-2.3135,-2.3135,-2.3135,-2.3135,-2.3135,-2.3135,-2.3135,-2.3135,-2.3135,-2.3135,-2.3135,-2.3135,-2.3135,-2.3135,-2.3018,-2.2744,-2.1186,-2.0175,-1.9826,-1.7621,-1.6299,-1.6299,-1.5506,-1.5356,-1.5827,-1.4856,-1.4382,-1.4382,-1.4382,-1.4382,0.0,0.0,0.0,-1.1771,-1.2901,-1.409,-1.6384,-1.7552,-1.8618,-2.0234,-2.1864,-2.3165,-2.3791,-2.4406,-2.5121,-2.6226,-2.6427,-2.6508,-2.6533,-2.6533,-2.6533,-2.6533,-2.6929,-2.7256,-2.7256,-2.7758,-2.8084,-2.7999,-2.756,-2.6808,-2.5608,-2.5005,-2.4777,-2.4787,-2.4787,-2.5294,-2.6389,-2.5294,-2.4787,-2.4787,-2.4787,-2.4787,-2.4702,-2.3627,-2.3714,-2.4702,-2.3551,-2.4392,-2.6224,-2.3973,-2.3714,-2.4617,-2.3551,-2.3135,-2.3135,-2.3135,-2.3135,-2.3135,-2.3135,-2.3135,-2.3135,-2.3135,-2.3135,-2.3135,-2.3135,-2.3135,-2.3135,-2.3135,-2.3135,-2.3135,-2.3135,-2.3135,-2.3135,-2.3135,-2.3135,-2.3135,-2.3135,-2.3135,-2.3135,-2.3135,-2.3135,-2.3135,-2.3135,-2.3135,-2.3135,-2.3135,-2.3135,-2.3135,-2.3135,-2.3135,-2.3135,-2.3135,-2.3047,-2.3047,-2.3047,-2.3047,-2.296,-2.296,-2.0764,-1.9405,-1.9405,-1.7117,-1.5832,-1.5832,-1.5551,-1.5411,-1.5404,-1.511,-1.4963,-1.4963,-1.4963,-1.4963,-0.5746,0.0,0.0,0.0,0.0,0.0,-1.347,-1.4631,-1.5973,-1.8414,-1.9599,-2.0653,-2.2176,-2.3059,-2.3766,-2.4256,-2.516,-2.5988,-2.6471,-2.6533,-2.6533,-2.6533,-2.6659,-2.6469,-2.5742,-2.6813,-2.6906,-2.5384,-2.6217,-2.5951,-2.4073,-2.341,-2.3232,-2.3541,-2.3551,-2.3714,-2.4059,-2.3724,-2.3551,-2.3551,-2.3551,-2.3551,-2.3551,-2.3222,-2.3299,-2.3551,-2.3222,-2.3474,-2.3973,-2.3387,-2.3309,-2.3551,-2.3222,-2.3135,-2.3135,-2.3135,-2.3135,-2.3135,-2.3135,-2.3135,-2.3135,-2.3135,-2.3135,-2.3135,-2.3135,-2.3135,-2.3135,-2.3135,-2.3135,-2.3135,-2.3135,-2.3135,-2.3135,-2.3135,-2.3135,-2.3135,-2.3135,-2.3135,-2.3135,-2.3135,-2.3135,-2.3135,-2.3135,-2.3135,-2.3135,-2.3135,-2.3135,-2.3135,-2.3135,-2.3135,-2.3135,-2.3135,-2.2306,-2.1756,-2.1756,-2.1033,-2.0494,-2.0494,-1.9047,-1.8234,-1.8234,-1.6662,-1.5832,-1.5832,-1.5752,-1.5712,-1.5705,-1.5211,-1.4963,-1.4963,-1.4963,-1.4963,-0.6022,-0.6792,-0.7921,-0.9068,0.0,0.0,-1.232,-1.3311,-1.4392,-1.6653,-1.7728,-1.8684,-2.0053,-2.0783,-2.1392,-2.2004,-2.3212,-2.4583,-2.595,-2.6101,-2.6189,-2.6496,-2.6533,-2.6245,-2.5664,-2.6086,-2.5829,-2.463,-2.524,-2.4989,-2.3471,-2.2822,-2.2627,-2.2871,-2.3047,-2.3135,-2.3135,-2.3135,-2.3135,-2.3135,-2.3135,-2.3135,-2.3135,-2.3135,-2.3135,-2.3135,-2.3135,-2.3135,-2.3135,-2.3135,-2.3135,-2.3135,-2.3135,-2.3135,-2.3135,-2.3135,-2.3135,-2.3135,-2.3135,-2.3135,-2.3135,-2.3135,-2.3135,-2.3135,-2.3135,-2.3135,-2.3135,-2.3135,-2.3135,-2.3135,-2.3135,-2.3135,-2.3135,-2.3135,-2.3135,-2.3135,-2.3135,-2.3135,-2.3135,-2.3135,-2.3135,-2.3135,-2.3135,-2.3135,-2.3135,-2.3135,-2.3135,-2.2862,-2.2217,-2.2217,-2.2129,-2.1676,-2.0944,-2.0576,-2.0576,-1.9943,-1.9497,-1.9497,-1.8411,-1.7692,-1.7692,-1.648,-1.5832,-1.5832,-1.5832,-1.5832,-1.5832,-1.5491,-1.5324,-1.5324,-1.5324,-1.5324,-0.6848,-0.7319,-0.8246,-0.9848,-0.9768,0.0,-1.2024,-1.2711,-1.3331,-1.4825,-1.5974,-1.6877,-1.7531,-1.8043,-1.8623,-1.9527,-2.0822,-2.2585,-2.4996,-2.5365,-2.5632,-2.6214,-2.6258,-2.6283,-2.6364,-2.5545,-2.5004,-2.5004,-2.4374,-2.3777,-2.3238,-2.2712,-2.2412,-2.251,-2.2881,-2.3096,-2.3135,-2.3135,-2.3135,-2.3135,-2.3135,-2.3135,-2.3135,-2.3135,-2.3135,-2.3135,-2.3135,-2.3135,-2.3135,-2.3135,-2.3135,-2.3135,-2.3135,-2.3135,-2.3135,-2.3135,-2.3135,-2.3135,-2.3135,-2.3135,-2.3135,-2.3135,-2.3135,-2.3135,-2.3135,-2.3135,-2.3135,-2.3135,-2.3135,-2.3135,-2.3135,-2.3135,-2.3135,-2.3135,-2.3135,-2.3135,-2.3135,-2.3135,-2.3135,-2.3135,-2.3135,-2.3135,-2.3135,-2.296,-2.2862,-2.2862,-2.2775,-2.2227,-2.0755,-2.0845,-2.0666,-1.9579,-1.9405,-1.9314,-1.9314,-1.9123,-1.9131,-1.9131,-1.8041,-1.7505,-1.7505,-1.6386,-1.5832,-1.5832,-1.5832,-1.5832,-1.5832,-1.5832,-1.5832,-1.5832,-1.5832,-1.5832,-0.7106,-0.763,-0.8342,-0.8218,-0.8648,0.0,-0.9851,-1.0203,-1.0946,-1.2847,-1.3411,-1.3945,-1.5038,-1.6193,-1.6927,-1.6885,-1.8563,-2.0746,-2.3502,-2.3923,-2.4183,-2.5056,-2.4872,-2.4969,-2.5695,-2.5326,-2.5004,-2.5004,-2.3383,-2.223,-2.171,-2.1516,-2.1797,-2.249,-2.2598,-2.2793,-2.3135,-2.3135,-2.3135,-2.3135,-2.3135,-2.3135,-2.3135,-2.3135,-2.3135,-2.3135,-2.3135,-2.3135,-2.3135,-2.3135,-2.3135,-2.3135,-2.3135,-2.3135,-2.3135,-2.3135,-2.3135,-2.3135,-2.3135,-2.3135,-2.3135,-2.3135,-2.3135,-2.3135,-2.3135,-2.3135,-2.3135,-2.3135,-2.3135,-2.3135,-2.3135,-2.3135,-2.3135,-2.3135,-2.3135,-2.3135,-2.3135,-2.3135,-2.3135,-2.3135,-2.3135,-2.3135,-2.3135,-2.2306,-2.1658,-2.1658,-2.0854,-2.0133,-1.9761,-1.9761,-1.9761,-1.9497,-1.8588,-1.8048,-1.8048,-1.7124,-1.6567,-1.6567,-1.6292,-1.6197,-1.6197,-1.592,-1.5832,-1.5832,-1.5832,-1.5832,-1.5832,-1.5832,-1.5832,-1.5832,-1.5832,-1.5832,-0.7856,-0.8058,-0.849,-0.8558,-0.8867,0.0,0.0,-1.0268,-1.0711,-1.2705,-1.2587,-1.2464,-1.3542,-1.4275,-1.4718,-1.4789,-1.6459,-1.8278,-1.9855,-2.1607,-2.3015,-2.3744,-2.3675,-2.3544,-2.361,-2.3352,-2.3112,-2.285,-2.1897,-2.1178,-2.0889,-2.1113,-2.1533,-2.2178,-2.2402,-2.2715,-2.3135,-2.3135,-2.3135,-2.3135,-2.3135,-2.3135,-2.3135,-2.3135,-2.3135,-2.3135,-2.3135,-2.3135,-2.3135,-2.3135,-2.3135,-2.3135,-2.3135,-2.3135,-2.3135,-2.3135,-2.3135,-2.3135,-2.3135,-2.3135,-2.3135,-2.3135,-2.3135,-2.3135,-2.3135,-2.3135,-2.3135,-2.3135,-2.3135,-2.3135,-2.3135,-2.3135,-2.3135,-2.3135,-2.3135,-2.3135,-2.3135,-2.3135,-2.295,-2.2306,-2.2217,-2.2217,-2.2217,-2.1658,-2.0935,-1.9943,-1.967,-1.9039,-1.7848,-1.8218,-1.8403,-1.7755,-1.7124,-1.6763,-1.6763,-1.6204,-1.5832,-1.5832,-1.5832,-1.5832,-1.5832,-1.5832,-1.5832,-1.5832,-1.5832,-1.5832,-1.5832,-1.5832,-1.5832,-1.5832,-1.5832,-1.5832,-0.8784,-0.886,-0.9218,-0.9635,-0.9755,-1.0041,0.0,0.0,0.0,-1.2389,-1.2006,-1.1644,-1.2348,-1.2579,-1.2734,-1.3076,-1.4522,-1.5732,-1.6169,-1.8723,-2.0946,-2.1868,-2.1879,-2.1713,-2.1331,-2.1062,-2.0803,-2.0645,-2.0318,-2.0185,-2.043,-2.0859,-2.1309,-2.1748,-2.2168,-2.2598,-2.3018,-2.3096,-2.3135,-2.3135,-2.3135,-2.3135,-2.3135,-2.3135,-2.3135,-2.3135,-2.3135,-2.3135,-2.3135,-2.3135,-2.3135,-2.3135,-2.3135,-2.3135,-2.3135,-2.3135,-2.3135,-2.3135,-2.3135,-2.3135,-2.3135,-2.3135,-2.3135,-2.3135,-2.3135,-2.3135,-2.3135,-2.3135,-2.3135,-2.3135,-2.3135,-2.3135,-2.3135,-2.3135,-2.3135,-2.3047,-2.2775,-2.2765,-2.2403,-2.1212,-2.0935,-2.0935,-2.0935,-2.0755,-2.0034,-1.8411,-1.8495,-1.8025,-1.6103,-1.6669,-1.6943,-1.592,-1.5832,-1.5832,-1.5832,-1.5832,-1.5832,-1.5832,-1.5832,-1.5832,-1.5832,-1.5832,-1.5832,-1.5832,-1.5832,-1.5832,-1.5832,-1.5832,-1.5832,-1.5832,-1.5832,-1.5832,-0.9693,-1.0543,-1.1353,-1.0464,-1.0932,-1.1465,-1.0555,0.0,-0.9768,-0.9943,0.0,-1.0732,-1.0822,0.0,0.0,-1.1822,-1.2929,-1.3922,-1.4329,-1.5311,-1.6622,-1.838,-1.8644,-1.9087,-2.0188,-1.9583,-1.9491,-2.0523,-1.9204,-1.8799,-1.9932,-2.04,-2.085,-2.1299,-2.1728,-2.2158,-2.2578,-2.2949,-2.3135,-2.3135,-2.3135,-2.3135,-2.3135,-2.3135,-2.3135,-2.3135,-2.3135,-2.3135,-2.3135,-2.3135,-2.3135,-2.3135,-2.3135,-2.3135,-2.3135,-2.3135,-2.3135,-2.3135,-2.3135,-2.3135,-2.3135,-2.3135,-2.3135,-2.3135,-2.3135,-2.3135,-2.3135,-2.3135,-2.3135,-2.3135,-2.3135,-2.3135,-2.3135,-2.3135,-2.3135,-2.2775,-2.1756,-2.148,-2.1123,-1.9943,-1.967,-1.967,-1.967,-1.8864,-1.8048,-1.7777,-1.685,-1.6103,-1.5825,-1.592,-1.592,-1.5825,-1.5832,-1.5832,-1.5832,-1.5832,-1.5832,-1.5832,-1.5832,-1.5832,-1.5832,-1.5832,-1.5832,-1.5832,-1.5832,-1.5832,-1.5832,-1.5832,-1.5832,-1.5832,-1.5832,-1.5832,-1.1268,-1.1779,-1.2295,-1.1456,-1.1339,-1.1368,-1.0926,-1.0058,-0.9617,-1.0456,0.0,0.0,0.0,0.0,0.0,0.0,-1.1591,-1.2263,-1.1837,-1.2538,-1.3938,-1.6227,-1.6493,-1.6916,-1.8019,-1.7595,-1.7752,-1.8982,-1.8182,-1.8203,-1.9482,-1.9951,-2.0508,-2.1211,-2.166,-2.209,-2.251,-2.293,-2.3135,-2.3135,-2.3135,-2.3135,-2.3135,-2.3135,-2.3135,-2.3135,-2.3135,-2.3135,-2.3135,-2.3135,-2.3135,-2.3135,-2.3135,-2.3135,-2.3135,-2.3135,-2.3135,-2.3135,-2.3135,-2.3135,-2.3135,-2.3135,-2.3135,-2.3135,-2.3135,-2.3135,-2.3135,-2.3135,-2.3135,-2.3135,-2.3135,-2.3135,-2.3135,-2.3135,-2.2589,-2.1943,-2.1382,-2.0755,-1.9943,-1.8688,-1.8503,-1.8226,-1.7483,-1.7591,-1.7412,-1.6669,-1.6109,-1.5832,-1.5832,-1.5832,-1.5832,-1.5832,-1.5832,-1.5832,-1.5832,-1.5832,-1.5832,-1.5832,-1.5832,-1.5832,-1.5832,-1.5832,-1.5832,-1.5832,-1.5832,-1.5832,-1.5832,-1.5832,-1.5832,-1.5832,-1.5832,-1.5832,-1.268,-1.2991,-1.3287,-1.2172,-1.1865,-1.1735,-1.1288,-1.0558,-1.0174,-1.089,-1.0596,0.0,0.0,0.0,-1.0323,-0.9802,0.0,-1.0829,-1.0058,-1.0672,-1.1965,-1.4122,-1.4686,-1.5352,-1.6407,-1.5752,-1.594,-1.767,-1.6983,-1.7207,-1.8857,-1.9453,-2.0088,-2.085,-2.1416,-2.1914,-2.2334,-2.2754,-2.3027,-2.3135,-2.3135,-2.3135,-2.3135,-2.3135,-2.3135,-2.3135,-2.3135,-2.3135,-2.3135,-2.3135,-2.3135,-2.3135,-2.3135,-2.3135,-2.3135,-2.3135,-2.3135,-2.3135,-2.3135,-2.3135,-2.3135,-2.3135,-2.3135,-2.3135,-2.3135,-2.3135,-2.3135,-2.3135,-2.2862,-2.2589,-2.2589,-2.2403,-2.2138,-2.2138,-2.14,-2.0755,-2.0395,-1.9579,-1.868,-1.7404,-1.7225,-1.685,-1.592,-1.6574,-1.685,-1.592,-1.5832,-1.5832,-1.5832,-1.5832,-1.5832,-1.5832,-1.5832,-1.5832,-1.5832,-1.5832,-1.5832,-1.5832,-1.5832,-1.5832,-1.5832,-1.5832,-1.5832,-1.5832,-1.5832,-1.5832,-1.5832,-1.5832,-1.5832,-1.5832,-1.5832,-1.5832,-1.375,-1.4455,-1.4827,-1.2478,-1.2798,-1.3182,-1.1284,-1.1428,-1.1625,-1.0165,-1.1009,-1.1592,-1.0082,-1.0029,-1.0105,-0.9752,-0.974,0.0,0.0,-0.9871,-1.0544,-1.1582,-1.3165,-1.4683,-1.5965,-1.4216,-1.4254,-1.7174,-1.5437,-1.5352,-1.791,-1.8848,-1.9512,-1.9941,-2.0801,-2.1465,-2.1904,-2.2324,-2.2734,-2.3135,-2.3135,-2.3135,-2.3135,-2.3135,-2.3135,-2.3135,-2.3135,-2.3135,-2.3135,-2.3135,-2.3135,-2.3135,-2.3135,-2.3135,-2.3135,-2.3135,-2.3135,-2.3135,-2.3135,-2.3135,-2.3135,-2.3135,-2.3135,-2.3135,-2.3135,-2.3135,-2.3135,-2.3135,-2.2217,-2.1382,-2.1382,-2.0486,-1.9588,-1.9588,-1.9588,-1.9222,-1.8048,-1.7785,-1.7412,-1.6109,-1.5825,-1.5825,-1.5832,-1.5832,-1.5825,-1.5832,-1.5832,-1.5832,-1.5832,-1.5832,-1.5832,-1.5832,-1.5832,-1.5832,-1.5832,-1.5832,-1.5832,-1.5832,-1.5832,-1.5832,-1.5832,-1.5832,-1.5832,-1.5832,-1.5832,-1.5832,-1.5832,-1.5832,-1.5832,-1.5832,-1.5832,-1.5832,-1.6607,-1.7034,-1.7149,-1.5504,-1.4874,-1.4273,-1.2671,-1.2184,-1.1768,-1.0713,-1.1362,-1.165,-1.009,-1.0037,-0.9915,-0.8999,-0.9121,-0.9177,0.0,-0.9636,-1.0443,-1.1074,-1.2412,-1.3273,-1.3152,-1.2976,-1.3441,-1.4707,-1.438,-1.4963,-1.7061,-1.8242,-1.9053,-1.9482,-2.0625,-2.1445,-2.1885,-2.2305,-2.2725,-2.3135,-2.3135,-2.3135,-2.3135,-2.3135,-2.3135,-2.3135,-2.3135,-2.3135,-2.3135,-2.3135,-2.3135,-2.3135,-2.3135,-2.3135,-2.3135,-2.3135,-2.3135,-2.3135,-2.3135,-2.3135,-2.3135,-2.3135,-2.3135,-2.3135,-2.3135,-2.3135,-2.3135,-2.3135,-2.2217,-2.1293,-2.1293,-2.0395,-1.9497,-1.9497,-1.8864,-1.8234,-1.7785,-1.7037,-1.6292,-1.592,-1.5832,-1.5832,-1.5832,-1.5832,-1.5832,-1.5832,-1.5832,-1.5832,-1.5832,-1.5832,-1.5832,-1.5832,-1.5832,-1.5832,-1.5832,-1.5832,-1.5832,-1.5832,-1.5832,-1.5832,-1.5832,-1.5832,-1.5832,-1.5832,-1.5832,-1.5832,-1.5832,-1.5832,-1.5832,-1.5832,-1.5832,-1.5832,-1.8271,-1.8428,-1.829,-1.689,-1.6211,-1.5458,-1.3716,-1.3465,-1.3167,-1.186,-1.2075,-1.2193,-1.1264,-1.0522,-0.9841,-0.9163,-0.882,-0.8583,0.0,-0.9119,-0.9818,-1.0077,-1.1477,-1.2246,-1.1836,-1.1895,-1.2393,-1.3428,-1.3477,-1.4223,-1.6162,-1.7627,-1.8613,-1.9043,-2.0322,-2.1279,-2.1875,-2.2158,-2.2578,-2.3135,-2.3135,-2.3135,-2.3135,-2.3135,-2.3135,-2.3135,-2.3135,-2.3135,-2.3135,-2.3135,-2.3135,-2.3135,-2.3135,-2.3135,-2.3135,-2.3135,-2.3135,-2.3135,-2.3135,-2.3135,-2.3135,-2.3135,-2.3135,-2.3135,-2.3135,-2.2775,-2.2492,-2.2492,-2.1302,-2.0034,-2.0034,-1.9123,-1.8211,-1.8211,-1.7576,-1.7037,-1.7037,-1.6386,-1.5832,-1.5832,-1.5832,-1.5832,-1.5832,-1.5832,-1.5832,-1.5832,-1.5832,-1.5832,-1.5832,-1.5832,-1.5832,-1.5832,-1.5832,-1.5832,-1.5832,-1.5832,-1.5832,-1.5832,-1.5832,-1.5832,-1.5832,-1.5832,-1.5832,-1.5832,-1.5832,-1.5832,-1.5832,-1.5832,-1.5832,-1.5832,-1.5832,-1.5832]},{"header":{"parameterUnit":"m.s-1","parameterCategory":1,"la1":30.6,"la2":29.2853,"lo1":-89.7004,"lo2":-87.6739,"dy":0.0162,"dx":0.0183,"nx":112,"ny":82,"refTime":"2024-09-21T12:00:00:Z","depth":0,"parameterNumber":3,"parameterNumberName":"V-component_of_WINDS"},"data":[0.0,0.0,0.0,0.0,0.0,0.0,0.0,0.0,0.0,0.0,0.0,0.0,0.0,0.0,0.0,0.0,0.0,0.0,0.0,0.0,0.0,0.0,0.0,0.0,0.0,0.0,0.0,0.0,0.0,0.0,0.0,0.0,0.0,0.0,0.0,0.0,0.0,0.0,0.0,0.0,0.0,0.0,0.0,0.0,0.0,0.0,0.0,0.0,0.0,0.0,0.0,0.0,0.0,0.0,0.0,0.0,0.0,0.0,0.0,0.0,0.0,0.0,0.0,0.0,0.0,0.0,0.0,0.0,0.0,0.0,0.0,0.0,0.0,0.0,0.0,0.0,0.0,0.0,0.0,0.0,0.0,0.0,0.0,0.0,0.0,0.0,0.0,0.0,0.0,0.0,-0.4854,-0.4641,-0.0898,0.2119,0.344,0.6425,0.7711,0.6518,0.0,0.0,0.0,0.0,0.0,0.0,0.0,0.0,0.0,0.0,0.0,0.0,0.0,0.0,0.0,0.0,0.0,0.0,0.0,0.0,0.0,0.0,0.0,0.0,0.0,0.0,0.0,0.0,0.0,0.0,0.0,0.0,0.0,0.0,0.0,0.0,0.0,0.0,0.0,0.0,0.0,0.0,0.0,0.0,0.0,0.0,0.0,0.0,0.0,0.0,0.0,0.0,0.0,0.0,0.0,0.0,0.0,0.0,0.0,0.0,0.0,0.0,0.0,0.0,0.0,0.0,0.0,0.0,0.0,0.0,0.0,0.0,0.0,0.0,0.0,0.0,0.0,0.0,0.0,0.0,0.0,0.0,0.0,0.0,0.0,0.0,0.0,0.0,0.0,0.0,0.0,0.0,0.0,0.0,0.0,0.0,0.0,0.0,0.0,0.0,0.0,0.0,0.0,0.0,-0.5133,-0.6366,-0.2475,0.0811,0.2306,0.5524,0.7244,0.6694,0.0,0.0,0.0,0.0,0.0,0.0,0.0,0.0,0.0,0.0,0.0,0.0,0.0,0.0,0.0,0.0,0.0,0.0,0.0,0.0,0.0,0.0,0.0,0.0,0.0,0.0,0.0,0.0,0.0,0.0,0.0,0.0,0.0,0.0,0.0,0.0,0.0,0.0,0.0,0.0,0.0,0.0,0.0,0.0,0.0,0.0,0.0,0.0,0.0,0.0,0.0,0.0,0.0,0.0,0.0,0.0,0.0,0.0,0.0,0.0,0.0,0.0,0.0,0.0,0.0,0.0,0.0,0.0,0.0,0.0,0.0,0.0,0.0,0.0,0.0,0.0,0.0,0.0,0.0,0.0,0.0,0.0,0.0,0.0,0.0,0.0,0.0,0.0,0.0,0.0,0.0,0.0,0.0,0.0,0.0,0.0,0.0,0.0,0.0,0.0,0.0,0.0,0.0,-0.594,-0.575,-0.6339,-0.3023,-0.0052,0.1679,0.5089,0.6924,0.6408,0.6919,0.0,0.0,0.0,0.0,0.0,0.0,0.0,0.0,0.0,0.0,0.0,0.0,0.0,0.0,0.0,0.0,0.0,0.0,0.0,0.0,0.0,0.0,0.0,0.0,0.0,0.0,0.0,0.0,0.0,0.0,0.0,0.0,0.0,0.0,0.0,0.0,0.0,0.0,0.0,0.0,0.0,0.0,0.0,0.0,0.0,0.0,0.0,0.0,0.0,0.0,0.0,0.0,0.0,0.0,0.0,0.0,0.0,0.0,0.0,0.0,0.0,0.0,0.0,0.0,0.0,0.0,0.0,0.0,0.0,0.0,0.0,0.0,0.0,0.0,0.0,0.0,0.0,0.0,0.0,0.0,0.0,0.0,0.0,0.0,0.0,0.0,0.0,0.0,0.0,0.0,0.0,0.0,0.0,0.0,0.0,0.0,0.0,0.0,0.0,0.0,0.0,0.0,-0.6475,-0.6468,-0.621,-0.326,-0.0587,0.1165,0.4593,0.6473,0.6084,0.6642,0.0,0.0,0.0,0.0,0.0,0.0,0.0,0.0,0.0,0.0,0.0,0.0,0.0,0.0,0.0,0.0,0.0,0.0,0.0,0.0,0.0,0.0,0.0,0.0,0.0,0.0,0.0,0.0,0.0,0.0,0.0,0.0,0.0,0.0,0.0,0.0,0.0,0.0,0.0,0.0,0.0,0.0,0.0,0.0,0.0,0.0,0.0,0.0,0.0,0.0,0.0,0.0,0.0,0.0,0.0,0.0,0.0,0.0,0.0,0.0,0.0,0.0,0.0,0.0,0.0,0.0,0.0,0.0,0.0,0.0,0.0,0.0,0.0,0.0,0.0,0.0,0.0,0.0,0.0,0.0,0.0,0.0,0.0,0.0,0.0,0.0,0.0,0.0,0.0,0.0,0.0,0.0,0.0,0.0,0.0,0.0,0.0,0.0,0.0,0.0,0.0,0.0,-0.6756,-0.7179,-0.6786,-0.3473,-0.0745,0.0644,0.374,0.5697,0.59,0.6596,0.0,0.0,0.0,0.0,0.0,0.0,0.0,0.0,0.0,0.0,0.0,0.0,0.0,0.0,0.0,0.0,0.0,0.0,0.0,0.0,0.0,0.0,0.0,0.0,0.0,0.0,0.0,0.0,0.0,0.0,0.0,0.0,0.0,0.0,0.0,0.0,0.0,0.0,0.0,0.0,0.0,0.0,0.0,0.0,0.0,0.0,0.0,0.0,0.0,0.0,0.0,0.0,0.0,0.0,0.0,0.0,0.0,0.0,0.0,0.0,0.0,0.0,0.0,0.0,0.0,0.0,0.0,0.0,0.0,0.0,0.0,0.0,0.0,0.0,0.0,0.0,0.0,0.0,0.0,0.0,0.0,0.0,0.0,0.0,0.0,0.0,0.0,0.0,0.0,0.0,0.0,0.0,0.0,0.0,0.0,0.0,0.0,0.0,0.0,0.0,0.0,0.0,-0.644,-0.6426,-0.5528,-0.2946,-0.046,0.1652,0.4354,0.5862,0.5659,0.0,0.0,0.0,0.0,0.0,0.0,0.0,0.0,0.0,0.0,0.0,0.0,0.0,0.0,0.0,0.0,0.0,0.0,0.0,0.0,0.0,0.0,0.0,0.0,0.0,0.0,0.0,0.0,0.0,0.0,0.0,0.0,0.0,0.0,0.0,0.0,0.0,0.0,0.0,0.0,0.0,0.0,0.0,0.0,0.0,0.0,0.0,0.0,0.0,0.0,0.0,0.0,0.0,0.0,0.0,0.0,0.0,0.0,0.0,0.0,0.0,0.0,0.0,0.0,0.0,0.0,0.0,0.0,0.0,0.0,0.0,0.0,0.0,0.0,0.0,0.0,0.0,0.0,0.0,0.0,0.0,0.0,0.0,0.0,0.0,0.0,0.0,0.0,0.0,0.0,0.0,0.0,0.0,0.0,0.0,0.0,0.0,0.0,0.0,0.0,0.0,0.0,-0.5591,-0.5536,-0.5089,-0.4082,-0.2023,0.025,0.2696,0.4654,0.5723,0.5631,0.0,0.0,0.0,0.0,0.0,0.0,0.0,0.0,0.0,0.0,0.0,0.0,0.0,0.0,0.0,0.0,0.0,0.0,0.0,0.0,0.0,0.0,0.0,0.0,0.0,0.0,0.0,0.0,0.0,0.0,0.0,0.0,0.0,0.0,0.0,0.0,0.0,0.0,0.0,0.0,0.0,0.0,0.0,0.0,0.0,0.0,0.0,0.0,0.0,0.0,0.0,0.0,0.0,0.0,0.0,0.0,0.0,0.0,0.0,0.0,0.0,0.0,0.0,0.0,0.0,0.0,0.0,0.0,0.0,0.0,0.0,0.0,0.0,0.0,0.0,0.0,0.0,0.0,0.0,0.0,0.0,0.0,0.0,0.0,0.0,0.0,0.0,0.0,0.0,0.0,0.0,0.0,0.0,0.0,0.0,0.0,0.0,0.0,0.0,0.0,0.0,0.0,-0.4534,-0.4025,-0.3257,-0.2654,-0.0731,0.1412,0.3604,0.4417,0.512,0.0,0.0,0.0,0.0,0.0,0.0,0.0,0.0,0.0,0.0,0.0,0.0,0.0,0.0,0.0,0.0,0.0,0.0,0.0,0.0,0.0,0.0,0.0,0.0,0.0,0.0,0.0,0.0,0.0,0.0,0.0,0.0,0.0,0.0,0.0,0.0,0.0,0.0,0.0,0.0,0.0,0.0,0.0,0.0,0.0,0.0,0.0,0.0,0.0,0.0,0.0,0.0,0.0,0.0,0.0,0.0,0.0,0.0,0.0,0.0,0.0,0.0,0.0,0.0,0.0,0.0,0.0,0.0,0.0,0.0,0.0,0.0,0.0,0.0,0.0,0.0,0.0,0.0,0.0,0.0,0.0,0.0,0.0,0.0,0.0,0.0,0.0,0.0,0.0,0.0,0.0,0.0,0.0,0.0,0.0,0.0,0.0,0.0,0.0,0.0,0.0,0.0,0.0,-0.4108,-0.3411,-0.2442,-0.1309,0.038,0.2076,0.374,0.4788,0.536,0.5344,0.0,0.0,0.0,0.0,0.0,0.0,0.0,0.0,0.0,0.0,0.0,0.0,0.0,0.0,0.0,0.0,0.0,0.0,0.0,0.0,0.0,0.0,0.0,0.0,0.0,0.0,0.0,0.0,0.0,0.0,0.0,0.0,0.0,0.0,0.0,0.0,0.0,0.0,0.0,0.0,0.0,0.0,0.0,0.0,0.0,0.0,0.0,0.0,0.0,0.0,0.0,0.0,0.0,0.0,0.0,0.0,0.0,0.0,0.0,0.0,0.0,0.0,0.0,0.0,0.0,0.0,0.0,0.0,0.0,0.0,0.0,0.0,0.0,0.0,0.0,0.0,0.0,0.0,0.0,0.0,0.0,0.0,0.0,0.0,0.0,0.0,0.0,0.0,0.0,0.0,0.0,0.0,0.0,0.0,0.0,0.0,0.0,0.0,0.0,0.0,0.0,0.0,-0.3201,-0.1838,-0.0588,0.0084,0.1346,0.2646,0.3953,0.4952,0.5418,0.5195,0.0,0.0,0.0,0.0,0.0,0.0,0.0,0.0,0.0,0.0,0.0,0.0,0.0,0.0,0.0,0.0,0.0,0.0,0.0,0.0,0.0,0.0,0.0,0.0,0.0,0.0,0.0,0.0,0.0,0.0,0.0,0.0,0.0,0.0,0.0,0.0,0.0,0.0,0.0,0.0,0.0,0.0,0.0,0.0,0.0,0.0,0.0,0.0,0.0,0.0,0.0,0.0,0.0,0.0,0.0,0.0,0.0,0.0,0.0,0.0,0.0,0.0,0.0,0.0,0.0,0.0,0.0,0.0,0.0,0.0,0.0,0.0,0.0,0.0,0.0,0.0,0.0,0.0,0.0,0.0,0.0,0.0,0.0,0.0,0.0,0.0,0.0,0.0,0.0,0.0,0.0,0.0,0.0,0.0,0.0,0.0,0.0,0.0,0.0,0.0,0.0,0.0,-0.1958,0.0179,0.1738,0.1446,0.2164,0.3099,0.4199,0.4934,0.5321,0.5314,0.0,0.0,0.0,0.0,0.0,0.0,0.0,0.0,0.0,0.0,0.0,0.0,0.0,0.0,0.0,0.0,0.0,0.0,0.0,0.0,0.0,0.0,0.0,0.0,0.0,0.0,0.0,0.0,0.0,0.0,0.0,0.0,0.0,0.0,0.0,0.0,0.0,0.0,0.0,0.0,0.0,0.0,0.0,0.0,0.0,0.0,0.0,0.0,0.0,0.0,0.0,0.0,0.0,0.0,0.0,0.0,0.0,0.0,0.0,0.0,0.5248,0.4789,0.0,0.0,0.0,0.0,0.0,0.0,0.0,0.0,0.0,0.0,0.0,0.0,0.0,0.0,0.0,0.0,0.0,0.0,0.0,0.0,0.0,0.0,0.0,0.0,0.0,0.0,0.0,0.0,0.0,0.0,0.0,0.0,0.0,0.0,0.0,0.0,0.0,0.0,0.0,0.0,-0.0992,0.0802,0.2172,0.2319,0.2725,0.3347,0.4228,0.4631,0.5003,0.5351,0.5353,0.0,0.0,0.0,0.0,0.0,0.0,0.0,0.0,0.0,0.0,0.0,0.0,0.0,0.0,0.0,0.0,0.0,0.0,0.0,0.0,0.0,0.0,0.0,0.0,0.0,0.0,0.0,0.0,0.0,0.0,0.0,0.0,0.0,0.0,0.0,0.0,0.0,0.0,0.0,0.0,0.0,0.0,0.0,0.0,0.0,0.0,0.0,0.0,0.0,0.0,0.0,0.0,0.0,0.0,0.0,0.0,0.0,0.0,0.0,0.6562,0.6241,0.0,0.0,0.0,0.0,0.0,0.0,0.0,0.0,0.0,0.0,0.0,0.0,0.0,0.0,0.0,0.0,0.0,0.0,0.0,0.0,0.0,0.0,0.0,0.0,0.0,0.0,0.0,0.0,0.0,0.0,0.0,0.0,0.0,0.0,0.0,0.0,0.0,0.0,0.0,0.0,-0.0326,0.1496,0.2832,0.2832,0.3226,0.3716,0.4252,0.4668,0.502,0.5336,0.5437,0.0,0.0,0.0,0.0,0.0,0.0,0.0,0.0,0.0,0.0,0.0,0.0,0.0,0.0,0.0,0.0,0.0,0.0,0.0,0.0,0.0,0.0,0.0,0.0,0.0,0.0,0.0,0.0,0.0,0.0,0.0,0.0,0.0,0.0,0.0,0.0,0.0,0.0,0.0,0.0,0.0,0.0,0.0,0.0,0.0,0.0,0.0,0.0,0.0,0.0,0.0,0.0,0.0,0.8088,0.8437,0.8579,0.8077,0.8108,0.8563,0.7943,0.8019,0.8508,0.7816,0.0,0.0,0.0,0.0,0.0,0.0,0.0,0.0,0.0,0.0,0.0,0.0,0.0,0.0,0.0,0.0,0.0,0.0,0.0,0.0,0.0,0.0,0.7099,0.8124,0.8317,0.7654,0.5375,0.0,0.0,0.0,0.0,0.0,0.0,0.0,0.0,0.0,0.0,0.0,0.0389,0.222,0.3478,0.326,0.364,0.4027,0.4354,0.4767,0.5117,0.5324,0.5575,0.5776,0.0,0.0,0.0,0.0,0.0,0.0,0.0,0.0,0.0,0.0,0.0,0.0,0.0,0.0,0.0,0.0,0.0,0.0,0.0,0.0,0.0,0.0,0.0,0.0,0.0,0.0,0.0,0.0,0.0,0.0,0.0,0.0,0.6078,0.5658,0.0,0.0,0.0,0.0,0.0,0.0,0.0,0.0,0.0,0.0,0.0,0.0,0.0,0.7057,0.7776,0.814,0.8299,0.8269,0.8676,0.8902,0.8928,0.8836,0.8846,0.8918,0.8822,0.0,0.847,0.9034,0.0,0.0,0.0,0.0,0.0,0.0,0.0,0.0,0.0,0.0,0.0,0.0,0.0,0.0,0.0,0.0,0.0,0.0,0.0,0.0,0.0,0.0,0.8785,0.8001,0.7576,0.727,0.6913,0.6702,0.6545,0.6434,0.5643,0.4763,0.0,0.0,0.0,0.0,0.0,0.0,0.159,0.2907,0.3828,0.3807,0.3869,0.4109,0.4606,0.4706,0.4962,0.5444,0.5399,0.557,0.606,0.6916,0.0,0.0,0.0,0.0,0.0,0.0,0.0,0.0,0.0,0.0,0.0,0.0,0.0,0.0,0.0,0.0,0.0,0.0,0.0,0.0,0.0,0.0,0.0,0.0,0.0,0.0,0.0,0.0,0.0,0.6317,0.6653,0.6381,0.65,0.6464,0.0,0.0,0.0,0.0,0.0,0.0,0.0,0.0,0.0,0.7887,0.8037,0.8359,0.8945,0.9534,0.9795,0.9805,1.0234,1.0479,1.0479,1.0479,1.0479,1.0479,1.0479,1.0213,0.9782,0.9415,0.8827,0.8259,0.0,0.0,0.0,0.0,0.8738,0.8634,0.948,0.97,0.9608,0.9791,0.0,0.0,0.0,0.0,0.0,0.0,0.0,0.8504,0.8098,0.8406,0.8779,0.851,0.8319,0.8154,0.7927,0.7542,0.7203,0.7019,0.6147,0.5301,0.4908,0.3823,0.0,0.0,0.0,0.2861,0.2761,0.3549,0.413,0.413,0.4273,0.4446,0.4686,0.4834,0.5088,0.5473,0.558,0.5888,0.647,0.6906,0.6913,0.0,0.0,0.0,0.0,0.0,0.0,0.0,0.0,0.0,0.0,0.0,0.0,0.0,0.0,0.0,0.0,0.0,0.0,0.0,0.0,0.0,0.0,0.0,0.0,0.0,0.0,0.0,0.0,0.6728,0.73,0.6924,0.7309,0.7297,0.0,0.0,0.0,0.0,0.0,0.0,0.7442,0.8021,0.8559,0.9038,0.9326,0.9697,1.0127,1.0762,1.1074,1.1084,1.1449,1.1606,1.1606,1.1606,1.1606,1.1606,1.1606,1.142,1.1008,1.0031,0.9467,0.9253,0.9781,0.9901,0.9813,0.9984,0.9932,0.9857,1.0273,1.0363,1.0325,1.0576,1.0269,0.9743,0.9401,0.0,0.0,0.0,0.0,0.8824,0.8777,0.8676,0.8613,0.8936,0.9004,0.8916,0.8603,0.8281,0.7881,0.7283,0.6478,0.5836,0.5664,0.4753,0.0,0.3751,0.3957,0.4087,0.3944,0.4401,0.4735,0.4735,0.4817,0.4899,0.499,0.5117,0.5291,0.5492,0.5789,0.6218,0.673,0.6885,0.7136,0.7517,0.0,0.0,0.0,0.0,0.0,0.0,0.0,0.0,0.0,0.0,0.0,0.0,0.0,0.0,0.0,0.0,0.0,0.0,0.0,0.0,0.0,0.0,0.0,0.0,0.0,0.0,0.0,0.0,0.0,0.6678,0.7934,0.0,0.0,0.0,0.0,0.8274,0.7901,0.8038,0.8861,0.895,0.9502,1.0742,1.0801,1.1025,1.1498,1.1547,1.1567,1.1577,1.1596,1.1606,1.1606,1.1606,1.1606,1.1606,1.1606,1.1596,1.1528,1.1419,1.0912,1.0299,1.0999,1.0888,1.0318,1.0627,1.0562,1.0318,1.0658,1.0781,1.0856,1.1384,1.0876,0.9967,0.947,0.8782,0.0,0.0,0.8582,0.8503,0.8891,0.8975,0.8975,0.9004,0.9004,0.9004,0.8975,0.8955,0.8564,0.7332,0.6695,0.629,0.6024,0.0,0.5684,0.5192,0.5555,0.5695,0.5191,0.558,0.5917,0.5917,0.5589,0.548,0.572,0.5583,0.5492,0.5492,0.5943,0.6312,0.66,0.7281,0.7541,0.732,0.7799,0.0,0.0,0.0,0.0,0.0,0.0,0.0,0.0,0.0,0.0,0.0,0.0,0.0,0.0,0.0,0.0,0.0,0.0,0.0,0.0,0.0,0.0,0.0,0.0,0.0,0.0,0.0,0.0,0.7337,0.8168,0.0,0.7694,0.8555,0.9057,0.8804,0.9402,0.9912,1.0215,1.0498,1.09,1.1351,1.1611,1.1836,1.1992,1.2266,1.2459,1.2459,1.2459,1.2459,1.2459,1.2459,1.2459,1.2459,1.2459,1.2459,1.2439,1.2421,1.1881,1.1145,1.1427,1.1386,1.1145,1.1261,1.1219,1.1145,1.1261,1.1293,1.1294,1.1206,1.0891,1.0596,1.0406,1.0143,1.0002,1.0438,1.0489,1.043,1.0264,1.0225,1.0156,0.9893,0.9834,0.9756,0.9473,0.9369,0.9189,0.8467,0.7754,0.7114,0.6764,0.6451,0.6202,0.5997,0.6129,0.6178,0.5997,0.6129,0.626,0.626,0.6127,0.6051,0.605,0.5993,0.5885,0.5767,0.6022,0.6242,0.6329,0.7136,0.7631,0.7755,0.7953,0.754,0.0,0.0,0.0,0.0,0.0,0.0,0.0,0.0,0.0,0.0,0.0,0.0,0.0,0.0,0.0,0.0,0.0,0.0,0.0,0.0,0.0,0.0,0.0,0.0,0.0,0.7775,0.844,0.8154,0.8902,0.9203,0.8623,0.9532,1.0076,0.9901,1.0654,1.1191,1.1348,1.1631,1.19,1.2047,1.2295,1.2451,1.2451,1.2734,1.2881,1.2881,1.2881,1.2881,1.2881,1.2881,1.2881,1.2881,1.2881,1.2881,1.2881,1.2881,1.2539,1.2057,1.2057,1.2057,1.2057,1.2057,1.1901,1.1655,1.1655,1.1714,1.1738,1.1445,1.125,1.1133,1.1133,1.1133,1.1191,1.1518,1.1606,1.1538,1.1201,1.1133,1.1064,1.0781,1.0605,1.042,1.0127,0.9914,0.9727,0.9297,0.861,0.8046,0.7793,0.7363,0.707,0.707,0.6953,0.683,0.683,0.683,0.683,0.683,0.6729,0.6646,0.667,0.6379,0.6232,0.6303,0.6235,0.6236,0.6336,0.6953,0.7488,0.7886,0.7941,0.7809,0.7504,0.0,0.0,0.0,0.0,0.0,0.0,0.0,0.0,0.0,0.0,0.0,0.0,0.0,0.0,0.0,0.0,0.0,0.0,0.0,0.0,0.0,0.0,0.0,0.7478,0.8572,0.9359,0.9116,1.0176,1.0771,1.0361,1.1126,1.1626,1.1626,1.1636,1.1787,1.218,1.22,1.2441,1.2871,1.2881,1.2881,1.2881,1.2881,1.2881,1.2881,1.2881,1.2881,1.2881,1.2881,1.2881,1.2881,1.2881,1.2881,1.2881,1.2881,1.2881,1.2881,1.2881,1.2881,1.2881,1.2881,1.2452,1.1814,1.1814,1.1976,1.22,1.22,1.1953,1.1645,1.1645,1.1645,1.1645,1.1645,1.1645,1.1645,1.1626,1.1626,1.1626,1.1606,1.123,1.0928,1.0928,1.0596,1.0176,0.9719,0.9326,0.9033,0.9014,0.8672,0.843,0.843,0.8037,0.0,0.7725,0.7715,0.7715,0.7695,0.7363,0.726,0.7587,0.6758,0.6487,0.7067,0.6553,0.6336,0.6582,0.6807,0.7164,0.772,0.7825,0.7961,0.8087,0.0,0.0,0.0,0.0,0.0,0.0,0.0,0.0,0.0,0.0,0.0,0.0,0.0,0.0,0.0,0.0,0.0,0.0,0.0,0.0,0.0,0.9406,0.984,0.907,0.9839,1.0577,1.0861,1.1214,1.1381,1.1263,1.1719,1.2051,1.2051,1.2344,1.2568,1.2695,1.2705,1.2754,1.2881,1.2881,1.2881,1.2881,1.2881,1.2881,1.2881,1.2881,1.2881,1.2881,1.2881,1.2881,1.2881,1.2881,1.2881,1.2881,1.2881,1.2881,1.2881,1.2881,1.2881,1.2881,1.2881,1.2774,1.2608,1.2608,1.2648,1.2705,1.2705,1.2617,1.252,1.252,1.252,1.252,1.252,1.252,1.2441,1.2129,1.2051,1.1963,1.1685,1.1518,1.143,1.143,1.1045,1.0703,1.0576,1.0215,0.9736,0.9111,0.8906,0.8838,0.8838,0.873,0.8545,0.8242,0.8203,0.8076,0.7734,0.7875,0.7955,0.7893,0.7529,0.7292,0.7321,0.6797,0.6517,0.6599,0.6931,0.746,0.8204,0.7806,0.7683,0.0,0.0,0.0,0.0,0.0,0.0,0.0,0.0,0.0,0.0,0.0,0.0,0.0,0.0,0.0,0.0,0.0,0.0,0.0,0.0,0.0,0.0,1.1444,1.1934,1.1538,1.1307,1.1466,1.2155,1.2004,1.1914,1.2145,1.2353,1.25,1.25,1.2744,1.2881,1.2881,1.2881,1.2881,1.2881,1.2881,1.2881,1.2881,1.2881,1.2881,1.2881,1.2881,1.2881,1.2881,1.2881,1.2881,1.2881,1.2881,1.2881,1.2881,1.2881,1.2881,1.2881,0.0,0.0,0.0,0.0,1.2618,1.2881,1.2559,1.2657,1.2881,1.2881,1.2881,1.2881,1.2881,1.2881,1.2881,1.2881,1.2881,1.2822,1.2568,1.25,1.2432,1.2224,1.1973,1.1836,1.1836,1.1494,1.1133,1.0947,1.0713,0.0,0.9929,0.9526,0.9268,0.9268,0.9121,0.8916,0.8672,0.8518,0.8281,0.8027,0.8174,0.8304,0.8334,0.809,0.0,0.0,0.0,0.6747,0.6611,0.6898,0.0,0.0,0.0,0.0,0.0,0.0,0.0,0.0,0.7812,0.7632,0.0,0.0,0.0,0.0,0.0,0.0,0.0,0.0,0.0,0.0,0.0,0.0,0.0,0.0,0.0,0.0,1.348,1.4093,1.4177,1.2813,1.2192,1.3062,1.2645,1.2451,1.2842,1.2881,1.2881,1.2881,1.2881,1.2881,1.2881,1.2881,0.0,0.0,0.0,1.2949,1.2949,1.2998,1.3027,1.3027,1.3027,1.3027,1.3018,1.2969,1.2949,1.2949,1.29,1.2881,1.2881,1.2881,1.2881,1.2881,1.2881,1.2881,1.2822,1.2187,1.2344,1.2822,1.2129,0.0,0.0,1.2881,1.2881,1.2881,1.2881,1.2881,1.2881,1.2881,1.2881,1.2881,1.2881,1.2881,1.2881,1.2881,1.2588,1.2305,1.2305,1.1953,1.1567,1.1207,1.1008,1.0944,1.1089,1.0318,0.9707,0.9734,0.942,0.9131,0.9082,0.8816,0.8592,0.8543,0.8528,0.0,0.8934,0.8558,0.8334,0.8402,0.7661,0.7115,0.6835,0.7001,0.7296,0.7702,0.79,0.8166,0.8575,0.8575,0.8878,0.9402,0.7644,0.7243,0.0,0.0,0.0,0.0,0.0,0.0,0.0,0.0,0.0,0.0,0.0,0.0,0.0,0.0,0.0,1.3578,1.4263,1.4619,1.4586,1.3893,1.3445,1.3621,1.3107,1.2783,1.2871,1.2881,1.2881,1.2881,1.2881,1.2881,1.2881,1.2881,1.2881,1.2881,1.3213,1.3389,1.3389,1.3721,1.3887,1.3887,1.3887,0.0,1.3877,1.3545,1.3389,1.3369,1.3027,1.2881,1.2881,1.2881,1.2881,1.2881,1.2881,1.2881,1.2881,1.2725,1.2774,1.2881,1.2725,1.2774,1.2881,1.2881,1.2881,1.2881,1.2881,1.2881,0.0,1.2881,1.2881,1.2881,1.2881,1.2881,1.2881,1.2881,1.2812,1.2754,1.2754,1.2412,1.2197,1.2614,1.1709,1.1084,1.1646,1.086,1.0299,1.0658,1.0333,0.9912,0.9515,0.9788,0.987,0.9495,0.9682,0.9857,0.9914,0.9312,0.8945,0.8939,0.838,0.8114,0.8219,0.8246,0.8509,0.9017,0.9072,0.9248,0.9604,0.9604,0.9665,0.9788,0.9149,0.9207,0.0,0.0,0.0,0.0,0.0,0.0,0.0,0.0,0.0,0.0,0.0,1.2099,1.3187,0.0,1.43,1.5098,1.5501,1.5629,1.562,1.5096,1.4503,1.3862,1.3286,1.2881,1.2881,1.2881,1.2881,1.2881,1.2881,1.2881,1.2881,1.3076,1.3193,1.3193,1.3603,1.3818,1.3818,1.398,1.4077,1.4077,1.4077,1.4077,1.4077,1.3863,1.3818,1.3809,1.3603,1.3506,1.3506,1.3506,1.3379,1.3193,1.3193,1.3066,1.2881,1.2881,1.2881,1.2881,1.2881,1.2881,1.2881,1.2881,1.2881,1.2881,1.2881,1.2881,1.2881,1.2881,1.2881,1.2881,1.2881,1.2881,1.2881,1.2881,1.3152,1.3324,1.3324,1.3377,1.3461,1.3575,1.3022,1.2614,1.2934,1.2145,1.133,1.105,1.0791,1.0568,1.0345,1.0376,1.0323,1.009,1.0375,1.0499,1.0207,0.9539,0.91,0.91,0.8587,0.8342,0.8444,0.8444,0.8628,0.8987,0.8987,0.9217,0.9644,0.9475,0.9667,1.0142,0.9976,0.999,0.0,0.0,0.0,0.0,0.0,0.0,0.0,1.1269,1.1722,1.2358,1.2786,1.3458,1.4828,1.5155,1.548,1.6371,1.6522,1.6479,1.6337,1.5908,1.5129,1.3956,1.3372,1.3017,1.2929,1.2881,1.291,1.2998,1.2998,1.3037,1.3125,1.3447,1.3633,1.3633,1.4043,1.4258,1.4258,1.4291,1.433,1.433,1.433,1.433,1.4321,1.4243,1.4258,1.4204,1.4116,1.4077,1.4077,1.4077,1.3936,1.3633,1.3633,1.3418,1.3105,1.2939,1.2881,1.2881,1.2881,1.2881,1.2881,1.2881,1.2881,1.2881,1.2881,1.2881,1.2881,1.2881,1.2881,1.2881,1.2881,1.2968,1.3055,1.3055,1.3563,1.3956,1.3956,1.4376,1.4631,1.4414,1.4223,1.4158,1.4244,1.3521,1.2546,1.16,1.1298,1.1169,1.1169,1.0949,1.0794,1.0794,1.1097,1.1033,1.0532,0.9923,0.9541,0.9403,0.9002,0.8725,0.8612,0.8612,0.8733,0.8943,0.902,0.9281,0.9767,0.9568,0.9876,1.0676,1.0613,1.0421,1.3175,1.2718,1.2091,1.2362,1.1921,1.1935,0.0,1.3766,1.348,1.4385,1.4979,1.5379,1.5567,1.6007,1.6371,1.6497,1.6522,1.6324,1.5776,1.5632,1.5129,1.3956,1.3732,1.3505,1.2978,1.2881,1.3037,1.3408,1.3437,1.3603,1.3975,1.398,1.4009,1.4009,1.4482,1.4717,1.4717,1.5088,1.5264,1.5264,1.5264,1.5264,1.5254,1.4883,1.4717,1.4687,1.4297,1.4077,1.4077,1.4077,1.4048,1.4009,1.4009,1.398,1.3906,1.3154,1.2881,1.2881,1.2881,1.2881,1.2881,1.2881,1.2881,1.2881,1.2881,1.2881,1.2881,1.2881,1.2881,1.2881,1.2881,1.3286,1.3684,1.3684,1.4154,1.4606,1.4606,1.4652,1.4869,1.5339,1.4713,1.4273,1.4797,1.4373,1.3717,1.3118,1.2278,1.17,1.17,1.2056,1.2271,1.2271,1.2265,1.2027,1.1477,1.1374,1.1086,1.0543,1.0456,1.0205,0.9742,0.973,0.988,1.0187,1.0488,1.0791,1.1094,1.1351,1.1525,1.1657,1.1344,1.1189,1.4446,1.4122,1.3443,1.3654,1.3763,1.3892,1.4346,1.4588,1.4879,1.5293,1.5793,1.617,1.617,1.6358,1.6522,1.6522,1.6522,1.6423,1.6151,1.6139,1.582,1.4949,1.4858,1.4318,1.3017,1.342,1.3691,1.3496,1.374,1.3945,1.4068,1.4375,1.4512,1.4512,1.4932,1.5146,1.5146,1.5322,1.541,1.541,1.541,1.541,1.54,1.5234,1.5375,1.5808,1.6045,1.6169,1.6169,1.6169,1.6009,1.5765,1.5339,1.5289,1.5277,1.4041,1.3457,1.3242,1.3242,1.3086,1.2881,1.2881,1.2881,1.2881,1.2881,1.2881,1.2881,1.2881,1.3152,1.342,1.342,1.3873,1.4329,1.4329,1.4778,1.5231,1.5231,1.5511,1.5832,1.6051,1.5794,1.5562,1.5819,1.5393,1.4974,1.4713,1.3521,1.2652,1.2652,1.2578,1.2615,1.2873,1.2597,1.2316,1.209,1.1776,1.1487,1.1236,1.1224,1.1123,1.0897,1.0885,1.0969,1.1097,1.1468,1.1815,1.2113,1.2288,1.2487,1.2673,1.2526,1.2462,1.5034,1.4927,1.4587,1.4888,1.5261,1.544,1.4891,1.5341,1.5919,1.5919,1.6233,1.6522,1.6522,1.6522,1.6522,1.6522,1.666,1.676,1.676,1.676,1.6516,1.5891,1.586,1.5186,1.3563,1.4003,1.4214,1.3714,1.4072,1.4365,1.4428,1.4785,1.4961,1.4961,1.5254,1.5469,1.5586,1.5811,1.5928,1.5879,1.6161,1.6032,1.569,1.569,1.6083,1.681,1.7357,1.7578,1.7578,1.7578,1.7431,1.7106,1.6569,1.6523,1.6591,1.5478,1.4599,1.4022,1.4226,1.3962,1.3531,1.3606,1.3614,1.3593,1.3423,1.3382,1.3382,1.3382,1.3695,1.405,1.405,1.4514,1.4971,1.4971,1.541,1.5864,1.5864,1.6194,1.6522,1.6522,1.6522,1.6522,1.6522,1.6183,1.5919,1.5919,1.4787,1.3893,1.3748,1.3265,1.2996,1.3176,1.2847,1.2609,1.2609,1.2266,1.1977,1.1826,1.1814,1.1799,1.1767,1.1755,1.1801,1.1936,1.2298,1.2636,1.2884,1.3006,1.3193,1.3443,1.3443,1.3531,1.4593,1.4567,1.506,1.5868,1.5865,1.5806,1.6321,1.6471,1.6497,1.6497,1.6509,1.6522,1.6522,1.6522,1.6522,1.6522,1.6986,1.735,1.735,1.735,1.7099,1.6441,1.6414,1.5976,1.4744,1.4516,1.4287,1.4082,1.4521,1.4941,1.5352,1.5381,1.5391,1.5391,1.54,1.5615,1.6096,1.6915,1.7259,1.7162,1.8027,1.7717,1.6492,1.6492,1.6866,1.7578,1.7578,1.7578,1.7578,1.7578,1.7567,1.7556,1.7556,1.7544,1.7533,1.7533,1.6482,1.5266,1.6065,1.5789,1.5171,1.5366,1.5415,1.5325,1.4797,1.4663,1.4663,1.4663,1.4663,1.4652,1.4652,1.5096,1.5588,1.5588,1.6051,1.6466,1.6466,1.6479,1.6522,1.6522,1.6522,1.6522,1.6522,1.6509,1.6497,1.6497,1.6007,1.5454,1.4915,1.4362,1.3822,1.3248,1.3185,1.3173,1.3173,1.316,1.2922,1.2416,1.2391,1.2316,1.2195,1.2168,1.2384,1.276,1.3099,1.3257,1.3284,1.3602,1.3784,1.3784,1.3784,1.4128,1.6029,1.5991,1.5855,1.6587,1.6481,1.6283,1.6471,1.6522,1.6522,1.6522,1.6522,1.6522,1.6522,1.6522,1.6522,1.6522,1.6999,1.7388,1.7388,1.7702,1.7743,1.7115,1.7389,1.7143,1.5962,1.5716,1.5601,1.5483,1.5892,1.6155,1.612,1.6585,1.6415,1.541,1.6155,1.6446,1.6115,1.7245,1.7754,1.7764,1.8581,1.8787,1.8386,1.8521,1.8698,1.8951,1.9042,1.9044,1.9044,1.9044,1.9044,1.898,1.8501,1.8608,1.898,1.8501,1.8012,1.7443,1.699,1.6457,1.6003,1.6097,1.609,1.6,1.5395,1.5238,1.5171,1.4799,1.4971,1.5276,1.5276,1.5732,1.6194,1.6194,1.6337,1.6522,1.6522,1.6522,1.6522,1.6522,1.6522,1.6522,1.6522,1.6522,1.6522,1.6522,1.6045,1.5492,1.4979,1.4739,1.4425,1.3871,1.3808,1.3634,1.3223,1.3198,1.3123,1.2935,1.3231,1.337,1.3332,1.3587,1.3802,1.394,1.4297,1.4486,1.4486,1.4929,1.5139,1.5139,1.5139,1.5259,1.6981,1.6775,1.6309,1.7243,1.6954,1.6522,1.6522,1.6522,1.6522,1.6522,1.6358,1.6283,1.6441,1.6195,1.612,1.6722,1.7137,1.7513,1.7915,1.8279,1.8367,1.8016,1.8103,1.79,1.7142,1.6977,1.6823,1.6514,1.6841,1.7104,1.7216,1.7678,1.7586,1.6846,1.7562,1.7796,1.7471,1.8559,1.926,1.9561,1.9618,1.9831,2.0064,1.9963,2.0033,2.0299,2.0391,2.0401,2.0388,2.0188,2.0112,2.0035,1.934,1.9359,1.9747,1.9254,1.9097,1.8996,1.823,1.7653,1.7248,1.7287,1.7329,1.7234,1.6644,1.6479,1.6326,1.581,1.5942,1.6207,1.5969,1.6194,1.6522,1.6522,1.6522,1.6522,1.6522,1.6522,1.6522,1.6522,1.6522,1.6522,1.6522,1.6522,1.6522,1.6522,1.622,1.5793,1.5229,1.5205,1.4991,1.4437,1.4387,1.4197,1.3769,1.3753,1.3732,1.3661,1.3967,1.4181,1.431,1.4596,1.4783,1.4968,1.5225,1.5359,1.5359,1.5639,1.5799,1.5799,1.5799,1.5799,1.7479,1.7039,1.6601,1.7857,1.7393,1.6633,1.6633,1.662,1.6582,1.6557,1.6074,1.5847,1.6338,1.5595,1.5444,1.7036,1.7363,1.7802,1.8833,1.9033,1.9095,1.9021,1.8656,1.8367,1.8329,1.8355,1.8069,1.7311,1.7506,1.7979,1.8578,1.86,1.8826,1.929,1.9335,1.9561,1.9902,2.0803,2.1618,2.2347,2.1107,2.0921,2.1568,2.0827,2.0885,2.1531,2.1493,2.1493,2.1443,2.097,2.0756,2.0706,2.01,1.9886,1.9886,1.9861,1.9849,1.9849,1.9811,1.9359,1.8802,1.897,1.9021,1.897,1.8405,1.8242,1.8129,1.7576,1.7426,1.7287,1.671,1.6559,1.6559,1.6522,1.6522,1.6522,1.6522,1.6522,1.6522,1.6522,1.6522,1.6522,1.6522,1.6522,1.6522,1.6522,1.6522,1.6333,1.5806,1.5731,1.557,1.5043,1.4953,1.4904,1.4783,1.4779,1.47,1.4594,1.4616,1.4805,1.5147,1.5178,1.5388,1.5799,1.5799,1.5799,1.5799,1.5799,1.5799,1.5799,1.5829,1.5858,1.8157,1.8688,1.9016,1.9344,1.8946,1.8438,1.8438,1.8058,1.7545,1.7061,1.6281,1.5578,1.5229,1.5044,1.518,1.5994,1.7174,1.8242,1.8932,1.9736,2.0087,1.966,2.0225,2.0489,2.0075,2.0413,2.0594,2.0391,1.9646,1.9455,1.9887,2.0459,2.0292,1.9301,2.0132,2.0326,1.9902,2.1105,2.2116,2.2865,2.2596,2.2521,2.2639,2.2097,2.1923,2.2083,2.1669,2.1493,2.1481,2.1343,2.128,2.1267,2.1117,2.1054,2.1004,2.0602,2.0451,2.0388,1.9949,1.9695,1.9515,1.9597,1.961,1.951,1.8982,1.8819,1.8706,1.8154,1.8003,1.7865,1.73,1.7162,1.7049,1.6622,1.6522,1.6522,1.6522,1.6522,1.6522,1.6522,1.6522,1.6522,1.6522,1.6522,1.6522,1.6522,1.6522,1.6471,1.6321,1.6308,1.6249,1.6101,1.5747,1.5634,1.6011,1.5685,1.5582,1.5958,1.625,1.625,1.5854,1.6136,1.6144,1.5814,1.5799,1.5799,1.5799,1.5799,1.5799,1.5814,1.6263,1.6458,1.9248,1.9941,2.033,2.033,1.9721,1.9017,1.8739,1.7887,1.7026,1.6386,1.5313,1.4435,1.4301,1.421,1.4488,1.553,1.6898,1.8129,1.892,1.9974,2.0592,2.0225,2.0953,2.1368,2.1054,2.1305,2.1594,2.1832,2.1041,2.0752,2.121,2.1617,2.1601,2.0986,2.1584,2.1729,2.1292,2.2042,2.2641,2.3078,2.3078,2.3078,2.3065,2.2811,2.2673,2.2661,2.2347,2.2209,2.2184,2.1945,2.1845,2.1832,2.1581,2.1493,2.1443,2.1142,2.1029,2.0978,2.0652,2.0388,2.0137,1.9886,1.9798,1.9748,1.9459,1.9359,1.9258,1.8719,1.8568,1.8442,1.789,1.7739,1.7601,1.7036,1.6898,1.6823,1.6572,1.6522,1.6552,1.6795,1.6837,1.6909,1.7146,1.7188,1.7188,1.7188,1.7188,1.7188,1.7188,1.6795,1.6596,1.6823,1.6595,1.6599,1.7078,1.6842,1.6767,1.7021,1.7223,1.7195,1.6811,1.7003,1.6965,1.6637,1.6623,1.6623,1.6623,1.6623,1.6623,1.6637,1.6965,1.7145,2.0391,2.0917,2.1119,2.1119,2.031,1.9357,1.8672,1.7469,1.6264,1.5499,1.4088,1.3103,1.3414,1.3308,1.367,1.5216,1.6484,1.7677,1.8869,1.9974,2.0743,2.0819,2.133,2.1707,2.1707,2.1707,2.1907,2.2385,2.1983,2.192,2.2397,2.2422,2.2636,2.3065,2.3078,2.3078,2.3078,2.3078,2.3078,2.3078,2.3078,2.3078,2.3078,2.3078,2.3078,2.3078,2.3078,2.3078,2.3027,2.2623,2.2422,2.2372,2.1895,2.1707,2.1694,2.1631,2.1594,2.1594,2.1506,2.1179,2.0731,2.01,1.9861,1.9798,1.9798,1.9798,1.971,1.9258,1.9133,1.8958,1.8455,1.8317,1.8179,1.7614,1.7488,1.735,1.6848,1.6728,1.6842,1.7256,1.7353,1.7544,1.7947,1.8066,1.8106,1.8106,1.8106,1.8106,1.8106,1.7312,1.6909,1.7463,1.7463,1.7623,1.8079,1.8072,1.8033,1.7948,1.7984,1.7921,1.7832,1.7817,1.7772,1.7697,1.7697,1.7697,1.7697,1.7697,1.7697,1.7697,1.7772,1.7817,2.038,2.155,2.2364,2.2364,2.2069,2.1554,2.0849,1.9449,1.7928,1.6405,1.4743,1.3272,1.2387,1.2628,1.3251,1.421,1.5643,1.7225,1.8807,1.9974,2.084,2.1292,2.2234,2.2849,2.2849,2.2849,2.2887,2.2927,2.2912,2.2887,2.2987,2.2927,2.2977,2.3078,2.3078,2.3078,2.3078,2.3078,2.3078,2.3078,2.3078,2.3078,2.3078,2.3078,2.3078,2.3078,2.3078,2.3078,2.3065,2.3025,2.2927,2.2975,2.2887,2.2849,2.2799,2.2334,2.2171,2.2108,2.1644,2.143,2.1255,2.069,2.0188,1.9798,1.9798,1.9798,1.9786,1.9698,1.966,1.9547,1.902,1.8833,1.8744,1.8191,1.8066,1.8028,1.794,1.7888,1.7791,1.7376,1.7666,1.7867,1.7504,1.7827,1.8106,1.8106,1.8106,1.8106,1.8106,1.7947,1.8027,1.8574,1.8224,1.8338,1.933,1.8972,1.8914,1.931,1.9346,1.9091,1.8553,1.8538,1.8283,1.7697,1.7697,1.7697,1.7697,1.7697,1.7697,1.7697,1.8283,1.8538,2.1006,2.2173,2.3155,2.3056,2.2631,2.1889,2.0309,1.8805,1.7205,1.5294,1.3697,1.2484,1.1887,1.2403,1.311,1.3783,1.5119,1.6672,1.8367,1.9535,2.0539,2.1393,2.246,2.3078,2.3078,2.3078,2.3078,2.3078,2.3414,2.3452,2.309,2.3427,2.359,2.359,2.3866,2.4017,2.4017,2.4017,2.3866,2.359,2.359,2.3427,2.3078,2.3078,2.3078,2.3078,2.3078,2.3078,2.3078,2.3078,2.3078,2.3078,2.3078,2.3078,2.304,2.2836,2.2736,2.2698,2.2435,2.2159,2.187,2.1606,2.0941,2.02,1.9899,1.9798,1.9798,1.9798,2.0055,2.0244,1.9986,2.0191,2.0263,1.9754,1.9383,1.9216,1.9216,1.9212,1.908,1.8713,1.8885,1.8931,1.8592,1.8765,1.893,1.893,1.893,1.893,1.893,1.893,1.893,1.8893,1.865,1.8855,1.9639,1.9442,1.9442,1.969,1.969,1.954,1.9226,1.9211,1.9076,1.8747,1.8747,1.8747,1.8747,1.8747,1.8747,1.8747,1.9076,1.9211,2.156,2.2622,2.3558,2.3329,2.2863,2.1822,1.9461,1.7931,1.6378,1.4165,1.2739,1.1849,1.1707,1.2295,1.2966,1.3605,1.4697,1.609,1.794,1.9133,2.0225,2.1355,2.246,2.3128,2.3314,2.3314,2.3364,2.3489,2.3916,2.3966,2.3466,2.3929,2.4167,2.4167,2.4594,2.482,2.482,2.482,2.4607,2.4167,2.4167,2.3941,2.3489,2.3376,2.3314,2.3314,2.3188,2.3078,2.3078,2.3078,2.3078,2.3078,2.3078,2.3078,2.3078,2.3078,2.3078,2.3078,2.3078,2.279,2.2472,2.2347,2.1644,2.0752,2.03,2.0075,1.9987,1.9987,2.0398,2.0795,2.0795,2.1245,2.1586,2.119,2.0765,2.042,2.044,2.0441,2.0401,2.0163,2.0107,2.0002,1.979,1.9707,1.969,1.969,1.969,1.969,1.969,1.969,1.953,1.9132,1.908,1.9244,1.9639,1.969,1.969,1.969,1.969,1.969,1.969,1.969,1.969,1.969,1.969,1.969,1.969,1.969,1.969,1.969,1.969,1.9747,2.156,2.2622,2.3558,2.3329,2.313,2.2296,1.9832,1.8443,1.6998,1.4552,1.3229,1.2345,1.1806,1.2018,1.2581,1.3539,1.4206,1.5466,1.7874,1.9133,2.0225,2.1355,2.246,2.3339,2.3866,2.3916,2.413,2.4632,2.472,2.472,2.4669,2.472,2.4745,2.4745,2.4795,2.482,2.482,2.482,2.4795,2.4745,2.4745,2.472,2.4657,2.4155,2.3916,2.3891,2.3364,2.3078,2.3078,2.3078,2.3078,2.3078,2.3078,2.3078,2.3078,2.3078,2.3078,2.3078,2.3078,2.304,2.2975,2.2472,2.1895,2.1405,2.1343,2.0978,2.0643,2.0643,2.072,2.0795,2.0795,2.1245,2.1697,2.1641,2.1586,2.1532,2.1568,2.1541,2.1399,2.0907,2.0705,2.0487,1.9972,1.9782,1.969,1.969,1.969,1.969,1.969,1.969,1.969,1.9639,1.9639,1.9639,1.969,1.969,1.969,1.969,1.969,1.969,1.969,1.969,1.969,1.969,1.969,1.969,1.969,1.969,1.969,1.969,1.969,1.9909,2.1431,2.2566,2.3431,2.3192,2.3275,2.2525,1.9173,1.8094,1.7028,1.4251,1.3104,1.2517,1.2289,1.2231,1.249,1.3364,1.3538,1.4278,1.6388,1.735,1.848,2.0263,2.1757,2.3,2.3916,2.4305,2.4707,2.5247,2.5285,2.5435,2.5787,2.5473,2.5285,2.5285,2.5624,2.5799,2.5799,2.5799,2.5636,2.5285,2.5285,2.5121,2.4808,2.4594,2.4494,2.4481,2.4255,2.3954,2.3653,2.3653,2.3452,2.3078,2.3078,2.3078,2.3078,2.3078,2.3078,2.3078,2.3078,2.3078,2.3148,2.3392,2.3334,2.308,2.2367,2.2003,2.1929,2.2378,2.2821,2.3042,2.263,2.2662,2.2831,2.2831,2.2831,2.2863,2.2863,2.2848,2.2671,2.2093,2.1947,2.1729,2.1074,2.095,2.0887,2.0887,2.0557,2.0303,2.0303,1.9944,1.969,1.969,1.969,1.969,1.969,1.969,1.969,1.969,1.969,1.969,1.969,1.969,1.969,1.969,1.969,1.969,1.969,1.969,1.9803,2.0054,2.0054,2.0296,2.1197,2.2325,2.3032,2.2904,2.3125,2.2401,1.8639,1.7811,1.6965,1.4023,1.2962,1.261,1.261,1.2477,1.2613,1.3293,1.3507,1.4128,1.5724,1.6559,1.7652,1.9371,2.0903,2.2334,2.3615,2.4695,2.546,2.5824,2.585,2.6025,2.6508,2.6076,2.585,2.585,2.6251,2.6533,2.6533,2.6533,2.6319,2.585,2.585,2.5661,2.531,2.5134,2.5059,2.5046,2.4895,2.4607,2.4243,2.4243,2.4004,2.3615,2.3452,2.3389,2.3364,2.3201,2.3078,2.3078,2.3078,2.3078,2.3245,2.406,2.4292,2.4249,2.3879,2.35,2.3298,2.381,2.4311,2.4626,2.4334,2.422,2.4148,2.3939,2.3909,2.3849,2.364,2.3595,2.3475,2.3041,2.2802,2.2532,2.2069,2.1829,2.1695,2.1695,2.1306,2.1006,2.1006,2.0587,2.0273,2.0273,2.0109,1.9914,1.9705,1.969,1.969,1.969,1.969,1.969,1.969,1.9803,1.9818,1.969,1.9818,1.9818,1.969,1.9818,2.0035,2.0314,2.0449,2.0748,2.091,2.179,2.2368,2.2557,2.2604,2.176,1.8538,1.7811,1.6965,1.4023,1.2962,1.261,1.261,1.271,1.2927,1.3338,1.4419,1.5488,1.6355,1.7476,1.8405,1.892,2.0012,2.133,2.2927,2.5146,2.6508,2.6521,2.6521,2.6521,2.6533,2.6521,2.6521,2.6521,2.6533,2.6533,2.6533,2.6533,2.6533,2.6521,2.6521,2.6521,2.6496,2.585,2.5586,2.5561,2.5046,2.482,2.4808,2.4808,2.4808,2.4745,2.4205,2.3991,2.3916,2.3339,2.3078,2.3078,2.3078,2.3078,2.3245,2.406,2.4292,2.4567,2.6,2.5533,2.4498,2.4498,2.4586,2.4839,2.5444,2.56,2.542,2.4731,2.4567,2.4388,2.3744,2.3595,2.3595,2.3595,2.3101,2.2724,2.2709,2.2128,2.1695,2.1695,2.1695,2.168,2.168,2.168,2.168,2.168,2.1096,2.0423,1.975,1.969,1.969,1.969,1.969,1.969,1.969,2.0089,2.0089,1.9726,2.0089,2.0089,1.969,2.0089,2.0314,2.0314,2.0797,2.1213,1.8483,1.9497,2.0199,1.9691,2.0213,2.0032,1.699,1.6678,1.6339,1.3904,1.3121,1.2815,1.263,1.2484,1.2737,1.3789,1.4287,1.4844,1.584,1.725,1.8543,1.9447,2.2209,2.4393,2.5322,2.6118,2.6533,2.6533,2.6533,2.6533,2.6533,2.6533,2.6533,2.6533,2.6533,2.6533,2.6533,2.6533,2.6533,2.6533,2.6533,2.6533,2.6521,2.6264,2.6189,2.6176,2.6013,2.5724,2.536,2.536,2.5146,2.4808,2.4632,2.433,2.3979,2.3791,2.3477,2.3198,2.3708,2.3943,2.4105,2.5398,2.5783,2.6,2.6982,2.6614,2.5969,2.6491,2.6306,2.6016,2.6225,2.5944,2.5555,2.5345,2.53,2.5241,2.5016,2.4627,2.4253,2.4253,2.3759,2.331,2.331,2.3131,2.2996,2.2996,2.2637,2.2368,2.2368,2.1979,2.1695,2.1695,2.1515,2.1111,2.0438,1.9959,1.969,1.969,1.969,1.969,1.969,2.0089,2.0246,2.0124,2.055,2.0731,2.0599,2.0731,2.091,2.1197,2.1675,2.1945,1.7039,1.7963,1.8496,1.8153,1.8609,1.8532,1.6153,1.595,1.5694,1.3663,1.3033,1.2759,1.2494,1.2507,1.2854,1.3694,1.4488,1.5211,1.5865,1.7434,1.8986,2.0315,2.3138,2.5222,2.5787,2.6214,2.6533,2.6533,2.6533,2.6533,2.6533,2.6533,2.6533,2.6533,2.6533,2.6533,2.6533,2.6533,2.6533,2.6533,2.6533,2.6533,2.6533,2.6533,2.6533,2.6533,2.6533,2.6319,0.0,2.5925,2.5737,2.5476,2.5575,2.5397,2.5126,2.5192,2.4988,2.478,2.5253,2.5428,2.5602,2.6859,2.7273,2.7363,2.7846,2.7462,2.6982,2.7458,2.7275,2.6961,2.6961,2.6662,2.6288,2.6033,2.5974,2.5914,2.5659,2.5285,2.5001,2.5001,2.4462,2.3984,2.3984,2.3774,2.3595,2.3595,2.3266,2.3026,2.3026,2.2667,2.2413,2.2413,2.2203,2.1969,2.1751,2.0926,2.0535,2.0688,2.074,2.0676,2.0593,2.0994,2.1001,2.055,2.1023,2.115,2.0991,2.115,2.1446,2.1869,2.2449,2.2733,0.0,1.6928,1.7106,1.7418,1.754,1.7202,1.5764,1.5477,0.0,1.3348,1.2797,1.2565,1.2391,1.2832,1.3267,1.3496,1.517,1.645,1.6533,1.8201,1.9953,2.1574,2.3248,2.4431,2.4895,2.5862,2.6533,2.6533,2.6533,2.6533,2.6533,2.6533,2.6533,2.6533,2.6533,2.6533,2.6533,2.6533,2.6533,2.6533,2.6533,2.6533,2.6533,2.6533,2.6533,2.6533,2.6589,2.6589,2.6589,2.6658,2.6658,2.6731,2.6961,2.7033,2.7053,2.7262,2.7371,2.7329,2.7388,2.7388,2.7505,2.8211,2.8546,2.8667,2.8667,2.8158,2.7625,2.7625,2.7625,2.7625,2.7625,2.7625,2.746,2.6811,2.6662,2.6497,2.5884,2.5704,2.5674,2.5674,2.5151,2.4657,2.4657,2.4163,2.3729,2.3684,2.367,2.3655,2.361,2.3595,2.3595,2.3595,2.3086,2.2959,2.3405,2.2413,2.1963,2.2434,2.2471,2.2357,2.2194,2.2557,2.2295,2.1231,2.1593,2.1624,2.1247,2.1608,2.2049,2.2479,2.3156,2.3477,1.3258,0.0,1.5023,1.4545,1.4868,1.5054,0.0,1.4344,1.4422,1.3249,1.2942,1.308,1.3619,1.351,1.408,1.6341,1.7227,1.7923,1.8831,2.1376,2.3511,2.4532,2.5923,2.662,2.6131,2.637,2.6533,2.6533,2.6533,2.6533,2.6533,2.6533,2.6533,2.6533,2.6533,2.6533,2.6533,2.6533,2.6533,2.6533,2.6533,2.6533,2.6533,2.6533,2.6533,2.6521,2.7162,2.7417,2.7484,2.8117,2.8427,2.8414,2.847,2.8255,2.7893,2.8,2.7686,2.7388,2.7982,2.8154,2.8282,2.9083,2.9352,2.934,2.934,2.8517,2.7625,2.7625,2.7625,2.7625,2.7625,2.7625,2.758,2.743,2.7335,2.7305,2.7141,2.6722,2.6363,2.6363,2.5824,2.5375,2.5375,2.5241,2.4971,2.4462,2.4343,2.4193,2.367,2.3595,2.3595,2.3595,2.3475,2.361,2.4116,2.2979,2.2471,2.298,2.3016,2.3007,2.2951,2.3374,2.349,2.3227,2.3627,2.3782,2.3689,2.3782,2.389,2.3985,2.4167,2.4222,1.1809,1.3411,1.4919,1.4496,1.4716,1.4864,1.4349,1.4011,1.3584,1.2799,1.2863,1.3278,1.3903,1.4098,1.4862,1.6992,1.7943,1.9087,2.1013,2.302,2.4684,2.6065,2.6747,2.7095,2.704,2.6714,2.6658,2.704,2.734,2.7378,2.7053,2.734,2.7288,2.6911,2.6841,2.6716,2.6533,2.6716,2.6703,2.6533,2.7092,2.7272,2.704,2.7484,2.767,2.767,2.8117,2.8298,2.8298,2.8812,2.9002,2.9066,2.9442,2.9431,2.9195,2.9571,2.9534,2.9276,2.9709,2.9839,2.9896,3.035,3.0253,2.9998,2.9998,2.9295,2.8427,2.8128,2.7814,2.7625,2.7625,2.7625,2.7625,2.7625,2.7625,2.7625,2.7625,2.729,2.7036,2.7036,2.6512,2.6063,2.6063,2.5809,2.5495,2.5136,2.5076,2.4941,2.4567,2.4268,2.4073,2.4073,2.3975,2.4184,2.4712,2.4328,2.4193,2.446,2.4495,2.4419,2.4297,2.4564,2.4512,2.4178,2.4382,2.4506,2.4506,2.4506,2.4506,2.4523,2.4831,2.5,1.1668,1.3735,1.5768,1.5452,1.5536,1.559,1.5209,1.4218,1.3245,1.2759,1.3173,1.3804,1.4285,1.5008,1.5951,1.7311,1.8775,2.0683,2.3495,2.4219,2.5102,2.6814,2.6812,2.6943,2.7602,2.7033,2.7003,2.7933,2.8516,2.865,2.8213,2.8718,2.8657,2.7864,2.7864,2.7646,2.7161,2.7507,2.7437,2.698,2.8271,2.8638,2.8252,2.8957,2.9223,2.914,2.9253,2.9275,2.9192,2.9317,2.938,2.9442,3.0208,3.0464,3.0584,3.1219,3.1482,3.1482,3.1482,3.1482,3.1482,3.1482,3.1135,3.0657,3.0657,3.0223,2.9609,2.9041,2.8397,2.791,2.7754,2.7724,2.7745,2.764,2.7625,2.7625,2.7625,2.7625,2.7625,2.7625,2.7126,2.6737,2.6737,2.6369,2.5963,2.5779,2.5937,2.5938,2.574,2.5319,2.5016,2.5016,2.4945,2.5107,2.5619,2.6052,2.6379,2.6452,2.6253,2.5979,2.5762,2.5778,2.5473,2.4862,2.4845,2.4845,2.4845,2.4845,2.4845,2.4862,2.5473,2.5778,1.3209,1.5225,1.6515,1.471,1.5192,1.5868,1.4908,1.4922,1.5058,1.4798,1.5237,1.5945,1.6923,1.7242,1.8149,2.0572,2.2328,2.4348,2.7117,2.6904,2.6737,2.7459,2.7551,2.7478,2.7373,2.7226,2.7742,2.9092,2.9336,2.9682,3.0455,3.0604,3.0593,3.0458,3.0458,3.0417,3.0321,2.9544,2.914,2.9061,3.0147,3.0538,3.0522,3.0654,3.0377,2.9892,3.058,3.0606,3.0133,3.0837,3.1087,3.1146,3.1278,3.1351,3.1351,3.1467,3.1482,3.1482,3.1482,3.1482,3.1482,3.1482,3.1407,3.1375,3.1375,3.0911,3.0342,3.0238,2.9759,2.9146,2.8592,2.8442,2.8293,2.7709,2.7625,2.7625,2.7625,2.7625,2.7625,2.7625,2.7535,2.7475,2.7475,2.7799,2.7684,2.6609,2.7318,2.7592,2.6512,2.6718,2.6978,2.6978,2.6965,2.7163,2.7695,2.7828,2.8052,2.8511,2.7297,2.6573,2.6539,2.6522,2.6471,2.6353,2.6353,2.6353,2.6353,2.6353,2.6353,2.6353,2.6471,2.6522,1.2123,1.4333,1.6168,1.4963,1.6143,1.7444,1.6806,1.6222,1.5763,1.5567,1.6303,1.7226,1.8074,1.9148,2.0734,2.3316,2.4722,2.6119,2.8003,2.7864,2.7952,2.8996,2.8502,2.829,2.8635,2.8552,2.8978,3.0105,3.1034,3.1548,3.1622,3.1999,3.197,3.1417,3.1417,3.1584,3.1834,3.1917,3.1378,3.0337,3.1562,3.1948,3.1673,3.2141,3.2188,3.1913,3.2288,3.2264,3.2031,3.202,3.2063,3.2018,3.1616,3.1482,3.1482,3.1482,3.1482,3.1482,3.1482,3.1482,3.1482,3.1482,3.1482,3.1482,3.1482,3.1258,3.1061,3.1061,3.0342,2.9505,2.9205,2.9131,2.9041,2.8727,2.8382,2.8128,2.8128,2.7844,2.7625,2.7625,2.7625,2.7625,2.7625,2.781,2.7788,2.7205,2.7618,2.786,2.7597,2.7525,2.7581,2.7923,2.7875,2.7945,2.8157,2.846,2.8535,2.8383,2.7689,2.7114,2.6708,2.6691,2.6691,2.6691,2.6691,2.6691,2.6691,2.6691,2.6691,2.6691,2.6691,2.6691,1.1662,1.3678,1.5652,1.5564,1.7021,1.8507,1.8671,1.7777,1.7015,1.7344,1.8298,1.9211,1.957,2.1261,2.3392,2.5792,2.6718,2.7595,2.8768,2.8619,2.8904,3.0337,2.9532,2.9188,3.0168,3.0133,3.0458,3.1483,3.2687,3.3237,3.2969,3.3471,3.3388,3.2687,3.2687,3.2845,3.3255,3.3959,3.347,3.1713,3.3039,3.3434,3.3004,3.3684,3.3873,3.3724,3.3724,3.3649,3.3455,3.2961,3.2736,3.2677,3.2018,3.1616,3.1482,3.1482,3.1482,3.1482,3.1482,3.1482,3.1482,3.1482,3.1482,3.1482,3.1482,3.1482,3.1482,3.1482,3.0806,2.9998,2.9834,2.9804,2.9759,2.9609,2.9205,2.8831,2.8831,2.8553,2.8314,2.8314,2.8278,2.8256,2.8256,2.8266,2.8158,2.8027,2.8255,2.8575,2.8873,2.8614,2.8531,2.9004,2.8959,2.8882,2.8882,2.9278,2.9178,2.8399,2.8197,2.7841,2.7249,2.7232,2.7232,2.7232,2.7232,2.7232,2.7232,2.7232,2.7232,2.7232,2.7232,2.7232,1.3913,1.479,1.5468,1.6383,1.7057,1.788,1.928,1.9536,1.9966,2.1839,2.2712,2.3011,2.2488,2.3999,2.5942,2.7885,2.8728,2.9609,3.1056,2.994,2.9471,3.0955,3.0375,3.0342,3.1529,3.1613,3.2221,3.3636,3.3858,3.4307,3.5225,3.5335,3.5285,3.5219,3.5219,3.5234,3.5279,3.5359,3.4861,3.3815,3.4817,3.527,3.529,3.5355,3.5011,3.4412,3.4412,3.4053,3.3499,3.344,3.3425,3.3365,3.2706,3.2078,3.1482,3.1482,3.1482,3.1482,3.1482,3.1482,3.1482,3.1482,3.1482,3.1482,3.1482,3.1482,3.1482,3.1482,3.1407,3.124,3.0612,3.0432,3.0298,2.9714,2.9549,2.9505,2.9505,2.9999,3.037,3.037,3.032,3.0304,3.0304,3.0182,2.9935,2.9361,3.0208,3.074,3.0251,3.0608,3.0931,3.0971,3.0977,3.0982,3.0982,3.1038,3.0717,2.9989,2.9279,2.8873,2.8822,2.8822,2.8822,2.8822,2.8822,2.8822,2.8822,2.8822,2.8822,2.8822,2.8822,2.8822,1.2505,1.4101,1.5669,1.6038,1.7513,1.9091,2.0085,2.0647,2.15,2.349,2.4073,2.4418,2.5001,2.6048,2.7375,2.8912,2.967,3.0391,3.1377,3.097,3.0937,3.1898,3.1599,3.1673,3.2539,3.2965,3.3414,3.3945,3.461,3.5133,3.5504,3.5504,3.5504,3.5504,3.5504,3.5504,3.5504,3.5504,3.5294,3.492,3.5294,3.5504,3.5504,3.5504,3.537,3.5115,3.5115,3.4981,3.4711,3.4277,3.4098,3.3993,3.2931,3.2362,3.2093,3.1616,3.1482,3.1482,3.1482,3.1482,3.1482,3.1482,3.1482,3.1482,3.1482,3.1482,3.1582,3.2064,3.1853,3.1422,3.121,3.146,3.1772,3.1527,3.1486,3.1471,3.1471,3.1313,3.1195,3.1195,3.1182,3.1181,3.1181,3.1158,3.0881,3.0202,3.0453,3.0658,3.0359,3.0518,3.0781,3.1151,3.119,3.119,3.119,3.119,3.1072,3.0801,3.0091,2.9465,2.9045,2.9011,2.9011,2.9011,2.9011,2.9011,2.9011,2.9011,2.9011,2.9011,2.9011,2.9011,1.2193,1.4074,1.6129,1.6338,1.8208,2.0303,2.138,2.2143,2.3236,2.5435,2.5704,2.5959,2.729,2.7739,2.8338,2.9654,3.0417,3.1001,3.1407,3.1482,3.1854,3.2721,3.2679,3.2888,3.3777,3.4228,3.4461,3.4461,3.5133,3.5504,3.5504,3.5504,3.5504,3.5504,3.5504,3.5504,3.5504,3.5504,3.5504,3.5504,3.5504,3.5504,3.5504,3.5504,3.5504,3.5504,3.5504,3.5504,3.5474,3.4996,3.4666,3.4382,3.3484,3.3006,3.2736,3.2078,3.1839,3.1824,3.1541,3.1482,3.1482,3.1482,3.1482,3.1482,3.1482,3.164,3.1951,3.2437,3.2367,3.2145,3.2145,3.2367,3.2641,3.2895,3.2923,3.2928,3.2928,3.274,3.2546,3.2546,3.2541,3.255,3.255,3.2308,3.1998,3.1491,3.1426,3.138,3.1307,3.1299,3.1341,3.1523,3.1546,3.1444,3.1207,3.119,3.119,3.119,3.0734,3.0226,2.9702,2.9668,2.9668,2.9668,2.9668,2.9668,2.9668,2.9668,2.9668,2.9668,2.9668,2.9668,1.3721,1.5093,1.6876,1.7548,1.9256,2.1246,2.3191,2.4163,2.5405,2.8068,2.8068,2.8008,2.934,2.9056,2.9026,3.0298,3.1076,3.1467,3.1482,3.1482,3.2018,3.3335,3.3499,3.4023,3.537,3.5504,3.5504,3.5504,3.5504,3.5504,3.5504,3.5504,3.5504,3.5504,3.5504,3.5504,3.5504,3.5504,3.5504,3.5504,3.5504,3.5504,3.5504,3.5504,3.5504,3.5504,3.5504,3.5504,3.5504,3.5504,3.51,3.4487,3.4472,3.4083,3.3425,3.2766,3.2527,3.2422,3.1764,3.1482,3.1482,3.1539,3.1539,3.1524,3.1524,3.2007,3.2586,3.2641,3.3093,3.3582,3.3649,3.3145,3.2788,3.3443,3.3582,3.3633,3.3633,3.4137,3.4624,3.4624,3.4559,3.4506,3.4506,3.3897,3.3423,3.3423,3.3423,3.3406,3.3406,3.3406,3.3119,3.2374,3.229,3.2002,3.1275,3.1207,3.1207,3.1207,3.1207,3.1207,3.119,3.119,3.119,3.119,3.119,3.119,3.119,3.119,3.119,3.119,3.119,3.119,1.4546,1.5982,1.7959,1.8876,2.0946,2.3266,2.5255,2.5854,2.6632,2.8831,2.9475,2.9624,2.9579,2.943,2.9564,3.0372,3.0672,3.0986,3.1407,3.1928,3.2542,3.3395,3.3903,3.4532,3.5429,3.5504,3.5504,3.5504,3.5504,3.5504,3.5504,3.5504,3.5504,3.5504,3.5504,3.5504,3.5504,3.5504,3.5504,3.5504,3.5504,3.5504,3.5504,3.5504,3.5504,3.5504,3.5504,3.5504,3.5504,3.5504,3.5385,3.516,3.4666,3.4352,3.4098,3.344,3.2901,3.2482,3.2287,3.1855,3.1582,3.212,3.2272,3.2367,3.281,3.313,3.3391,3.3887,3.3836,3.3802,3.4752,3.4496,3.4087,3.4235,3.464,3.5005,3.5005,3.5161,3.5316,3.5316,3.5284,3.5284,3.5284,3.5098,3.4776,3.4252,3.4167,3.3981,3.3474,3.3406,3.3322,3.3102,3.3068,3.2983,3.2763,3.2747,3.2747,3.2747,3.2747,3.2273,3.1241,3.119,3.119,3.119,3.119,3.119,3.119,3.119,3.119,3.119,3.1507,3.164,1.5637,1.733,1.9459,2.0603,2.2458,2.4672,2.72,2.7979,2.8562,3.0058,3.0432,3.0477,3.0372,3.0133,3.0163,3.0806,3.0911,3.1061,3.1422,3.2093,3.2766,3.3425,3.4068,3.4741,3.5429,3.5504,3.5504,3.5504,3.5504,3.5504,3.5504,3.5504,3.5504,3.5504,3.5504,3.5504,3.5504,3.5504,3.5504,3.5504,3.5504,3.5504,3.5504,3.5504,3.5504,3.5504,3.5504,3.5504,3.5504,3.5504,3.5504,3.5459,3.5055,3.4891,3.4801,3.4128,3.3634,3.326,3.2991,3.2869,3.281,3.2915,3.3365,3.3918,3.3989,3.4204,3.4525,3.4923,3.4709,3.4609,3.5362,3.5316,3.4988,3.4988,3.5316,3.5622,3.5622,3.5622,3.5622,3.5622,3.5622,3.5622,3.5622,3.5622,3.547,3.5013,3.4945,3.4776,3.4336,3.4286,3.4167,3.388,3.3846,3.3728,3.3423,3.3406,3.3406,3.3406,3.3406,3.3,3.2104,3.1782,3.163,3.163,3.1343,3.1326,3.163,3.1326,3.119,3.119,3.1603,3.1789,1.6751,1.8842,2.109,2.2544,2.3969,2.5869,2.8891,3.0103,3.0776,3.1347,3.1031,3.0791,3.1362,3.1016,3.0806,3.1377,3.1482,3.1482,3.1482,3.2153,3.2826,3.3425,3.4128,3.4816,3.5444,3.5504,3.5504,3.5504,3.5504,3.5504,3.5504,3.5504,3.5504,3.5504,3.5504,3.5504,3.5504,3.5504,3.5504,3.5504,3.5504,3.5504,3.5504,3.5504,3.5504,3.5504,3.5504,3.5504,3.5504,3.5504,3.5504,3.5504,3.5504,3.5504,3.5429,3.4913,3.4643,3.4508,3.4015,3.4224,3.4696,3.4011,3.477,3.5782,3.5154,3.5426,3.5894,3.5894,3.5833,3.5808,3.574,3.5774,3.5791,3.5656,3.5622,3.5622,3.5622,3.5622,3.5622,3.5622,3.5622,3.5622,3.5622,3.5622,3.5622,3.5622,3.5622,3.5622,3.5622,3.5622,3.5351,3.4675,3.459,3.4336,3.366,3.3609,3.3609,3.3609,3.3609,3.3575,3.3508,3.278,3.2374,3.2374,3.1732,3.1715,3.2374,3.1794,3.1455,3.1455,3.194,3.216,1.7032,1.903,2.1599,2.3653,2.6378,2.8697,2.943,3.0477,3.136,3.1437,3.1362,3.1302,3.1452,3.1347,3.1302,3.1452,3.1482,3.1482,3.1482,3.2542,3.3335,3.3484,3.4562,3.534,3.5489,3.5504,3.5504,3.5504,3.5504,3.5504,3.5504,3.5504,3.5504,3.5504,3.5504,3.5504,3.5504,3.5504,3.5504,3.5504,3.5504,3.5504,3.5504,3.5504,3.5504,3.5504,3.5504,3.5504,3.5504,3.5504,3.5504,3.5504,3.5504,3.5504,3.5539,3.5997,3.583,3.5397,3.5933,3.5864,3.5607,3.5967,3.6329,3.6666,3.7086,3.733,3.7444,3.7444,3.7438,3.728,3.6688,3.6975,3.711,3.591,3.5622,3.5622,3.5622,3.5622,3.5622,3.5622,3.5622,3.5622,3.5622,3.5622,3.5622,3.5622,3.5622,3.5622,3.5622,3.5622,3.5554,3.5402,3.5368,3.5318,3.5165,3.5148,3.5148,3.5148,3.5148,3.4878,3.4286,3.3558,3.3169,3.3169,3.3017,3.3,3.3169,3.3414,3.3563,3.3563,3.441,3.4781,1.7013,1.9137,2.1613,2.4402,2.7126,2.919,2.9505,3.0342,3.1135,3.1407,3.1482,3.1482,3.1482,3.1482,3.1482,3.1482,3.1482,3.1482,3.1482,3.2392,3.314,3.3455,3.4397,3.5145,3.5474,3.5504,3.5504,3.5504,3.5504,3.5504,3.5504,3.5504,3.5504,3.5504,3.5504,3.5504,3.5504,3.5504,3.5504,3.5504,3.5504,3.5504,3.5504,3.5504,3.5504,3.5504,3.5504,3.5504,3.5504,3.5504,3.5504,3.5504,3.5504,3.5733,3.6054,3.6446,3.6625,3.6727,3.7132,3.727,3.728,3.7272,3.7783,3.8388,3.8417,3.843,3.843,3.843,3.8176,3.7821,3.7432,3.7618,3.7702,3.6907,3.6434,3.6079,3.569,3.5622,3.5622,3.5622,3.5622,3.5622,3.5622,3.5622,3.5622,3.5622,3.5622,3.5622,3.5622,3.5622,3.5622,3.5622,3.5622,3.5622,3.5622,3.5622,3.5622,3.5622,3.5622,3.5453,3.5047,3.4675,3.4303,3.3931,3.3592,3.3684,3.4316,3.4219,3.4338,3.4547,3.5267,3.5612,1.6172,1.8747,2.15,2.4792,2.7036,2.8592,2.9265,2.9983,3.0672,3.124,3.1392,3.1482,3.1482,3.1482,3.1482,3.1482,3.1482,3.1482,3.1482,3.2093,3.2766,3.3425,3.4068,3.4741,3.5429,3.5504,3.5504,3.5504,3.5504,3.5504,3.5504,3.5504,3.5504,3.5504,3.5504,3.5504,3.5504,3.5504,3.5504,3.5504,3.5504,3.5504,3.5504,3.5504,3.5504,3.5504,3.5504,3.5504,3.5504,3.5504,3.5504,3.5504,3.5504,3.5943,3.6615,3.6737,3.7322,3.8035,3.8149,3.8596,3.8987,3.8408,3.9074,3.9969,3.936,3.9174,3.9174,3.9174,3.8751,3.8261,3.8125,3.8193,3.8227,3.7973,3.7533,3.6941,3.618,3.6011,3.6011,3.6011,3.6011,3.6011,3.6011,3.591,3.5825,3.5859,3.5723,3.5622,3.5622,3.5622,3.5622,3.5622,3.5622,3.5622,3.5622,3.5622,3.5622,3.5622,3.5622,3.5622,3.5622,3.5622,3.5318,3.4692,3.41,3.4345,3.5503,3.4957,3.4951,3.542,3.5912,3.6141,1.3271,1.6997,2.15,2.4792,2.6677,2.7889,2.8577,2.9654,3.0537,3.0627,3.112,3.1482,3.1482,3.1482,3.1482,3.1482,3.1482,3.1482,3.1482,3.2093,3.2766,3.3425,3.4068,3.4741,3.5429,3.5504,3.5504,3.5504,3.5504,3.5504,3.5504,3.5504,3.5504,3.5504,3.5504,3.5504,3.5504,3.5504,3.5504,3.5504,3.5504,3.5504,3.5504,3.5504,3.5504,3.5504,3.5504,3.5504,3.5504,3.5504,3.5504,3.5504,3.5504,3.5943,3.6661,3.7397,3.8133,3.8854,3.9558,3.985,3.9935,3.9834,3.9935,4.0054,3.9969,3.9935,3.9935,3.9935,3.9868,3.9648,3.9005,3.9326,3.9462,3.821,3.8311,3.8497,3.7753,3.7601,3.7601,3.7601,3.7601,3.7601,3.7601,3.706,3.6688,3.6874,3.6163,3.5622,3.5622,3.5622,3.5622,3.5622,3.5622,3.5622,3.5622,3.5622,3.5622,3.5622,3.5622,3.5622,3.5622,3.5622,3.5571,3.547,3.5368,3.5615,3.626,3.6619,3.7039,3.75,3.8022,3.8297,1.4455,1.7601,2.0842,2.3759,2.548,2.6737,2.7784,2.9041,3.0088,3.0432,3.1046,3.1482,3.1482,3.1482,3.1482,3.1482,3.1482,3.1482,3.1482,3.1779,3.2347,3.338,3.3754,3.4337,3.54,3.5504,3.5504,3.5504,3.5504,3.5504,3.5504,3.5504,3.5504,3.5504,3.5504,3.5504,3.5504,3.5504,3.5504,3.5504,3.5504,3.5504,3.5504,3.5958,3.6117,3.6117,3.5668,3.5718,3.6117,3.6117,3.6117,3.618,3.66,3.7219,3.793,3.8302,3.8924,3.961,3.9952,4.007,4.007,4.007,4.007,4.007,4.007,4.007,4.007,4.007,4.007,4.0003,3.9681,3.9834,3.9918,3.9276,3.9377,3.9512,3.9191,3.8481,3.7905,3.7905,3.7905,3.7905,3.7905,3.7635,3.7449,3.7533,3.7178,3.6907,3.6907,3.6907,3.6907,3.6907,3.6907,3.6907,3.6907,3.6907,3.6721,3.6299,3.6265,3.6079,3.5639,3.5898,3.6054,3.6054,3.6054,3.6291,3.6843,3.736,3.7843,3.8332,3.8578,3.8707,1.4924,1.7227,1.9161,2.1904,2.3864,2.5435,2.6767,2.8113,2.925,2.9894,3.0687,3.127,3.127,3.1362,3.1482,3.1482,3.1482,3.1482,3.1482,3.1482,3.1958,3.311,3.3395,3.3963,3.513,3.54,3.5504,3.5504,3.5668,3.5782,3.5782,3.5958,3.5958,3.5782,3.5782,3.5782,3.5782,3.5782,3.5782,3.5782,3.5782,3.5782,3.5782,3.6569,3.6904,3.6843,3.6305,3.618,3.6337,3.6737,3.6783,3.6661,3.7515,3.8246,3.8908,3.8908,3.9437,4.007,4.007,4.007,4.007,4.007,4.007,4.007,4.007,4.007,4.007,4.007,4.007,4.007,4.007,4.007,4.007,4.007,4.007,4.007,4.007,3.9225,3.8464,3.8464,3.8464,3.8464,3.8464,3.8311,3.8244,3.843,3.8244,3.8176,3.843,3.8244,3.8091,3.8091,3.7973,3.7905,3.7905,3.7905,3.7669,3.7094,3.7211,3.703,3.6389,3.6903,3.7236,3.7236,3.7149,3.7175,3.736,3.772,3.8183,3.8707,3.8707,3.8707,1.2436,1.4252,1.5998,1.9131,2.1814,2.4059,2.5405,2.6737,2.7874,2.8562,2.9699,3.0552,3.0552,3.1091,3.1482,3.1482,3.1482,3.1482,3.1482,3.1482,3.1735,3.2482,3.311,3.3769,3.4457,3.5115,3.5504,3.5504,3.6165,3.6554,3.6554,3.7279,3.7338,3.6554,3.6554,3.6554,3.6554,3.6554,3.6554,3.6554,3.6554,3.6554,3.6554,3.7397,3.7748,3.7764,3.7706,3.689,3.5683,3.7115,3.7279,3.6661,3.7515,3.8246,3.8908,3.8908,3.9437,4.007,4.007,4.007,4.007,4.007,4.007,4.007,4.007,4.007,4.007,4.007,4.007,4.007,4.007,4.007,4.007,4.007,4.007,4.007,4.007,4.002,3.9969,3.9969,3.9969,3.9969,3.9969,3.9394,3.9174,3.9868,3.9157,3.8903,3.9834,3.914,3.8565,3.8565,3.8176,3.7905,3.7905,3.7905,3.7889,3.7855,3.8339,3.8564,3.8529,3.9124,3.9408,3.9408,3.9119,3.8598,3.7859,3.7911,3.8183,3.8707,3.8707,3.8707,1.2429,1.3832,1.5376,1.8021,2.0573,2.2678,2.3528,2.6031,2.8054,2.7991,2.8996,3.0028,3.0432,3.1061,3.1482,3.1482,3.1482,3.1482,3.1482,3.1482,3.1779,3.2437,3.2721,3.3276,3.4363,3.4725,3.5243,3.6219,3.606,3.6352,3.7338,3.7144,3.7144,3.7381,3.7397,3.7397,3.7397,3.7397,3.7397,3.7397,3.7397,3.7397,3.7397,3.8189,3.8262,3.7879,3.8832,3.8652,3.7732,3.8302,3.8358,3.8157,3.8978,3.9454,3.9662,3.9662,3.9833,4.007,4.007,4.007,4.007,4.007,4.007,4.007,4.007,4.007,4.007,4.007,4.007,4.007,4.007,4.007,4.007,4.007,4.007,4.007,4.007,4.007,4.007,4.007,4.007,4.007,4.007,3.9868,3.9783,4.0037,3.9783,3.9681,4.0037,3.9766,3.9546,3.9546,3.9394,3.9292,3.9292,3.9292,3.9106,3.8633,3.9112,3.9197,3.8712,3.9593,4.0036,4.0036,4.0289,3.9813,3.8686,3.8503,3.8496,3.8707,3.8707,3.8707,1.1941,1.3252,1.4947,1.7421,1.9374,2.1151,2.2809,2.4967,2.6765,2.7091,2.8117,2.9101,2.9744,3.0417,3.1016,3.1407,3.1482,3.1482,3.1482,3.1482,3.1704,3.2138,3.2377,3.284,3.375,3.403,3.4546,3.556,3.5585,3.6076,3.7396,3.7414,3.76,3.8133,3.8149,3.8035,3.7822,3.8035,3.8149,3.8149,3.8149,3.8149,3.8206,3.8978,3.887,3.8246,3.9558,3.9489,3.858,3.9086,3.9139,3.8962,3.9782,4.007,4.007,4.007,4.007,4.007,4.007,4.007,4.007,4.007,4.007,4.007,4.007,4.007,4.007,4.007,4.007,4.007,4.007,4.007,4.007,4.007,4.007,4.007,4.007,4.007,4.007,4.007,4.007,4.007,4.007,4.007,4.007,4.007,4.007,4.007,4.007,4.007,4.007,4.007,4.007,4.007,4.007,4.007,3.9868,3.9394,4.0055,4.0246,3.9765,4.0769,4.1378,4.1378,4.1473,4.1071,4.0179,3.9735,3.9515,3.9515,3.9515,3.9515,0.0,0.0,0.0,1.7126,1.8171,1.9482,2.3076,2.3505,2.3723,2.5782,2.6879,2.773,2.8479,2.9086,2.9939,3.1255,3.1495,3.1452,3.1482,3.1482,3.1482,3.1482,3.2093,3.2482,3.2482,3.308,3.3469,3.3516,3.4804,3.59,3.6742,3.8139,3.8891,3.8908,3.8908,3.858,3.7863,3.858,3.8908,3.8908,3.8908,3.8908,3.8962,3.9714,3.9662,3.8962,3.9782,3.9226,3.7978,3.9506,3.9662,3.9016,3.9782,4.007,4.007,4.007,4.007,4.007,4.007,4.007,4.007,4.007,4.007,4.007,4.007,4.007,4.007,4.007,4.007,4.007,4.007,4.007,4.007,4.007,4.007,4.007,4.007,4.007,4.007,4.007,4.007,4.007,4.007,4.007,4.007,4.007,4.007,4.007,4.007,4.007,4.007,4.007,4.0121,4.0121,4.0121,4.0121,4.0171,4.0171,4.1196,4.1853,4.1853,4.2903,4.3497,4.3497,4.2727,4.2341,4.2323,4.1515,4.1111,4.1111,4.1111,4.1111,1.2535,0.0,0.0,0.0,0.0,0.0,1.906,2.0703,2.229,2.3782,2.464,2.5848,2.813,2.8349,2.8703,3.0494,3.0794,3.0971,3.1407,3.1482,3.1482,3.1482,3.1631,3.1968,3.2507,3.2672,3.3226,3.4305,3.4634,3.5392,3.6718,3.8202,3.9244,3.9765,3.9782,3.9662,3.9454,3.9679,3.9782,3.9782,3.9782,3.9782,3.9782,4.002,3.9952,3.9782,4.002,3.985,3.9506,3.9901,3.9969,3.9782,4.002,4.007,4.007,4.007,4.007,4.007,4.007,4.007,4.007,4.007,4.007,4.007,4.007,4.007,4.007,4.007,4.007,4.007,4.007,4.007,4.007,4.007,4.007,4.007,4.007,4.007,4.007,4.007,4.007,4.007,4.007,4.007,4.007,4.007,4.007,4.007,4.007,4.007,4.007,4.007,4.0449,4.0703,4.0703,4.1059,4.1331,4.1331,4.2038,4.244,4.244,4.3124,4.3497,4.3497,4.3277,4.3167,4.3149,4.1791,4.1111,4.1111,4.1111,4.1111,1.4629,1.5255,1.615,1.6701,0.0,0.0,1.9246,2.0303,2.1437,2.3027,2.374,2.4683,2.6611,2.6963,2.7504,2.92,2.9577,2.9954,3.0926,3.1106,3.121,3.1437,3.1482,3.1697,3.212,3.2357,3.2911,3.3745,3.4266,3.5195,3.6666,3.817,3.9191,3.9614,3.9918,4.007,4.007,4.007,4.007,4.007,4.007,4.007,4.007,4.007,4.007,4.007,4.007,4.007,4.007,4.007,4.007,4.007,4.007,4.007,4.007,4.007,4.007,4.007,4.007,4.007,4.007,4.007,4.007,4.007,4.007,4.007,4.007,4.007,4.007,4.007,4.007,4.007,4.007,4.007,4.007,4.007,4.007,4.007,4.007,4.007,4.007,4.007,4.007,4.007,4.007,4.007,4.007,4.0204,4.0497,4.0497,4.0546,4.0767,4.1105,4.1268,4.1268,4.1578,4.181,4.181,4.2342,4.2711,4.2711,4.3214,4.3497,4.3497,4.3497,4.3497,4.3497,4.2561,4.2103,4.2103,4.2103,4.2103,1.695,1.7453,1.8414,1.9969,1.9485,0.0,2.136,2.105,2.0825,2.272,2.3243,2.366,2.4465,2.5179,2.6109,2.7503,2.8011,2.8778,3.0322,3.0498,3.0683,3.124,3.1432,3.1462,3.142,3.2114,3.2586,3.2586,3.3858,3.525,3.6653,3.7986,3.8819,3.8988,3.9631,4.0003,4.007,4.007,4.007,4.007,4.007,4.007,4.007,4.007,4.007,4.007,4.007,4.007,4.007,4.007,4.007,4.007,4.007,4.007,4.007,4.007,4.007,4.007,4.007,4.007,4.007,4.007,4.007,4.007,4.007,4.007,4.007,4.007,4.007,4.007,4.007,4.007,4.007,4.007,4.007,4.007,4.007,4.007,4.007,4.007,4.007,4.007,4.007,4.0171,4.0204,4.0204,4.0254,4.0514,4.1178,4.1133,4.1223,4.175,4.1853,4.1895,4.1895,4.1961,4.1979,4.1979,4.2501,4.2788,4.2788,4.325,4.3497,4.3497,4.3497,4.3497,4.3497,4.3497,4.3497,4.3497,4.3497,4.3497,1.9133,1.9749,2.0517,1.9597,2.0008,0.0,1.9334,1.9394,1.9747,2.0068,2.0166,2.0773,2.272,2.3234,2.384,2.5151,2.651,2.8165,3.0217,3.0483,3.0402,2.9993,3.0852,3.125,3.0758,3.1839,3.2586,3.2586,3.3864,3.5233,3.6673,3.7081,3.7753,3.8954,3.914,3.9478,4.007,4.007,4.007,4.007,4.007,4.007,4.007,4.007,4.007,4.007,4.007,4.007,4.007,4.007,4.007,4.007,4.007,4.007,4.007,4.007,4.007,4.007,4.007,4.007,4.007,4.007,4.007,4.007,4.007,4.007,4.007,4.007,4.007,4.007,4.007,4.007,4.007,4.007,4.007,4.007,4.007,4.007,4.007,4.007,4.007,4.007,4.007,4.0449,4.0733,4.0733,4.115,4.1508,4.1664,4.1664,4.1664,4.181,4.2244,4.2519,4.2519,4.2921,4.316,4.316,4.3286,4.3321,4.3321,4.3444,4.3497,4.3497,4.3497,4.3497,4.3497,4.3497,4.3497,4.3497,4.3497,4.3497,2.1584,2.1696,2.2118,2.1588,2.1674,0.0,0.0,2.0261,2.0252,2.1145,2.0439,2.024,2.2099,2.2516,2.2882,2.3899,2.5105,2.6471,2.7965,2.8936,2.9458,2.9453,3.0032,3.0408,3.0356,3.1994,3.3315,3.4037,3.4704,3.5421,3.618,3.6569,3.7297,3.8413,3.8802,3.9343,4.007,4.007,4.007,4.007,4.007,4.007,4.007,4.007,4.007,4.007,4.007,4.007,4.007,4.007,4.007,4.007,4.007,4.007,4.007,4.007,4.007,4.007,4.007,4.007,4.007,4.007,4.007,4.007,4.007,4.007,4.007,4.007,4.007,4.007,4.007,4.007,4.007,4.007,4.007,4.007,4.007,4.007,4.0154,4.0449,4.0497,4.0497,4.0497,4.0733,4.1087,4.1578,4.1707,4.2021,4.2562,4.2404,4.2324,4.26,4.2921,4.3105,4.3105,4.3339,4.3497,4.3497,4.3497,4.3497,4.3497,4.3497,4.3497,4.3497,4.3497,4.3497,4.3497,4.3497,4.3497,4.3497,4.3497,4.3497,2.4135,2.3857,2.4014,2.3997,2.3843,2.3512,0.0,0.0,0.0,2.2699,2.1437,2.0476,2.1715,2.1898,2.2057,2.2649,2.3697,2.4576,2.4898,2.6493,2.7796,2.837,2.8903,2.9344,2.9767,3.1521,3.3292,3.4875,3.484,3.4962,3.5385,3.6129,3.6907,3.7669,3.8396,3.914,3.9868,4.0003,4.007,4.007,4.007,4.007,4.007,4.007,4.007,4.007,4.007,4.007,4.007,4.007,4.007,4.007,4.007,4.007,4.007,4.007,4.007,4.007,4.007,4.007,4.007,4.007,4.007,4.007,4.007,4.007,4.007,4.007,4.007,4.007,4.007,4.007,4.007,4.007,4.007,4.0121,4.0254,4.0237,4.0417,4.0967,4.1087,4.1087,4.1087,4.1178,4.1534,4.2342,4.2284,4.2465,4.3356,4.3142,4.3014,4.3444,4.3497,4.3497,4.3497,4.3497,4.3497,4.3497,4.3497,4.3497,4.3497,4.3497,4.3497,4.3497,4.3497,4.3497,4.3497,4.3497,4.3497,4.3497,4.3497,4.3497,2.6631,2.6936,2.7241,2.5262,2.6231,2.6684,2.3028,0.0,2.3013,2.1568,0.0,2.0506,2.0679,0.0,0.0,2.0373,2.2169,2.317,2.2064,2.3242,2.4527,2.5298,2.7001,2.8165,2.8303,2.9032,3.0448,3.2685,3.2119,3.256,3.4523,3.5334,3.6113,3.6891,3.7635,3.8379,3.9106,3.9749,4.007,4.007,4.007,4.007,4.007,4.007,4.007,4.007,4.007,4.007,4.007,4.007,4.007,4.007,4.007,4.007,4.007,4.007,4.007,4.007,4.007,4.007,4.007,4.007,4.007,4.007,4.007,4.007,4.007,4.007,4.007,4.007,4.007,4.007,4.007,4.007,4.007,4.0254,4.0703,4.0827,4.1013,4.1578,4.1707,4.1707,4.1707,4.2121,4.2519,4.2655,4.305,4.3356,4.3479,4.3444,4.3444,4.3479,4.3497,4.3497,4.3497,4.3497,4.3497,4.3497,4.3497,4.3497,4.3497,4.3497,4.3497,4.3497,4.3497,4.3497,4.3497,4.3497,4.3497,4.3497,4.3497,4.3497,2.6386,2.6611,2.6979,2.5579,2.6079,2.6301,2.3975,2.3271,2.3076,2.2944,0.0,0.0,0.0,0.0,0.0,0.0,2.102,2.1133,2.0297,2.0971,2.2198,2.3945,2.4919,2.6299,2.8421,2.8434,2.9254,3.1591,3.1021,3.1529,3.3744,3.4556,3.552,3.6738,3.7516,3.8261,3.8988,3.9715,4.007,4.007,4.007,4.007,4.007,4.007,4.007,4.007,4.007,4.007,4.007,4.007,4.007,4.007,4.007,4.007,4.007,4.007,4.007,4.007,4.007,4.007,4.007,4.007,4.007,4.007,4.007,4.007,4.007,4.007,4.007,4.007,4.007,4.007,4.007,4.007,4.0336,4.0625,4.0856,4.1178,4.1578,4.2221,4.2302,4.2422,4.2734,4.2732,4.2826,4.3142,4.3375,4.3497,4.3497,4.3497,4.3497,4.3497,4.3497,4.3497,4.3497,4.3497,4.3497,4.3497,4.3497,4.3497,4.3497,4.3497,4.3497,4.3497,4.3497,4.3497,4.3497,4.3497,4.3497,4.3497,4.3497,4.3497,2.6886,2.6933,2.7093,2.5809,2.5737,2.5603,2.4346,2.3713,2.354,2.4035,2.3117,0.0,0.0,0.0,2.0933,2.0902,0.0,1.9945,1.9117,1.9452,2.0516,2.2382,2.3389,2.493,2.7578,2.6876,2.7332,2.9849,2.9121,2.9803,3.2662,3.3694,3.4793,3.6113,3.7094,3.7956,3.8684,3.9411,3.9884,4.007,4.007,4.007,4.007,4.007,4.007,4.007,4.007,4.007,4.007,4.007,4.007,4.007,4.007,4.007,4.007,4.007,4.007,4.007,4.007,4.007,4.007,4.007,4.007,4.007,4.007,4.007,4.007,4.007,4.0204,4.0336,4.0336,4.0417,4.0563,4.0563,4.0891,4.1178,4.1358,4.175,4.2203,4.2808,4.2902,4.305,4.3444,4.3178,4.305,4.3444,4.3497,4.3497,4.3497,4.3497,4.3497,4.3497,4.3497,4.3497,4.3497,4.3497,4.3497,4.3497,4.3497,4.3497,4.3497,4.3497,4.3497,4.3497,4.3497,4.3497,4.3497,4.3497,4.3497,4.3497,4.3497,4.3497,2.9319,2.9152,2.8789,2.6161,2.581,2.5594,2.3658,2.4367,2.5073,2.3947,2.4581,2.5002,2.3898,2.2793,2.1795,2.1033,2.0888,0.0,0.0,1.8862,1.9522,2.0061,2.2688,2.4558,2.482,2.3427,2.3723,2.6829,2.5564,2.659,3.1021,3.2645,3.3795,3.4539,3.6028,3.7178,3.7939,3.8667,3.9377,4.007,4.007,4.007,4.007,4.007,4.007,4.007,4.007,4.007,4.007,4.007,4.007,4.007,4.007,4.007,4.007,4.007,4.007,4.007,4.007,4.007,4.007,4.007,4.007,4.007,4.007,4.007,4.007,4.007,4.0497,4.0856,4.0856,4.1313,4.1768,4.1768,4.1768,4.1937,4.2519,4.2673,4.2826,4.3375,4.3479,4.3479,4.3497,4.3497,4.3479,4.3497,4.3497,4.3497,4.3497,4.3497,4.3497,4.3497,4.3497,4.3497,4.3497,4.3497,4.3497,4.3497,4.3497,4.3497,4.3497,4.3497,4.3497,4.3497,4.3497,4.3497,4.3497,4.3497,4.3497,4.3497,4.3497,4.3497,3.0587,3.0888,3.0779,2.8408,2.7683,2.6985,2.4868,2.498,2.5093,2.3643,2.4506,2.5126,2.3916,2.2811,2.2139,2.2274,2.1102,1.9792,0.0,1.8412,1.8552,1.9181,2.1498,2.2647,2.1673,2.2029,2.2933,2.4476,2.4534,2.6047,2.955,3.1596,3.3,3.3744,3.5723,3.7144,3.7905,3.8633,3.936,4.007,4.007,4.007,4.007,4.007,4.007,4.007,4.007,4.007,4.007,4.007,4.007,4.007,4.007,4.007,4.007,4.007,4.007,4.007,4.007,4.007,4.007,4.007,4.007,4.007,4.007,4.007,4.007,4.007,4.0497,4.0903,4.0903,4.1358,4.181,4.181,4.2121,4.244,4.2673,4.2976,4.3286,4.3444,4.3497,4.3497,4.3497,4.3497,4.3497,4.3497,4.3497,4.3497,4.3497,4.3497,4.3497,4.3497,4.3497,4.3497,4.3497,4.3497,4.3497,4.3497,4.3497,4.3497,4.3497,4.3497,4.3497,4.3497,4.3497,4.3497,4.3497,4.3497,4.3497,4.3497,4.3497,4.3497,3.1647,3.1918,3.1839,3.0006,2.9245,2.8322,2.5932,2.5865,2.5843,2.4182,2.462,2.5279,2.5151,2.3772,2.2769,2.3113,2.1694,2.0099,0.0,1.8391,1.8272,1.8753,2.039,2.1211,2.05,2.0602,2.1465,2.3257,2.3342,2.476,2.7994,3.0531,3.2239,3.2983,3.5199,3.6857,3.7889,3.8379,3.9106,4.007,4.007,4.007,4.007,4.007,4.007,4.007,4.007,4.007,4.007,4.007,4.007,4.007,4.007,4.007,4.007,4.007,4.007,4.007,4.007,4.007,4.007,4.007,4.007,4.007,4.007,4.0254,4.0368,4.0368,4.092,4.1534,4.1534,4.1961,4.2386,4.2386,4.2696,4.2976,4.2976,4.325,4.3497,4.3497,4.3497,4.3497,4.3497,4.3497,4.3497,4.3497,4.3497,4.3497,4.3497,4.3497,4.3497,4.3497,4.3497,4.3497,4.3497,4.3497,4.3497,4.3497,4.3497,4.3497,4.3497,4.3497,4.3497,4.3497,4.3497,4.3497,4.3497,4.3497,4.3497,4.3497,4.3497,4.3497]}]]